[[{"header":{"parameterUnit":"m.s-1","parameterCategory":1,"la1":30.6,"la2":29.2853,"lo1":-89.7004,"lo2":-87.6739,"dy":0.0162,"dx":0.0183,"nx":112,"ny":82,"refTime":"2026-04-03T00:00:00:Z","depth":0,"parameterNumber":2,"parameterNumberName":"U-component_of_WINDS"},"data":[0.0,0.0,0.0,0.0,0.0,0.0,0.0,0.0,0.0,0.0,0.0,0.0,0.0,0.0,0.0,0.0,0.0,0.0,0.0,0.0,0.0,0.0,0.0,0.0,0.0,0.0,0.0,0.0,0.0,0.0,0.0,0.0,0.0,0.0,0.0,0.0,0.0,0.0,0.0,0.0,0.0,0.0,0.0,0.0,0.0,0.0,0.0,0.0,0.0,0.0,0.0,0.0,0.0,0.0,0.0,0.0,0.0,0.0,0.0,0.0,0.0,0.0,0.0,0.0,0.0,0.0,0.0,0.0,0.0,0.0,0.0,0.0,0.0,0.0,0.0,0.0,0.0,0.0,0.0,0.0,0.0,0.0,0.0,0.0,0.0,0.0,0.0,0.0,0.0,0.0,0.0,5.3883,6.3376,6.857,6.6754,6.4785,6.07,5.3798,0.0,0.0,0.0,0.0,0.0,0.0,0.0,0.0,0.0,0.0,0.0,0.0,0.0,0.0,0.0,0.0,0.0,0.0,0.0,0.0,0.0,0.0,0.0,0.0,0.0,0.0,0.0,0.0,0.0,0.0,0.0,0.0,0.0,0.0,0.0,0.0,0.0,0.0,0.0,0.0,0.0,0.0,0.0,0.0,0.0,0.0,0.0,0.0,0.0,0.0,0.0,0.0,0.0,0.0,0.0,0.0,0.0,0.0,0.0,0.0,0.0,0.0,0.0,0.0,0.0,0.0,0.0,0.0,0.0,0.0,0.0,0.0,0.0,0.0,0.0,0.0,0.0,0.0,0.0,0.0,0.0,0.0,0.0,0.0,0.0,0.0,0.0,0.0,0.0,0.0,0.0,0.0,0.0,0.0,0.0,0.0,0.0,0.0,0.0,0.0,0.0,0.0,0.0,0.0,5.23,6.178,6.8024,7.0524,6.8124,6.7073,6.3414,5.601,0.0,0.0,0.0,0.0,0.0,0.0,0.0,0.0,0.0,0.0,0.0,0.0,0.0,0.0,0.0,0.0,0.0,0.0,0.0,0.0,0.0,0.0,0.0,0.0,0.0,0.0,0.0,0.0,0.0,0.0,0.0,0.0,0.0,0.0,0.0,0.0,0.0,0.0,0.0,0.0,0.0,0.0,0.0,0.0,0.0,0.0,0.0,0.0,0.0,0.0,0.0,0.0,0.0,0.0,0.0,0.0,0.0,0.0,0.0,0.0,0.0,0.0,0.0,0.0,0.0,0.0,0.0,0.0,0.0,0.0,0.0,0.0,0.0,0.0,0.0,0.0,0.0,0.0,0.0,0.0,0.0,0.0,0.0,0.0,0.0,0.0,0.0,0.0,0.0,0.0,0.0,0.0,0.0,0.0,0.0,0.0,0.0,0.0,0.0,0.0,0.0,0.0,0.0,5.1553,5.8127,6.5083,6.9036,7.0166,6.7721,6.5593,6.1433,5.4373,4.7535,0.0,0.0,0.0,0.0,0.0,0.0,0.0,0.0,0.0,0.0,0.0,0.0,0.0,0.0,0.0,0.0,0.0,0.0,0.0,0.0,0.0,0.0,0.0,0.0,0.0,0.0,0.0,0.0,0.0,0.0,0.0,0.0,0.0,0.0,0.0,0.0,0.0,0.0,0.0,0.0,0.0,0.0,0.0,0.0,0.0,0.0,0.0,0.0,0.0,0.0,0.0,0.0,0.0,0.0,0.0,0.0,0.0,0.0,0.0,0.0,0.0,0.0,0.0,0.0,0.0,0.0,0.0,0.0,0.0,0.0,0.0,0.0,0.0,0.0,0.0,0.0,0.0,0.0,0.0,0.0,0.0,0.0,0.0,0.0,0.0,0.0,0.0,0.0,0.0,0.0,0.0,0.0,0.0,0.0,0.0,0.0,0.0,0.0,0.0,0.0,0.0,0.0,5.7654,6.3082,6.6461,6.913,6.9572,6.6763,6.3578,5.89,5.2277,4.642,0.0,0.0,0.0,0.0,0.0,0.0,0.0,0.0,0.0,0.0,0.0,0.0,0.0,0.0,0.0,0.0,0.0,0.0,0.0,0.0,0.0,0.0,0.0,0.0,0.0,0.0,0.0,0.0,0.0,0.0,0.0,0.0,0.0,0.0,0.0,0.0,0.0,0.0,0.0,0.0,0.0,0.0,0.0,0.0,0.0,0.0,0.0,0.0,0.0,0.0,0.0,0.0,0.0,0.0,0.0,0.0,0.0,0.0,0.0,0.0,0.0,0.0,0.0,0.0,0.0,0.0,0.0,0.0,0.0,0.0,0.0,0.0,0.0,0.0,0.0,0.0,0.0,0.0,0.0,0.0,0.0,0.0,0.0,0.0,0.0,0.0,0.0,0.0,0.0,0.0,0.0,0.0,0.0,0.0,0.0,0.0,0.0,0.0,0.0,0.0,0.0,0.0,6.0109,6.5388,6.6435,6.9366,6.9653,6.5724,6.2426,5.7762,5.1326,4.5557,0.0,0.0,0.0,0.0,0.0,0.0,0.0,0.0,0.0,0.0,0.0,0.0,0.0,0.0,0.0,0.0,0.0,0.0,0.0,0.0,0.0,0.0,0.0,0.0,0.0,0.0,0.0,0.0,0.0,0.0,0.0,0.0,0.0,0.0,0.0,0.0,0.0,0.0,0.0,0.0,0.0,0.0,0.0,0.0,0.0,0.0,0.0,0.0,0.0,0.0,0.0,0.0,0.0,0.0,0.0,0.0,0.0,0.0,0.0,0.0,0.0,0.0,0.0,0.0,0.0,0.0,0.0,0.0,0.0,0.0,0.0,0.0,0.0,0.0,0.0,0.0,0.0,0.0,0.0,0.0,0.0,0.0,0.0,0.0,0.0,0.0,0.0,0.0,0.0,0.0,0.0,0.0,0.0,0.0,0.0,0.0,0.0,0.0,0.0,0.0,0.0,0.0,6.0785,6.6145,0.0,6.8935,6.8935,6.4897,6.108,5.6345,5.0362,0.0,0.0,0.0,0.0,0.0,0.0,0.0,0.0,0.0,0.0,0.0,0.0,0.0,0.0,0.0,0.0,0.0,0.0,0.0,0.0,0.0,0.0,0.0,0.0,0.0,0.0,0.0,0.0,0.0,0.0,0.0,0.0,0.0,0.0,0.0,0.0,0.0,0.0,0.0,0.0,0.0,0.0,0.0,0.0,0.0,0.0,0.0,0.0,0.0,0.0,0.0,0.0,0.0,0.0,0.0,0.0,0.0,0.0,0.0,0.0,0.0,0.0,0.0,0.0,0.0,0.0,0.0,0.0,0.0,0.0,0.0,0.0,0.0,0.0,0.0,0.0,0.0,0.0,0.0,0.0,0.0,0.0,0.0,0.0,0.0,0.0,0.0,0.0,0.0,0.0,0.0,0.0,0.0,0.0,0.0,0.0,0.0,0.0,0.0,0.0,0.0,0.0,5.3057,6.1153,6.6512,0.0,6.8641,6.8355,6.4053,6.0199,5.5464,4.9481,0.0,0.0,0.0,0.0,0.0,0.0,0.0,0.0,0.0,0.0,0.0,0.0,0.0,0.0,0.0,0.0,0.0,0.0,0.0,0.0,0.0,0.0,0.0,0.0,0.0,0.0,0.0,0.0,0.0,0.0,0.0,0.0,0.0,0.0,0.0,0.0,0.0,0.0,0.0,0.0,0.0,0.0,0.0,0.0,0.0,0.0,0.0,0.0,0.0,0.0,0.0,0.0,0.0,0.0,0.0,0.0,0.0,0.0,0.0,0.0,0.0,0.0,0.0,0.0,0.0,0.0,0.0,0.0,0.0,0.0,0.0,0.0,0.0,0.0,0.0,0.0,0.0,0.0,0.0,0.0,0.0,0.0,0.0,0.0,0.0,0.0,0.0,0.0,0.0,0.0,0.0,0.0,0.0,0.0,0.0,0.0,0.0,0.0,0.0,0.0,0.0,0.0,5.3665,6.1484,6.6512,6.6512,6.8685,6.8128,6.327,5.9899,5.528,0.0,0.0,0.0,0.0,0.0,0.0,0.0,0.0,0.0,0.0,0.0,0.0,0.0,0.0,0.0,0.0,0.0,0.0,0.0,0.0,0.0,0.0,0.0,0.0,0.0,0.0,0.0,0.0,0.0,0.0,0.0,0.0,0.0,0.0,0.0,0.0,0.0,0.0,0.0,0.0,0.0,0.0,0.0,0.0,0.0,0.0,0.0,0.0,0.0,0.0,0.0,0.0,0.0,0.0,0.0,0.0,0.0,0.0,0.0,0.0,0.0,0.0,0.0,0.0,0.0,0.0,0.0,0.0,0.0,0.0,0.0,0.0,0.0,0.0,0.0,0.0,0.0,0.0,0.0,0.0,0.0,0.0,0.0,0.0,0.0,0.0,0.0,0.0,0.0,0.0,0.0,0.0,0.0,0.0,0.0,0.0,0.0,0.0,0.0,0.0,0.0,0.0,0.0,5.3739,6.1967,6.737,6.737,6.9015,6.8832,6.5668,6.2401,5.7782,5.1321,0.0,0.0,0.0,0.0,0.0,0.0,0.0,0.0,0.0,0.0,0.0,0.0,0.0,0.0,0.0,0.0,0.0,0.0,0.0,0.0,0.0,0.0,0.0,0.0,0.0,0.0,0.0,0.0,0.0,0.0,0.0,0.0,0.0,0.0,0.0,0.0,0.0,0.0,0.0,0.0,0.0,0.0,0.0,0.0,0.0,0.0,0.0,0.0,0.0,0.0,0.0,0.0,0.0,0.0,0.0,0.0,0.0,0.0,0.0,0.0,0.0,0.0,0.0,0.0,0.0,0.0,0.0,0.0,0.0,0.0,0.0,0.0,0.0,0.0,0.0,0.0,0.0,0.0,0.0,0.0,0.0,0.0,0.0,0.0,0.0,0.0,0.0,0.0,0.0,0.0,0.0,0.0,0.0,0.0,0.0,0.0,0.0,0.0,0.0,0.0,0.0,0.0,5.4184,6.2371,6.7811,6.8134,6.9633,6.9596,6.718,6.4567,6.0309,5.3859,0.0,0.0,0.0,0.0,0.0,0.0,0.0,0.0,0.0,0.0,0.0,0.0,0.0,0.0,0.0,0.0,0.0,0.0,0.0,0.0,0.0,0.0,0.0,0.0,0.0,0.0,0.0,0.0,0.0,0.0,0.0,0.0,0.0,0.0,0.0,0.0,0.0,0.0,0.0,0.0,0.0,0.0,0.0,0.0,0.0,0.0,0.0,0.0,0.0,0.0,0.0,0.0,0.0,0.0,0.0,0.0,0.0,0.0,0.0,0.0,0.0,0.0,0.0,0.0,0.0,0.0,0.0,0.0,0.0,0.0,0.0,0.0,0.0,0.0,0.0,0.0,0.0,0.0,0.0,0.0,0.0,0.0,0.0,0.0,0.0,0.0,0.0,0.0,0.0,0.0,0.0,0.0,0.0,0.0,0.0,0.0,0.0,0.0,0.0,0.0,0.0,0.0,5.4887,6.2744,6.8024,6.8928,7.0389,7.0396,6.8104,6.6439,6.2762,5.624,0.0,0.0,0.0,0.0,0.0,0.0,0.0,0.0,0.0,0.0,0.0,0.0,0.0,0.0,0.0,0.0,0.0,0.0,0.0,0.0,0.0,0.0,0.0,0.0,0.0,0.0,0.0,0.0,0.0,0.0,0.0,0.0,0.0,0.0,0.0,0.0,0.0,0.0,0.0,0.0,0.0,0.0,0.0,0.0,0.0,0.0,0.0,0.0,0.0,0.0,0.0,0.0,0.0,0.0,0.0,0.0,0.0,0.0,0.0,0.0,3.8041,0.0,0.0,0.0,0.0,0.0,0.0,0.0,0.0,0.0,0.0,0.0,0.0,0.0,0.0,0.0,0.0,0.0,0.0,0.0,0.0,0.0,0.0,0.0,0.0,0.0,0.0,0.0,0.0,0.0,0.0,0.0,0.0,0.0,0.0,0.0,0.0,0.0,0.0,0.0,0.0,0.0,5.5715,6.3068,6.8244,6.9706,7.0727,7.0837,6.9676,6.8098,6.4427,5.7892,5.3266,0.0,0.0,0.0,0.0,0.0,0.0,0.0,0.0,0.0,0.0,0.0,0.0,0.0,0.0,0.0,0.0,0.0,0.0,0.0,0.0,0.0,0.0,0.0,0.0,0.0,0.0,0.0,0.0,0.0,0.0,0.0,0.0,0.0,0.0,0.0,0.0,0.0,0.0,0.0,0.0,0.0,0.0,0.0,0.0,0.0,0.0,0.0,0.0,0.0,0.0,0.0,0.0,0.0,0.0,0.0,0.0,0.0,0.0,0.0,0.0,4.1695,0.0,0.0,0.0,0.0,0.0,0.0,0.0,0.0,0.0,0.0,0.0,0.0,0.0,0.0,0.0,0.0,0.0,0.0,0.0,0.0,0.0,0.0,0.0,0.0,0.0,0.0,0.0,0.0,0.0,0.0,0.0,0.0,0.0,0.0,0.0,0.0,0.0,0.0,0.0,0.0,5.5967,6.3178,6.8325,6.9933,7.1167,7.1534,7.0763,6.9192,6.5972,6.0549,5.5654,0.0,0.0,0.0,0.0,0.0,0.0,0.0,0.0,0.0,0.0,0.0,0.0,0.0,0.0,0.0,0.0,0.0,0.0,0.0,0.0,0.0,0.0,0.0,0.0,0.0,0.0,0.0,0.0,0.0,0.0,0.0,0.0,0.0,0.0,0.0,0.0,0.0,0.0,0.0,0.0,0.0,0.0,0.0,0.0,0.0,0.0,0.0,0.0,0.0,0.0,0.0,0.0,0.0,5.1766,5.2814,5.3546,5.4348,5.496,5.5193,5.1442,4.8937,4.7432,0.0,0.0,0.0,0.0,0.0,0.0,0.0,0.0,0.0,0.0,0.0,0.0,0.0,0.0,0.0,0.0,0.0,0.0,0.0,0.0,0.0,0.0,0.0,0.0,0.0,5.4645,5.3398,0.0,0.0,0.0,0.0,0.0,0.0,0.0,0.0,0.0,0.0,0.0,0.0,5.6407,6.3466,6.8465,6.9933,7.152,7.2166,7.138,6.9928,6.7269,6.3085,5.7902,5.2789,0.0,0.0,0.0,0.0,0.0,0.0,0.0,0.0,0.0,0.0,0.0,0.0,0.0,0.0,0.0,0.0,0.0,0.0,0.0,0.0,0.0,0.0,0.0,0.0,0.0,0.0,0.0,0.0,0.0,0.0,0.0,0.0,3.7991,3.8696,0.0,0.0,0.0,0.0,0.0,0.0,0.0,0.0,0.0,0.0,0.0,0.0,0.0,5.2597,5.3684,5.6333,5.8066,5.8803,5.9697,6.053,6.1268,6.2023,6.2262,6.2104,6.2151,0.0,5.2354,5.0824,0.0,0.0,0.0,0.0,0.0,0.0,0.0,0.0,0.0,0.0,0.0,0.0,0.0,0.0,0.0,0.0,0.0,0.0,0.0,0.0,0.0,0.0,5.9349,6.0278,6.0499,6.0493,0.0,5.593,5.1458,4.9843,0.0,0.0,0.0,0.0,0.0,0.0,0.0,0.0,5.8126,6.4671,6.9082,7.0,7.1427,7.2058,7.1373,7.0357,6.8003,6.3914,6.0261,5.6061,5.1174,4.6243,0.0,0.0,0.0,0.0,0.0,0.0,0.0,0.0,0.0,0.0,0.0,0.0,0.0,0.0,0.0,0.0,0.0,0.0,0.0,0.0,0.0,0.0,0.0,0.0,0.0,0.0,0.0,0.0,0.0,3.9272,4.2025,4.1927,4.2731,4.2667,0.0,0.0,0.0,0.0,0.0,0.0,0.0,0.0,0.0,5.3395,5.6315,5.8448,5.9744,6.1851,6.3268,6.402,6.4772,6.5558,6.632,6.7072,6.7127,6.6633,6.7393,6.5345,6.1261,5.756,5.4479,5.1835,0.0,0.0,0.0,0.0,4.9543,5.0724,5.2762,5.3426,0.0,0.0,0.0,0.0,0.0,0.0,0.0,0.0,0.0,0.0,0.0,0.0,0.0,6.472,6.5014,6.5124,6.5491,6.2989,5.9642,0.0,5.2889,4.9889,4.7366,0.0,0.0,0.0,0.0,5.4174,5.9826,6.5441,6.9334,7.054,7.1648,7.2146,7.1743,7.0602,6.887,6.6431,6.2927,5.9077,5.4917,5.1014,4.7186,0.0,0.0,0.0,0.0,0.0,0.0,0.0,0.0,0.0,0.0,0.0,0.0,0.0,0.0,0.0,0.0,0.0,0.0,0.0,0.0,0.0,0.0,0.0,0.0,0.0,0.0,0.0,0.0,4.34,4.5981,4.5767,4.7005,4.7058,0.0,0.0,0.0,0.0,0.0,0.0,5.0726,5.3943,5.666,5.8712,6.1354,6.3344,6.4633,6.6106,6.7218,6.7952,6.8707,6.935,6.9958,7.0714,7.0748,7.0263,7.0612,6.9992,6.8401,6.3431,5.9886,5.7381,5.5127,5.3965,5.3651,5.4711,5.5949,5.7433,5.9759,6.0465,6.0318,6.0439,0.0,5.5097,5.2234,0.0,0.0,0.0,0.0,5.8008,6.1857,6.453,6.6616,6.8238,6.8612,6.8612,6.8612,6.7987,6.6109,0.0,5.7962,5.4754,5.2155,0.0,0.0,0.0,0.0,5.6195,6.1453,6.618,6.9582,7.0895,7.1691,7.2143,7.2024,7.0632,6.9311,6.8255,6.4744,6.1349,5.8251,5.4967,5.1193,4.6995,0.0,0.0,0.0,0.0,0.0,0.0,0.0,0.0,0.0,0.0,0.0,0.0,0.0,0.0,0.0,0.0,0.0,0.0,0.0,0.0,0.0,0.0,0.0,0.0,0.0,0.0,0.0,0.0,0.0,5.1698,5.2616,0.0,0.0,0.0,0.0,5.2642,5.4069,5.6109,5.9137,6.0846,6.2595,6.4417,6.5822,6.6979,6.7962,6.93,7.0331,7.1097,7.1808,7.2191,7.2259,7.3015,7.3319,7.3251,7.2575,7.1853,7.0827,6.699,6.4255,6.2245,6.0346,5.9373,5.9178,6.0547,6.2246,6.4132,6.6507,6.7454,6.7629,6.7302,6.3466,5.864,5.6957,5.5275,0.0,0.0,5.9434,6.2077,6.5375,6.7467,6.9105,7.0756,7.1123,7.1123,7.1123,7.047,6.8935,0.0,6.163,5.8463,5.7536,0.0,5.1138,5.4357,5.6295,5.8853,6.2973,6.7042,6.9894,7.0719,7.1414,7.1865,7.1988,7.0432,6.9062,6.824,6.5164,6.2545,6.0695,5.6856,5.3609,5.1048,4.6338,0.0,0.0,0.0,0.0,0.0,0.0,0.0,0.0,0.0,0.0,0.0,0.0,0.0,0.0,0.0,0.0,0.0,0.0,0.0,0.0,0.0,0.0,0.0,0.0,0.0,0.0,0.0,0.0,5.6027,5.7801,0.0,5.7092,5.533,5.5219,5.7602,5.9288,6.1293,6.3867,6.6371,6.8243,6.9365,7.0661,7.1525,7.1861,7.3129,7.3883,7.4119,7.439,7.4525,7.4525,7.4289,7.395,7.3522,7.3713,7.3409,7.2597,7.1255,6.8688,6.5483,6.4556,6.3948,6.379,6.5083,6.6283,6.757,6.9697,7.0437,7.0402,7.0102,6.7577,6.4567,6.3986,6.2334,6.1159,6.3546,6.5234,6.6916,6.9669,7.1174,7.2275,7.3369,7.3553,7.3369,7.2812,7.1567,7.0215,6.9068,6.6032,6.318,6.1762,5.9218,5.7729,5.8895,6.0432,6.2553,6.5519,6.8516,7.0667,7.1363,7.1665,7.1757,7.1682,7.0288,6.9256,6.8855,6.5893,6.3627,6.2417,5.95,5.6566,5.3675,4.9878,4.5764,0.0,0.0,0.0,0.0,0.0,0.0,0.0,0.0,0.0,0.0,0.0,0.0,0.0,0.0,0.0,0.0,0.0,0.0,0.0,0.0,0.0,0.0,0.0,0.0,0.0,0.0,5.7982,5.9545,6.1809,6.2663,6.1276,6.0279,6.0445,6.2226,6.3895,6.5595,6.7356,6.9859,7.1397,7.1798,7.2891,7.3561,7.3764,7.5048,7.5845,7.6115,7.6115,7.6115,7.6082,7.5325,7.4695,7.4266,7.4492,7.4322,7.386,7.359,7.183,6.9228,6.8701,6.8101,6.7669,6.8931,6.9649,7.0236,7.2126,7.2921,7.3043,7.26,7.1205,6.972,6.972,6.8428,6.7327,6.9206,7.0117,7.0954,7.2819,7.37,7.4316,7.5064,7.5156,7.4772,7.3651,7.2245,7.1025,7.0418,6.8224,6.618,6.5304,6.3532,6.2443,6.3025,6.3753,6.5149,6.7564,6.9499,7.0938,7.163,7.1695,7.1516,7.1061,6.9862,6.8877,6.8243,6.5793,6.3976,6.3174,6.1109,5.8775,5.6132,5.1616,4.7068,4.2526,0.0,0.0,0.0,0.0,0.0,0.0,0.0,0.0,0.0,0.0,0.0,0.0,0.0,0.0,0.0,0.0,0.0,0.0,0.0,0.0,0.0,0.0,0.0,5.1949,5.6844,6.0687,6.2272,6.4515,6.58,6.5437,6.5207,6.5572,6.6714,6.7995,6.9063,6.979,7.1246,7.1933,7.1668,7.236,7.3028,7.3556,7.5078,7.6183,7.6927,7.6927,7.6927,7.6893,7.6082,7.5743,7.5743,7.4987,7.4683,7.4615,7.386,7.3556,7.3488,7.2732,7.1661,7.0724,7.2041,7.2354,7.2384,7.3949,7.5124,7.5773,7.4991,7.4307,7.3773,7.3773,7.3179,7.2701,7.3516,7.37,7.3883,7.4712,7.4925,7.5108,7.5762,7.5935,7.5421,7.3615,7.2564,7.1469,6.9782,6.8182,6.7339,6.8087,6.6236,6.5127,6.6641,6.6243,0.0,6.8938,6.9952,7.0705,7.1414,7.1487,7.1134,7.0173,6.9213,6.7967,6.6369,6.4729,6.3537,6.299,6.1548,5.997,5.8311,5.1352,4.5841,4.1928,0.0,0.0,0.0,0.0,0.0,0.0,0.0,0.0,0.0,0.0,0.0,0.0,0.0,0.0,0.0,0.0,0.0,0.0,0.0,0.0,0.0,4.9732,5.3222,5.4762,5.8949,6.2784,6.5408,6.7574,6.9049,6.949,6.9669,7.0102,7.0949,7.1715,7.2248,7.2451,7.287,7.3051,7.2982,7.3705,7.4415,7.51,7.713,7.801,7.7718,7.7718,7.7718,7.7684,7.6893,7.686,7.7345,7.6589,7.6284,7.6217,7.5405,7.5112,7.4977,7.3691,7.2745,7.2166,7.2723,7.3122,7.3553,7.4578,7.5392,7.5971,7.6053,7.5619,7.5095,7.5095,7.4117,7.3174,7.397,7.3795,7.3657,7.5038,7.5411,7.5614,7.6362,7.6478,7.5936,7.4266,7.2702,7.1511,7.1029,7.0115,6.9361,6.8999,6.9279,6.9321,6.8641,6.8866,0.0,6.9989,7.0742,7.1277,7.1494,7.1487,7.105,6.9969,6.8339,6.6912,6.5776,6.3255,6.1808,6.1753,6.0578,5.8667,5.5914,5.1616,4.8067,0.0,0.0,0.0,0.0,0.0,0.0,0.0,0.0,0.0,0.0,0.0,0.0,0.0,0.0,0.0,0.0,0.0,0.0,0.0,0.0,0.0,0.0,5.3643,5.7251,5.9642,6.2532,6.5227,6.7542,6.967,7.1058,7.1345,7.2073,7.27,7.3006,7.3625,7.3827,7.3522,7.3488,7.3488,7.3488,7.4221,7.4953,7.5676,7.7638,7.8416,7.7988,7.7988,7.7988,7.7988,7.7548,7.7582,0.0,7.7548,7.7367,7.7299,7.6872,7.6487,0.0,0.0,0.0,0.0,0.0,7.2843,7.3397,7.4078,7.4918,7.575,7.6114,7.6177,7.6056,7.5692,7.4723,7.3746,7.3892,7.3345,7.3016,7.4308,7.4884,7.5298,7.6057,7.6425,7.6153,7.4446,7.2971,7.1885,7.1559,0.0,0.0,7.0742,7.1132,7.1205,7.0307,7.0307,7.0509,7.072,7.1083,7.1256,7.1175,7.1102,7.0598,6.9454,6.7879,0.0,0.0,0.0,6.145,6.1226,6.0315,0.0,0.0,0.0,0.0,0.0,0.0,0.0,0.0,4.3863,4.4798,0.0,0.0,0.0,0.0,0.0,0.0,0.0,0.0,0.0,0.0,0.0,0.0,0.0,0.0,0.0,0.0,5.7066,6.0879,6.5235,6.6853,6.7969,6.9121,7.1182,7.2335,7.2008,7.3368,7.4126,7.3906,7.4559,7.4661,7.3928,0.0,0.0,0.0,0.0,7.519,7.5946,7.7413,7.809,7.7988,7.7988,7.7988,7.7988,7.809,7.8157,7.8225,7.8157,7.8124,7.8124,7.8022,7.7582,7.6826,7.5912,7.4774,7.3489,7.2304,7.221,7.2742,7.3268,0.0,0.0,7.5782,7.6376,7.6789,7.6012,7.5243,7.4465,7.3715,7.2876,7.2358,7.3277,7.3999,7.4673,7.5459,7.6181,7.6249,7.4525,7.3478,7.2609,7.1921,7.2356,7.2826,7.2826,7.2247,7.174,7.1631,7.0995,7.0752,7.132,7.1189,7.1018,7.0863,0.0,0.0,6.8806,6.7648,6.6302,6.4743,6.3106,6.1885,6.1221,6.0501,5.9838,5.9304,5.801,5.681,5.5697,5.5697,5.5842,5.6023,5.1854,5.1168,0.0,0.0,0.0,0.0,0.0,0.0,0.0,0.0,0.0,0.0,0.0,0.0,0.0,0.0,0.0,5.6416,6.0551,6.4383,6.7571,6.9756,7.1101,7.1366,7.2662,7.3731,7.4297,7.5548,7.6299,7.6251,7.6939,7.7041,7.6284,7.562,7.527,7.527,7.6048,7.6792,7.7548,7.845,7.8585,7.7988,0.0,0.0,7.8022,7.8619,7.9228,7.9735,7.916,7.8889,7.8843,7.8259,7.7582,7.6758,7.5359,7.4649,7.4312,7.3685,7.3639,7.3962,7.4591,7.5343,7.6119,7.6733,7.7341,7.7719,7.7082,7.6448,0.0,7.4961,7.3728,7.293,7.4373,7.4844,7.5307,7.6733,7.7195,7.7042,7.6038,7.4673,7.3615,7.347,7.3543,7.3651,7.3651,7.3543,7.3225,7.2573,7.1776,7.1484,7.1961,7.1645,7.1506,7.18,7.1479,7.0508,6.8783,6.7554,6.623,6.4547,6.2651,6.1657,6.1903,6.0732,6.023,6.0537,5.9803,5.984,6.0616,6.0616,6.163,6.3418,5.8077,5.6555,0.0,0.0,0.0,0.0,0.0,0.0,0.0,0.0,0.0,0.0,0.0,4.7695,5.0262,0.0,5.672,6.0001,6.3176,6.6209,6.9141,7.1723,7.3198,7.2992,7.3822,7.45,7.4769,7.6074,7.6893,7.6893,7.7582,7.7853,7.7481,7.6724,7.6454,7.6838,7.7244,7.7807,7.8551,7.8551,7.8348,7.7988,7.765,7.765,7.8022,7.8742,7.9486,8.0175,7.9803,7.9667,7.9553,7.8462,7.7785,7.7312,7.5743,7.492,7.4559,7.4349,7.4069,7.3969,7.4819,7.5265,7.5589,7.6181,7.6969,7.7646,7.7047,7.6591,7.6139,7.5317,7.4231,7.3579,7.4774,7.5389,7.6013,7.7217,7.7507,7.7406,7.7008,7.5949,7.5116,7.5116,7.5116,7.5116,7.5116,7.4782,7.4206,7.3328,7.2724,7.2393,7.2366,7.1837,7.1514,7.1533,7.1119,7.0268,6.8853,6.7428,6.5897,6.4287,6.3349,6.2852,6.2804,6.2334,6.2285,6.2735,6.2636,6.2977,6.3844,6.4275,6.5073,6.6202,6.3772,6.2839,0.0,0.0,0.0,0.0,0.0,0.0,0.0,4.1802,4.2871,4.6266,4.941,5.2375,5.5051,5.7268,5.9834,6.3283,6.5409,6.7659,7.0481,7.3016,7.446,7.4081,7.467,7.5063,7.483,7.6217,7.7096,7.7096,7.7921,7.8428,7.8428,7.7874,7.7807,7.8394,7.8428,7.872,7.9317,7.8428,7.7988,7.7988,7.7232,7.7198,7.7819,7.872,7.9418,8.0006,8.0141,8.0209,8.0107,7.8754,7.8124,7.7887,7.6623,7.5709,7.5055,7.5055,7.4762,7.4505,7.5349,7.5584,7.563,7.6188,7.7167,7.8091,7.7532,7.7406,7.7262,7.6303,7.5462,7.4991,7.5643,7.6275,7.6972,7.776,7.7977,7.7977,7.7977,7.7334,7.6746,7.6704,7.6561,7.6382,7.6385,7.5647,7.4829,7.3977,7.3477,7.3036,7.2608,7.1912,7.1378,7.1205,7.0767,7.0137,6.9237,6.7742,6.6323,6.5076,6.4986,6.4801,6.4362,6.4524,6.4748,6.5031,6.532,6.5759,6.6355,6.6995,6.7465,6.7785,6.8433,6.8139,3.6668,3.8991,4.2861,4.5147,4.6686,4.7858,0.0,4.9348,5.0341,5.2141,5.49,5.7471,5.9003,6.113,6.3342,6.5377,6.7565,6.9746,7.1887,7.359,7.4593,7.4515,7.517,7.561,7.5574,7.6973,7.7887,7.7887,7.9172,7.9938,7.9938,7.987,7.987,7.9938,7.9938,8.0006,8.0073,7.8699,7.7988,7.7988,7.7232,7.6927,7.7063,7.8471,7.9147,7.9249,7.9904,8.0209,8.0141,7.9317,7.8585,7.7988,7.7819,7.7299,7.6657,7.6657,7.6995,7.7551,7.784,7.8081,7.8368,7.9096,8.0069,8.0886,8.0576,8.1029,8.1327,7.978,7.8766,7.8186,7.8267,7.8376,7.8629,7.9454,7.9635,7.9635,7.9635,7.8992,7.836,7.8185,7.7458,7.6786,7.6608,7.5747,7.4941,7.4496,7.3482,7.2762,7.2689,7.1892,7.1484,7.1838,7.1462,7.087,7.0124,6.9278,6.8704,6.8535,6.7879,6.7459,6.7413,6.6997,6.6688,6.6545,6.6774,6.7492,6.8719,6.8798,6.9571,7.0907,7.0977,6.9919,4.1297,4.3636,4.7113,4.9865,5.2348,5.4168,5.4521,5.508,5.5953,5.7517,5.9801,6.1819,6.2796,6.4025,6.5389,6.7034,6.8718,7.0441,7.2169,7.4052,7.4931,7.4052,7.3849,7.395,7.4368,7.5371,7.6386,7.7299,7.872,7.9769,8.0175,8.0209,8.0209,8.0209,8.0209,8.0209,8.0209,7.916,7.8653,7.8619,7.7874,7.7773,7.82,7.8809,7.9317,7.9769,8.0073,8.0209,8.0141,7.9384,7.8911,7.8585,7.8157,7.8077,7.8167,7.8167,7.8111,7.8068,7.8607,7.8569,7.8402,7.8953,7.9997,8.1031,8.1241,8.2075,8.284,8.2179,8.1427,8.0811,8.0811,8.044,8.0178,8.0504,8.025,7.9888,7.9888,7.9273,7.8615,7.8306,7.7335,7.6425,7.6083,7.5087,7.4212,7.3818,7.3548,7.3268,7.2928,7.2205,7.1696,7.1612,7.1017,7.0545,7.024,6.9519,6.9113,6.9113,6.8774,6.8605,6.8605,6.8515,6.8436,6.8477,6.869,6.9129,6.9817,6.9817,7.0139,7.0774,7.0774,7.0256,4.5264,4.7769,5.0858,5.4142,5.69,5.8944,5.9392,5.9743,6.028,6.1387,6.2943,6.4293,6.4995,6.5595,6.6585,6.8458,6.9922,7.1323,7.28,7.4559,7.5134,7.3691,7.2665,7.2326,7.2845,7.3747,7.483,7.6183,7.8031,7.9317,7.987,8.0073,8.0209,8.0209,8.0209,8.0209,8.0209,7.9667,7.9283,7.908,7.8551,7.8483,7.8809,7.9012,7.9486,8.0209,8.0209,8.031,8.0445,7.9938,7.9701,7.9667,7.9329,7.9431,7.9722,7.9925,7.9431,7.8699,7.9228,7.9058,7.8684,7.9174,8.019,8.1274,8.1882,8.2956,8.3913,8.3788,8.3337,8.2921,8.2704,8.2188,8.169,8.1419,8.0858,8.0298,8.0027,7.9468,7.8882,7.8479,7.7426,7.6447,7.5964,7.4903,7.3964,7.3629,7.3794,7.369,7.2831,7.2191,7.169,7.1334,7.0838,7.0511,7.0511,7.0026,6.9711,6.9711,6.9711,6.9711,6.9711,6.9841,6.9902,6.9825,6.9985,7.0143,7.0267,7.0267,7.0369,7.0565,7.0565,7.0565,4.7686,5.0893,5.4142,5.79,6.0004,6.1599,6.3091,6.3305,6.319,6.3215,6.369,6.4284,6.4816,6.5504,6.6917,6.9675,7.1391,7.2834,7.4345,7.5202,7.5134,7.3691,7.2225,7.1334,7.1357,7.2665,7.386,7.4615,7.7422,7.9114,7.9147,7.9803,8.0209,8.0209,8.0209,8.0209,8.0209,8.0175,7.9803,7.9114,7.908,7.872,7.8056,7.8788,7.9486,8.0209,8.0209,8.0627,8.127,8.1236,8.1236,8.1304,8.2002,8.1832,8.1304,8.2035,8.138,8.0141,8.0175,8.0141,8.0229,8.0764,8.1567,8.2462,8.3222,8.4225,8.5016,8.4444,8.4446,8.4434,8.3673,8.3456,8.3192,8.2213,8.181,8.1398,8.0417,7.9975,7.9643,7.9255,7.8196,7.7228,7.6757,7.5662,7.4778,7.4503,7.4316,7.3658,7.2223,7.1635,7.1312,7.13,7.13,7.1267,7.1267,7.1267,7.1233,7.1233,7.1233,7.1233,7.1233,7.1233,7.0917,7.0195,7.0206,7.0206,7.0217,7.0217,7.0578,7.1266,7.1266,7.1266,5.0031,5.403,5.7797,6.0634,6.3229,6.523,6.5748,6.5984,6.5808,6.4825,6.3733,6.3333,6.4508,6.4512,6.5633,6.9574,7.1864,7.3657,7.5134,7.642,7.6499,7.4458,7.3341,7.2169,7.0703,7.1018,7.2236,7.4446,7.6475,7.8065,7.9046,7.9803,8.0209,8.0209,8.0209,8.0412,8.0932,8.0932,8.1054,8.1278,8.1278,8.1143,8.0919,8.1177,8.1414,8.1663,8.1663,8.1799,8.2035,8.2035,8.2035,8.2069,8.2293,8.2272,8.2069,8.2293,8.209,8.1663,8.1663,8.1325,8.0995,8.1349,8.1642,8.199,8.2577,8.368,8.465,8.4645,8.467,8.4651,8.4361,8.389,8.3336,8.2702,8.183,8.099,8.0392,7.9519,7.8764,7.8354,7.7315,7.6331,7.5849,7.4774,7.3946,7.3867,7.3946,7.3561,7.2417,7.2124,7.1842,7.1368,7.13,7.13,7.13,7.13,7.13,7.13,7.13,7.13,7.13,7.13,7.1199,7.0928,7.0939,7.0939,7.0939,7.0939,7.1064,7.13,7.13,7.13,5.3203,5.7383,6.1151,6.3195,6.5575,6.7384,6.7305,6.719,6.6577,6.4752,6.245,6.124,6.2719,6.2608,6.3825,6.8616,7.1695,7.403,7.5473,7.7041,7.7244,7.5224,7.4356,7.3218,7.1526,7.0917,7.1379,7.3296,7.5337,7.7029,7.8234,7.9498,8.0209,8.0209,8.0445,8.083,8.1304,8.1811,8.2306,8.278,8.253,8.2395,8.2395,8.2395,8.2395,8.2395,8.2395,8.253,8.278,8.278,8.2936,8.3206,8.3206,8.3206,8.3206,8.3206,8.3206,8.3105,8.2598,8.2103,8.1681,8.169,8.1734,8.185,8.2176,8.3046,8.4016,8.439,8.453,8.4648,8.4648,8.4242,8.3668,8.2952,8.2023,8.1088,8.0383,7.9446,7.8666,7.8316,7.7556,7.6748,7.6096,7.5043,7.43,7.43,7.4429,7.4034,7.2586,7.2394,7.2225,7.174,7.1672,7.1808,7.2045,7.209,7.209,7.209,7.209,7.209,7.209,7.209,7.209,7.209,7.1842,7.1672,7.1672,7.1436,7.1436,7.1672,7.1672,7.1842,5.7211,6.1004,6.4246,6.5738,6.7133,6.8073,6.7839,6.7036,6.5605,6.3067,5.9945,5.8127,5.9607,5.9877,6.1603,6.6914,7.1018,7.403,7.554,7.7109,7.7515,7.6048,7.5236,7.4492,7.3759,7.236,7.1537,7.1571,0.0,7.6082,7.6961,7.9025,8.0209,8.0242,8.0932,8.1338,8.1405,8.286,8.3558,8.3558,8.2834,8.2496,8.2496,8.2496,8.2496,8.2496,8.2496,8.2915,8.3558,8.3558,8.395,8.4614,8.4614,8.4614,8.4614,8.4614,8.4614,8.4411,8.3003,8.2496,8.2379,8.1936,8.1929,8.2141,8.2135,8.2602,8.3242,8.3736,8.4158,8.4477,8.4441,8.4405,8.4114,8.298,8.231,8.1596,8.033,7.9706,7.9257,7.9093,7.8857,7.8334,7.7358,7.6372,7.5743,7.5709,7.5709,7.4931,7.28,7.2529,7.2496,7.2462,7.2462,7.2732,7.3454,7.3488,7.3488,7.3488,7.3488,7.3488,7.3488,7.3488,7.3488,7.3488,7.28,7.2462,7.2462,7.174,7.1774,7.2462,7.2462,7.2834,6.1944,6.5226,6.7781,6.8797,6.8754,6.8323,6.7714,6.637,6.4302,6.0938,5.7231,5.5074,5.6553,5.6815,5.8887,6.5233,7.0342,7.4233,7.6284,7.7874,7.8674,7.8268,7.757,7.6826,7.6082,7.5134,7.483,7.5439,7.5608,7.6521,7.8437,7.96,8.0445,8.0999,8.1202,8.1811,8.2928,8.3849,8.4323,8.4323,8.414,8.4039,8.4039,8.4039,8.4039,8.4039,8.4039,8.414,8.4323,8.4323,8.4424,8.4614,8.4614,8.4614,8.4614,8.4614,8.4614,8.4546,8.4174,8.368,8.3199,8.3074,8.2732,8.2339,8.2541,8.3107,8.3574,8.3346,8.3754,8.4077,8.3524,8.3383,8.3239,8.2613,8.1652,8.0709,8.0035,7.9079,7.8354,7.8293,7.822,7.7922,7.7104,7.676,7.6386,7.5777,7.5709,7.5303,7.4175,7.404,7.3815,7.3285,7.3218,7.3285,7.3488,7.3488,7.3488,7.3488,7.3488,7.3488,7.3488,7.3488,7.3488,7.3488,7.3319,7.3218,7.3218,7.3015,7.3048,7.3218,7.3218,7.3319,6.5235,6.8179,7.039,7.0399,6.9746,6.8674,6.7172,6.4832,6.1979,5.8497,5.4449,5.1987,5.3467,5.4279,5.6722,6.2787,6.8707,7.3206,7.5134,7.6995,7.8133,7.8133,7.7773,7.7333,7.6927,7.6487,7.6826,7.8247,7.7333,7.7536,7.9498,8.0581,8.1359,8.1765,8.2116,8.2827,8.395,8.4377,8.4614,8.4614,8.4614,8.4614,8.4614,8.4614,8.4614,8.4614,0.0,8.4614,8.4614,8.4614,8.4614,8.4614,8.4614,8.4614,8.4614,8.4614,8.4614,8.4614,8.4614,8.4323,8.393,8.3625,8.3219,8.2853,8.2819,8.3153,8.3502,8.3371,8.3423,8.3415,8.3009,8.2672,8.2337,8.2013,8.1315,8.0613,8.0236,7.9538,7.8969,7.8969,7.8686,7.8348,7.7942,7.7604,7.7244,7.677,7.6702,7.6555,7.6149,7.5224,7.4446,7.4018,7.3984,7.4119,7.4436,7.4469,7.4639,7.4977,7.4672,7.4639,7.4977,7.4639,7.4469,7.4469,7.4153,7.3984,7.3984,7.3657,7.3657,7.3984,7.3984,7.4165,6.7779,7.0314,7.2135,7.1154,7.0249,6.889,6.614,6.2664,5.9043,5.565,5.148,4.8883,5.033,5.1953,5.4803,6.0139,6.6633,7.1571,7.3116,7.5202,7.6657,7.6893,7.6826,7.686,7.7164,7.7266,7.8213,8.0344,7.9308,7.9126,8.0412,8.1684,8.2428,8.253,8.3253,8.395,8.458,8.4614,8.4614,8.4614,8.4614,8.4614,8.4614,8.4614,8.4614,8.4614,8.4614,0.0,8.4749,8.4647,8.4647,8.4762,8.4647,8.4614,8.4614,8.4614,8.4614,8.4614,8.4614,8.4614,8.4478,8.3849,8.3659,8.3563,8.3154,8.3202,8.3397,8.3569,8.3257,8.2879,8.2776,8.2284,8.1732,8.1513,8.1224,8.0969,8.0746,8.044,8.0209,8.0209,7.9689,7.9215,7.9114,7.8585,7.8124,7.8022,7.7988,7.7988,7.7988,7.6284,7.5055,7.5055,7.5055,7.5303,7.5946,7.6026,7.6284,7.6995,7.6386,7.6318,7.7029,7.6386,7.6026,7.6026,7.5371,7.5055,7.5055,7.4402,7.4436,7.5055,7.5055,7.5405,7.0672,7.1955,7.2437,7.1666,7.0323,6.8137,6.3973,6.0146,5.6243,5.1944,4.8019,4.5819,4.73,4.9297,5.2604,5.8447,6.5077,7.0195,7.2293,7.3984,7.5461,7.6758,7.6318,7.6657,7.8539,7.9261,8.0276,8.1887,8.1799,8.1752,8.1989,8.2259,8.2678,8.3287,8.4018,8.4478,8.4614,8.4614,8.4614,8.4614,8.4614,8.4614,8.4614,8.4614,8.4614,8.4614,8.4614,0.0,8.5533,8.4864,8.4999,8.5533,8.4864,8.4614,8.4614,8.4614,8.4614,8.4614,8.4614,8.4614,8.458,8.4444,8.4424,8.439,8.4295,8.4314,8.4231,8.3687,8.3467,8.3235,8.2645,8.2373,8.2259,8.2207,8.1741,8.1228,8.1177,8.0653,8.0209,8.0209,8.0107,7.9837,7.9215,7.8978,7.872,7.809,7.7988,7.7988,7.7988,7.765,7.7413,7.7413,7.7413,7.7447,7.7582,7.7582,7.765,7.7785,7.7684,7.765,7.7785,7.7684,7.7582,7.7582,7.7481,7.7413,7.7413,7.7278,7.7278,7.7413,7.7413,7.7481,7.1787,7.2835,7.3119,7.2225,7.025,6.7184,6.2313,5.7712,5.3315,4.9229,4.5717,4.3748,4.4823,4.6861,5.0075,5.5302,6.1467,6.6508,6.9102,7.1109,7.3003,7.4909,7.5134,7.6171,7.8843,8.0107,8.1359,8.2881,8.2983,8.3139,8.3511,8.3531,8.3714,8.4052,8.4424,8.4614,8.4614,8.4614,8.4614,8.4614,8.4614,8.4614,8.4614,8.4614,8.4614,8.4614,8.5033,0.0,8.5804,8.5811,8.6014,8.6332,8.5946,8.5811,8.5811,8.5811,8.5811,8.5811,8.5811,8.5811,8.5811,8.5811,8.5256,8.4614,8.4614,8.4614,8.4512,8.4187,8.3795,8.3422,8.305,8.2699,8.2395,8.2395,8.2137,8.1866,8.1866,8.1291,8.0763,8.0763,8.0445,8.0073,7.9722,7.9667,7.9566,7.9206,7.9126,7.9126,7.9126,7.9126,7.8868,7.809,7.7988,7.7988,7.7988,7.7988,7.8157,7.8551,7.8225,7.8157,7.8551,7.8191,7.7988,7.7988,7.7988,7.7988,7.7988,7.7988,7.7988,7.7988,7.7988,7.7988,7.2371,7.3447,7.3718,7.2282,6.9654,6.5967,6.0419,5.5099,5.033,4.6786,4.3815,4.2056,4.278,4.4647,4.753,5.2029,5.7654,6.2458,6.5449,6.8064,7.0545,7.2778,7.3815,7.5596,7.8775,8.0412,8.1913,8.3402,8.3659,8.3984,8.458,8.4614,8.4614,8.4614,8.4614,8.4614,8.4614,8.4614,8.4614,8.4614,8.4614,8.4681,8.4864,8.4864,8.4931,8.5121,8.5757,0.0,0.0,8.6738,8.6995,8.713,8.6961,8.6893,8.6893,8.6893,8.6893,8.6893,8.6893,8.6893,8.6893,8.6893,8.6081,8.5053,8.4898,8.4864,8.483,8.4647,8.4187,8.3727,8.3727,8.3308,8.2834,8.2665,8.2631,8.2598,8.2428,8.1934,8.1507,8.1338,8.083,8.0378,8.0209,8.0209,8.0209,8.0209,8.0209,8.0209,8.0209,8.0209,7.9769,7.8597,7.8462,7.8462,7.8462,7.8462,7.872,7.9283,7.8788,7.8733,7.9317,7.8788,7.8462,7.8462,7.8462,7.8462,7.8462,7.8462,7.8462,7.8462,7.8462,7.8462,7.3015,7.3985,7.3872,7.1086,6.8142,6.4184,5.7602,5.2046,4.7447,4.4336,4.188,4.0546,4.1271,4.2679,4.5181,4.9669,5.4846,5.9379,6.2391,6.5865,6.8944,7.1233,7.2732,7.5033,7.8742,8.0412,8.1913,8.3402,8.412,8.4512,8.4614,8.4614,8.4614,8.4614,8.4614,8.4614,8.4614,8.4614,8.4614,8.4614,8.4614,8.4965,8.5702,8.5702,8.6061,8.669,8.6758,0.0,0.0,8.7144,8.7299,8.782,8.7164,8.6893,8.6893,8.6893,8.6893,8.6893,8.6893,8.6893,8.6893,8.6893,8.6792,8.6555,8.5905,8.5702,8.5533,8.4796,8.4546,8.4512,8.4512,8.4444,8.4221,8.3558,8.3389,8.3219,8.253,8.2361,8.2103,8.1439,8.1236,8.0999,8.031,8.0209,8.0209,8.0209,8.0209,8.0209,8.0209,8.0209,8.0141,8.0006,8.0006,8.0006,8.0006,8.0006,8.004,8.0073,8.004,8.004,8.0107,8.004,8.0006,8.0006,8.0006,8.0006,8.0006,8.0006,8.0006,8.0006,8.0006,8.0006,7.0849,7.271,7.324,7.0263,6.7252,6.3159,5.6012,5.0668,4.6271,4.278,4.1007,4.0174,4.0472,4.1373,4.3261,4.6853,5.104,5.5074,5.8524,6.2618,6.6092,6.8324,7.0331,7.2981,7.669,7.8822,8.1156,8.395,8.4424,8.4614,8.4614,8.4614,8.4614,8.4614,8.4614,8.4614,8.4614,8.4614,8.4614,8.4614,8.51,8.5486,8.5804,8.6264,8.6636,8.6927,8.7367,0.0,0.0,8.8158,8.8409,8.8646,8.8342,8.8226,8.8226,8.8226,8.8226,8.8226,8.8226,8.8226,8.8226,8.8226,8.8226,8.7989,8.6805,8.6142,8.5736,8.5418,8.5317,8.5215,8.4728,8.4614,8.4512,8.4221,8.4153,8.4086,8.3781,8.3375,8.2983,8.2691,8.2272,8.1866,8.1549,8.1528,8.1528,8.1528,8.1528,8.1528,8.1528,8.1528,8.1528,8.1528,8.0716,8.0209,8.0209,8.0209,8.0209,8.0209,8.0209,8.0209,8.0209,8.0209,8.0209,8.0209,8.0209,8.0209,8.0209,8.0209,8.0209,8.0209,8.0209,8.0209,6.8718,7.1458,7.2744,6.9553,6.617,6.1762,5.4761,4.9534,4.5203,4.1874,4.0601,4.0113,4.0113,4.0506,4.1779,4.458,4.7759,5.1209,5.4972,5.9361,6.3014,6.5212,6.7489,7.0409,7.4356,7.7773,8.1109,8.4343,8.4614,8.4614,8.4614,8.4614,8.4614,8.4614,8.4614,8.4614,8.4614,8.4614,8.4715,8.4965,8.5533,8.6041,8.6481,8.7008,8.7347,8.7583,8.8091,0.0,0.0,8.8883,8.9086,8.9086,8.9086,8.9086,8.9086,8.9086,8.9086,8.9086,8.9086,8.9086,8.9086,8.9086,8.9086,8.8917,8.7854,8.7042,8.6413,8.621,8.5973,8.5669,8.51,8.4796,8.4614,8.4614,8.4614,8.4614,8.4614,8.4187,8.3761,8.3524,8.3084,8.2665,8.2428,8.2395,8.2395,8.2395,8.2395,8.2395,8.2395,8.2395,8.2395,8.2395,8.146,8.075,8.0547,8.0513,8.0412,8.0209,8.0209,8.0209,8.0209,8.0209,8.0209,8.0209,8.0209,8.0209,8.0209,8.0209,8.031,8.0513,8.0513,8.0513,6.7117,7.0646,7.2609,6.8842,6.4613,5.9742,5.3687,4.8315,4.3958,4.1677,4.0601,4.0113,4.0113,4.0113,4.0844,4.3051,4.5365,4.8146,5.191,5.6258,5.9902,6.2188,6.4387,6.75,7.1988,7.7785,8.2205,8.4411,8.4614,8.4614,8.4614,8.4614,8.4614,8.4614,8.4614,8.4614,8.4614,8.4614,8.4999,8.577,8.5804,8.6548,8.7989,8.7989,8.8409,0.0,0.0,0.0,0.0,8.9086,8.9086,8.9086,8.9086,8.9086,8.9086,8.9086,8.9086,8.9086,8.9086,8.9086,8.9086,8.9086,8.9086,8.9086,8.9086,8.8578,8.782,8.7096,8.6366,8.5804,8.577,8.5215,8.4614,8.4614,8.4614,8.4614,8.4614,8.458,8.4377,8.3625,8.349,8.3253,8.253,8.2395,8.2395,8.2395,8.2395,8.2395,8.2395,8.2395,8.2395,8.2395,8.2395,8.2069,8.1338,8.127,8.0966,8.0242,8.0209,8.0209,8.0209,8.0209,8.0209,8.0209,8.0209,8.0209,8.0209,8.0209,8.0593,8.127,8.127,8.127,6.1018,6.4546,6.6779,6.4072,6.0791,5.6799,5.1285,4.6812,4.3166,4.0912,4.0276,4.0113,4.0113,4.0113,4.0479,4.1705,4.3815,4.6597,5.032,5.5547,6.0037,6.2811,6.7793,7.2203,7.5202,7.9003,8.2205,8.4411,8.4614,8.4614,8.4614,8.4614,8.4614,8.4614,8.4614,8.4614,8.4614,8.5148,8.5567,8.5804,8.6819,8.7563,8.8023,8.8511,8.8883,0.0,0.0,0.0,0.0,8.9086,8.9086,8.9086,8.9086,8.9086,8.9086,8.9086,8.9086,8.9086,8.9086,8.9086,8.9086,8.9086,8.9086,8.9086,8.9086,8.8578,8.7955,8.7719,8.711,8.6569,8.6569,8.5993,8.5243,8.4487,8.4346,8.4292,8.4102,8.4061,8.3994,8.3759,8.3692,8.3625,8.3389,8.3504,8.3638,8.3638,8.3797,8.3903,8.3903,8.3903,8.3903,8.3903,8.3903,8.3409,8.2171,8.2069,8.1968,8.1718,8.1684,8.1494,8.0966,8.0966,8.0729,8.0209,8.0209,8.0209,8.0209,8.0729,8.1338,8.2035,8.1541,8.1304,5.5023,5.8786,6.1129,5.893,5.6519,5.3475,4.8808,4.529,4.2455,4.0512,4.0113,4.0113,4.0113,4.0113,4.0343,4.1068,4.2631,4.521,4.9507,5.5006,6.0443,6.5415,7.0703,7.4695,7.6724,7.9578,8.2205,8.4411,8.4614,8.4614,8.4614,8.4614,8.4614,8.4614,8.4614,8.4762,8.5033,8.5567,8.6075,8.665,8.755,8.8158,8.8443,8.8883,8.9086,0.0,0.0,0.0,0.0,8.9086,8.9086,8.9086,8.9086,8.9086,8.9086,8.9086,8.9086,8.9086,8.9086,8.9086,8.9086,8.9086,8.9086,8.9086,8.9086,8.8781,8.8409,8.8409,8.7888,8.7231,8.6961,8.625,8.5351,8.442,8.4129,8.4007,8.3829,8.3802,8.3802,8.3802,8.3802,8.3802,8.3802,8.3939,8.4089,8.4197,8.4359,8.4507,8.46,8.4614,8.4614,8.4614,8.4614,8.4242,8.3308,8.297,8.2712,8.2428,8.2395,8.2069,8.1338,8.1304,8.0966,8.0209,8.0479,8.0627,8.0627,8.1642,8.2387,8.28,8.234,8.2116,0.0,5.3272,5.575,5.3644,5.1987,4.995,4.6338,4.3809,0.0,4.0377,4.0113,4.0113,4.0113,4.014,4.0405,4.117,4.1982,4.4357,4.9601,5.5218,6.1757,6.9733,7.324,7.5562,7.7063,7.9781,8.234,8.4444,8.4614,8.4614,8.4614,8.4614,8.4614,8.4614,8.4614,8.4965,8.5702,8.5838,8.6582,8.7922,8.8023,8.8443,8.9086,8.9086,8.9086,0.0,0.0,0.0,0.0,8.9086,8.9086,8.9086,8.9086,8.9086,8.9086,8.9086,8.9086,8.9086,8.9086,8.9086,8.9086,8.9086,8.9086,8.9086,8.9086,8.9086,8.9086,8.9058,8.857,8.786,8.7109,8.6173,8.5227,8.4426,8.402,8.3828,8.3733,8.3733,8.3733,8.3733,8.3733,8.3733,8.3733,8.3747,8.3857,8.4143,8.4197,8.4305,8.4587,8.4614,8.4614,8.4614,8.4614,8.4614,8.4614,8.395,8.3287,8.2598,8.2564,8.2205,8.1405,8.1372,8.0999,8.0209,8.0932,8.1338,8.1439,8.2813,8.3524,8.3592,8.3524,8.349,4.2367,0.0,5.0566,4.9484,4.8503,4.7158,0.0,4.2645,4.1204,4.0276,4.0113,4.0113,4.0113,4.0574,4.117,4.1921,4.3639,4.6718,5.1961,6.1139,6.9293,7.4695,7.7435,7.9261,8.0187,8.1913,8.3422,8.4512,8.4614,8.4614,8.4614,8.4614,8.4614,8.4614,8.4614,8.4681,8.4898,8.6048,8.6839,8.7164,8.8308,8.8917,8.9086,8.9086,8.9086,0.0,0.0,0.0,8.9086,8.9086,8.9086,8.9086,8.9086,8.9086,8.9086,8.9086,8.9086,8.9086,8.9086,8.9086,8.9086,8.9086,8.9086,8.9086,8.9086,8.9086,8.9044,8.879,8.8584,8.8239,8.7306,8.6858,8.6275,8.4698,8.43,8.4054,8.3283,8.3094,8.3094,8.3094,8.3094,8.3094,8.3094,8.3276,8.3526,8.3857,8.4075,8.4305,8.4587,8.4614,8.4614,8.4614,8.4614,8.4614,8.4614,8.4444,8.4275,8.4072,8.4072,8.3511,8.2205,8.2124,8.1528,8.0209,8.0932,8.1845,8.2996,8.3321,8.3795,8.4323,8.3761,8.349,4.0113,4.3206,4.6102,4.4681,4.479,4.4647,4.2388,4.1271,4.0567,4.0174,4.0113,4.0208,4.054,4.121,4.2185,4.3646,4.6041,5.0608,5.893,6.7703,7.4796,7.8923,8.1075,8.2361,8.278,8.3558,8.4187,8.458,8.4614,8.4614,8.4614,8.4614,8.4614,8.4614,8.4614,8.4796,8.5148,8.5993,8.6738,8.7414,8.8192,8.8781,8.9086,8.9086,8.9086,0.0,0.0,0.0,8.9086,8.9086,8.9086,8.9086,8.9086,8.9086,8.9086,8.9086,8.9086,8.9086,8.9086,8.9002,8.8847,8.8719,8.8696,8.8696,8.8696,8.8696,8.8662,8.862,8.852,8.8195,8.7347,8.6989,8.6545,8.5207,8.4565,8.4077,8.3508,8.3148,8.2883,8.2883,8.2883,8.2883,8.2883,8.301,8.3262,8.3733,8.3925,8.417,8.456,8.4614,8.4614,8.4614,8.4614,8.4614,8.4614,8.4614,8.4614,8.4614,8.4614,8.4086,8.2949,8.2902,8.2543,8.1731,8.2116,8.2847,8.3984,8.3984,8.4221,8.458,8.4187,8.3984,4.0242,4.188,4.3091,4.0946,4.2117,4.3227,4.1257,4.0783,4.0749,4.0648,4.0608,4.0844,4.1576,4.2523,4.3944,4.6312,4.9864,5.6131,6.7049,7.3477,7.845,8.2124,8.3781,8.4614,8.4614,8.4614,8.4614,8.4614,8.4614,8.4614,8.4614,8.4614,8.4614,8.4614,8.4614,8.4931,8.5601,8.5736,8.6447,8.7665,8.7888,8.8342,8.8951,8.9052,8.9052,8.8951,0.0,0.0,8.8951,8.9052,8.9086,8.9086,8.9086,8.9086,8.9086,8.9086,8.9086,8.9086,8.903,8.8818,8.8506,8.8281,8.8194,8.8194,8.8194,8.8151,8.8165,8.8405,8.8291,8.7974,8.7309,8.6926,8.6509,8.5792,8.4959,8.4308,8.4208,8.3678,8.3248,8.3248,8.3248,8.3248,8.3248,8.3248,8.3412,8.3971,8.3995,8.4148,8.4649,8.4655,8.4614,8.4614,8.4614,8.4614,8.4614,8.4614,8.4614,8.4614,8.4614,8.4289,8.3524,8.3389,8.3389,8.349,8.349,8.3862,8.4614,8.4614,8.4614,8.4614,8.4614,8.4614,4.0872,4.2699,4.4025,4.2361,4.3673,4.5094,4.4127,4.3897,4.3728,4.3024,4.2882,4.3125,4.3924,4.5703,4.7954,5.0811,5.7509,6.4546,7.0838,7.5236,7.9206,8.2881,8.4086,8.4614,8.4614,8.4614,8.4614,8.4614,8.4614,8.4614,8.4614,8.4614,8.4614,8.4614,8.4614,8.4647,8.4796,8.5452,8.5905,8.6142,8.738,8.8057,8.8206,8.8815,8.8748,8.8192,0.0,8.8748,8.8226,8.8849,8.9086,8.9086,8.9086,8.9086,8.9086,8.9086,8.9086,8.9058,8.879,8.8491,8.8252,8.8209,8.8194,8.8194,8.8194,8.7991,8.7787,8.7831,8.7816,8.7695,8.7345,8.7224,8.7013,8.6251,8.5956,8.568,8.507,8.4823,8.4757,8.4757,8.4757,8.4757,8.4757,8.4757,8.4887,8.5178,8.496,8.4837,8.5153,8.4838,8.4614,8.4614,8.4614,8.4614,8.4614,8.4614,8.4614,8.4614,8.4614,8.4289,8.3524,8.2915,8.2881,8.349,8.349,8.3862,8.4614,8.4614,8.4614,8.4614,8.4614,8.4614,4.0506,4.2252,4.3883,4.3619,4.5541,4.7293,4.6549,4.6684,4.6752,4.5993,4.5527,4.5703,4.7274,4.9424,5.3069,5.9674,6.529,7.0364,7.4808,7.7954,8.0695,8.3186,8.4153,8.4614,8.4614,8.4614,8.4614,8.4614,8.4614,8.4614,8.4614,8.4614,8.4614,8.4614,8.4614,8.4614,8.4614,8.4965,8.5351,8.5804,8.6481,8.7225,8.8023,8.8342,8.8308,8.8023,0.0,8.868,8.8057,8.8781,8.9086,8.9086,8.9086,8.8988,8.8818,8.8682,8.8625,8.8582,8.8219,8.8049,8.7904,8.7758,8.7699,8.7699,8.7699,8.7596,8.7478,8.7478,8.7478,8.7449,8.7315,8.7319,8.7205,8.6888,8.649,8.6126,8.578,8.5368,8.5088,8.5088,8.5088,8.5088,8.5088,8.5088,8.5204,8.5454,8.5344,8.5231,8.5306,8.5114,8.4878,8.4634,8.4614,8.4614,8.4614,8.4614,8.4614,8.4614,8.4614,8.4458,8.412,8.3781,8.3748,8.4086,8.4086,8.4255,8.4614,8.4614,8.4614,8.4614,8.4614,8.4614,4.0309,4.1711,4.343,4.456,4.6962,4.8977,4.8935,4.9781,5.0397,4.9848,4.9416,4.9669,5.1361,5.3906,5.8481,6.6869,7.0614,7.3807,7.7671,7.9879,8.1719,8.336,8.4068,8.4426,8.4426,8.4426,8.4426,8.4426,8.4426,8.4426,8.4426,8.4426,8.4426,8.4426,8.446,8.452,8.452,8.4553,8.4898,8.552,8.5702,8.6481,8.7753,8.7753,8.7753,8.7786,8.8328,8.8274,8.7786,8.8545,8.8951,8.9086,8.9002,8.879,8.8477,8.8281,8.8151,8.8035,8.7787,8.7655,8.7567,8.7378,8.7319,8.7319,8.7319,8.7319,8.7319,8.7319,8.7319,8.7319,8.7319,8.7319,8.7319,8.7319,8.6888,8.6457,8.6457,8.6012,8.5633,8.5633,8.5633,8.5633,8.5633,8.5633,8.5673,8.5886,8.582,8.572,8.5602,8.5526,8.5246,8.4737,8.4716,8.4716,8.4614,8.4614,8.4614,8.4614,8.4614,8.4614,8.4614,8.4614,8.4614,8.4614,8.4614,8.4614,8.4614,8.4614,8.4614,8.4614,8.4614,8.4614,4.0933,4.1752,4.2902,4.5094,4.7319,4.9518,5.1522,5.367,5.5192,5.5158,5.564,5.6122,5.6292,5.9654,6.3903,6.845,7.1162,7.4125,7.8241,7.9839,8.1363,8.3522,8.3823,8.3857,8.3857,8.3857,8.3857,8.3857,8.3857,8.3857,8.3857,8.3857,8.3857,8.3857,8.4102,8.4238,8.4238,8.4493,8.4614,8.4681,8.5452,8.6196,8.6961,8.6961,8.6961,8.6961,8.7028,8.7028,8.7028,8.7786,8.8477,8.9058,8.8762,8.8463,8.8223,8.8194,8.7991,8.7728,8.7714,8.7523,8.7334,8.7319,8.7319,8.7319,8.7319,8.7319,8.7319,8.7319,8.7319,8.7319,8.7319,8.7319,8.7319,8.7319,8.7253,8.7219,8.7219,8.7171,8.7138,8.7138,8.7138,8.7138,8.7138,8.7138,8.7153,8.7183,8.6806,8.6529,8.6506,8.6197,8.5678,8.4949,8.5103,8.506,8.4634,8.4614,8.4614,8.4614,8.4614,8.4614,8.4614,8.4614,8.4614,8.4614,8.4614,8.4614,8.4614,8.4614,8.4614,8.4614,8.4614,8.4614,4.0188,4.0827,4.1897,4.4135,4.6693,4.9521,5.296,5.6156,5.8718,5.9674,6.0825,6.1637,6.1637,6.4218,6.7302,7.0322,7.2941,7.5822,7.9224,8.0602,8.1894,8.358,8.3802,8.3802,8.3802,8.3802,8.3802,8.3802,8.3802,8.3802,8.3802,8.3802,8.3802,8.3802,8.3898,8.4034,8.4211,8.4143,8.4197,8.4359,8.4642,8.5087,8.5648,8.5648,8.5648,8.5716,8.6623,8.6758,8.6441,8.7632,8.827,8.8511,8.8161,8.7991,8.7875,8.7684,8.7552,8.7434,8.7434,8.7375,8.7319,8.7319,8.7319,8.7319,8.7319,8.7319,8.7319,8.7319,8.7319,8.7319,8.7319,8.7319,8.7319,8.7319,8.7319,8.7319,8.7319,8.7319,8.7319,8.7319,8.7319,8.7319,8.7319,8.7319,8.7319,8.7319,8.7143,8.6943,8.6619,8.6483,8.5992,8.4999,8.474,8.4554,8.4359,8.4486,8.4614,8.4614,8.4614,8.4614,8.4614,8.4614,8.4614,8.4614,8.4614,8.4614,8.4614,8.4614,8.4614,8.4614,8.4614,8.4614,3.9526,3.992,4.0915,4.3597,4.6372,4.9743,5.4749,5.89,6.2227,6.4186,6.5529,6.6151,6.5606,6.7146,6.9159,7.1185,7.3606,7.6292,7.9367,8.046,8.1454,8.2751,8.3005,8.3103,8.3187,8.3285,8.3416,8.3513,8.3513,8.3513,8.3513,8.3513,8.3513,8.3513,8.3596,8.3733,8.3925,8.3843,8.3843,8.3925,8.3925,8.4239,8.4893,8.4659,8.4826,8.5281,8.6065,8.6386,8.642,8.7424,8.7936,8.802,8.7787,8.7655,8.7552,8.7378,8.7319,8.7319,8.7319,8.7319,8.7319,8.7319,8.7319,8.7319,8.7319,8.7319,8.7319,8.7319,8.7319,8.7319,8.7319,8.7319,8.7319,8.7319,8.7319,8.7319,8.7319,8.7319,8.7319,8.7319,8.7319,8.7319,8.7319,8.7319,8.7319,8.7319,8.7319,8.7179,8.6854,8.6617,8.6034,8.4879,8.4251,8.3966,8.4061,8.4251,8.4359,8.4359,8.4359,8.444,8.458,8.4614,8.4614,8.4614,8.4614,8.4614,8.4614,8.4614,8.4614,8.4614,8.4614,8.4614,3.9209,3.9209,4.0096,4.3734,4.6609,5.034,5.7169,6.2049,6.5959,6.8874,6.9814,6.9579,6.784,6.8292,6.9379,7.0855,7.2736,7.5136,7.8412,7.918,7.9766,8.0851,8.1275,8.1584,8.1858,8.2194,8.2543,8.2855,8.2883,8.2883,8.2883,8.2883,8.2883,8.2883,8.3165,8.3304,8.3304,8.3623,8.3623,8.3304,8.3304,8.3838,8.4846,8.4109,8.4578,8.5923,8.5214,8.5717,8.707,8.7089,8.7338,8.7666,8.7666,8.7523,8.7286,8.7319,8.7319,8.7319,8.7319,8.7319,8.7319,8.7319,8.7319,8.7319,8.7319,8.7319,8.7319,8.7319,8.7319,8.7319,8.7319,8.7319,8.7319,8.7319,8.7319,8.7319,8.7319,8.7319,8.7319,8.7319,8.7319,8.7319,8.7319,8.7319,8.7319,8.7319,8.7319,8.7319,8.7286,8.6656,8.5712,8.4536,8.3751,8.3443,8.3761,8.3802,8.3802,8.3802,8.3802,8.4048,8.4553,8.458,8.458,8.458,8.458,8.458,8.458,8.458,8.458,8.458,8.458,8.458,3.9383,4.0134,4.1677,4.5261,4.9255,5.3932,6.0108,6.423,6.8151,7.3164,7.3117,7.1579,6.9554,6.9563,6.9948,7.0083,7.2207,7.4638,7.6839,7.7842,7.8643,7.9439,7.9824,8.0343,8.1121,8.1489,8.2017,8.2827,8.2883,8.2883,8.2883,8.2883,8.2883,8.2883,8.2968,8.3108,8.3304,8.3206,8.3206,8.3304,8.3108,8.3199,8.3483,8.325,8.3416,8.3848,8.4148,8.4513,8.4945,8.5477,8.5751,8.593,8.6442,8.6597,8.659,8.712,8.7319,8.7319,8.7319,8.7319,8.7319,8.7319,8.7319,8.7319,8.7319,8.7319,8.7319,8.7319,8.7319,8.7319,8.7319,8.7319,8.7319,8.7319,8.7319,8.7319,8.7319,8.7319,8.7319,8.7319,8.7319,8.7319,8.7319,8.7319,8.7319,8.7319,8.7319,8.712,8.659,8.5415,8.4517,8.4171,8.3625,8.3346,8.3443,8.3665,8.3802,8.3802,8.3802,8.387,8.4034,8.4048,8.4048,8.4048,8.4048,8.4048,8.4048,8.4048,8.4048,8.4048,8.4048,8.4143,3.9789,4.1007,4.3006,4.7641,5.2126,5.7331,6.4611,6.8321,7.1395,7.5548,7.4987,7.3118,7.1007,7.0766,7.085,7.0718,7.2347,7.4313,7.6176,7.6939,7.7527,7.8089,7.8549,7.9269,8.0386,8.0943,8.1683,8.2813,8.2883,8.2883,8.2883,8.2883,8.2883,8.2883,8.2883,8.2968,8.3136,8.2968,8.2968,8.3136,8.2968,8.2883,8.2883,8.2883,8.3049,8.338,8.4109,8.4426,8.4459,8.4937,8.5088,8.5121,8.56,8.5946,8.6258,8.6689,8.7054,8.7319,8.7319,8.7319,8.7319,8.7319,8.7319,8.7319,8.7319,8.7319,8.7319,8.7319,8.7319,8.7319,8.7319,8.7319,8.7319,8.7319,8.7319,8.7319,8.7319,8.7319,8.7319,8.7319,8.7319,8.7319,8.7319,8.7319,8.7319,8.7319,8.7054,8.659,8.5846,8.4738,8.391,8.3579,8.3304,8.3136,8.3136,8.3332,8.3429,8.3429,8.3429,8.3429,8.3429,8.3665,8.3802,8.3802,8.3802,8.3802,8.3802,8.3802,8.3802,8.3802,8.3802,8.3884,4.0405,4.1991,4.4349,5.0445,5.5305,6.0906,6.973,7.3135,7.4854,7.6225,7.5503,7.4059,7.2145,7.1864,7.2017,7.2259,7.2978,7.4141,7.6097,7.6341,7.6457,7.6788,7.7378,7.8327,7.9686,8.0464,8.1467,8.2784,8.2883,8.2883,8.2883,8.2883,8.2883,8.2883,8.2883,8.2883,8.2883,8.2883,8.2883,8.2883,8.2883,8.2883,8.2883,8.2883,8.3281,8.3943,8.4591,8.489,8.489,8.489,8.489,8.489,8.4956,8.5401,8.6026,8.6159,8.6623,8.7219,8.7271,8.7319,8.7319,8.7319,8.7319,8.7319,8.7319,8.7319,8.7319,8.7319,8.7319,8.7319,8.7319,8.7319,8.7319,8.7319,8.7319,8.7319,8.7319,8.7319,8.7319,8.7319,8.7319,8.7319,8.7319,8.7319,8.7319,8.7319,8.6623,8.5846,8.5188,8.4407,8.3645,8.2983,8.2883,8.2883,8.2883,8.2883,8.2883,8.2883,8.2883,8.2883,8.2883,8.3429,8.372,8.372,8.372,8.372,8.372,8.372,8.372,8.372,8.372,8.3733,4.1206,4.3871,4.6988,5.2041,5.9518,6.6718,7.0894,7.2979,7.4233,7.5064,7.4604,7.3714,7.2537,7.2751,7.3066,7.3129,7.3735,7.4429,7.5128,7.5244,7.5278,7.5346,7.594,7.7087,7.8957,7.9795,8.0961,8.2756,8.2883,8.2883,8.2883,8.2883,8.2883,8.2883,8.2883,8.2883,8.2883,8.2883,8.2883,0.0,8.2883,8.2883,8.2883,8.2883,8.2983,8.3148,8.3314,8.338,8.338,8.338,8.338,8.3446,8.401,8.4341,8.4606,8.578,8.6292,8.6524,8.712,8.7319,8.7319,8.7319,8.7319,8.7319,8.7319,8.7319,8.7319,8.7319,8.7319,8.7319,8.7319,8.7319,8.7319,8.7319,8.7319,8.7319,8.7319,8.7319,8.7319,8.7319,8.7319,8.7319,8.7319,8.7319,8.7319,8.7319,8.6177,8.5268,8.5121,8.3943,8.3082,8.2916,8.2883,8.2883,8.2883,8.2883,8.2883,8.2883,8.2883,8.2883,8.2883,8.301,8.308,8.308,8.308,8.308,8.308,8.308,8.308,8.308,8.308,8.3206,4.2701,4.5679,4.929,5.6531,6.2999,6.8197,7.0472,7.1797,7.2676,7.3323,7.3431,7.3231,7.2609,7.2733,7.3031,7.334,7.3817,7.4324,7.483,7.4886,7.4886,7.4886,7.5486,7.6561,7.8265,7.9223,8.0511,8.228,8.2585,8.2728,8.2883,8.2883,8.2883,8.2883,8.2883,8.2883,8.2883,8.2883,8.2883,8.2883,8.2883,8.2883,8.2883,8.2883,8.2883,8.2883,8.2883,8.2883,8.2883,8.2883,8.2883,8.295,8.3314,8.3678,8.4109,8.4852,8.5382,8.5747,8.6111,8.6229,8.6229,8.6229,8.6229,8.6229,8.6229,8.6476,8.6789,8.6789,8.7021,8.7319,8.7319,8.7319,8.7319,8.7319,8.7319,8.7319,8.7319,8.7319,8.7319,8.7319,8.7319,8.7319,8.7319,8.7319,8.7319,8.7319,8.603,8.5088,8.5088,8.3811,8.2883,8.2883,8.2883,8.2883,8.2883,8.2883,8.2883,8.2883,8.2883,8.2883,8.2883,8.2883,8.2883,8.2883,8.2883,8.2883,8.2883,8.2883,8.2883,8.2883,8.2883,8.2968,4.3695,4.7579,5.2212,6.1326,6.5498,6.7824,6.9443,7.0445,7.1174,7.172,7.2328,7.2672,7.2358,7.2456,7.2745,7.3222,7.3754,7.4257,7.4826,7.4886,7.4886,7.4886,7.5435,7.6327,7.7593,7.866,7.9933,8.161,8.205,8.241,8.2869,8.2883,8.2883,8.2883,8.2883,8.285,8.2718,8.2718,8.2651,8.2519,8.2651,8.2784,8.2883,8.2883,8.2883,8.2883,8.2883,8.2883,8.2883,8.2883,8.2883,8.2883,8.2883,8.3281,8.3844,8.3943,8.4393,8.4923,8.5055,8.5088,8.5088,8.5088,8.5088,8.5088,8.5088,8.5614,8.6192,8.6192,8.6722,8.7319,8.7319,8.7319,8.7319,8.7319,8.7319,8.7319,8.7319,8.7319,8.7319,8.7319,8.7319,8.7319,8.7319,8.7319,8.7319,8.7319,8.603,8.5088,8.5088,8.3811,8.2883,8.2883,8.2883,8.2883,8.2883,8.2883,8.2883,8.2883,8.2883,8.2883,8.2883,8.2883,8.2883,8.2883,8.2883,8.2883,8.2883,8.2883,8.2883,8.2883,8.2883,8.2883,4.2324,4.9795,5.7514,6.2911,6.5865,6.7701,6.8865,7.0111,7.1022,7.1113,7.1677,7.2009,7.1628,7.2495,7.3205,7.301,7.3975,7.4796,7.4886,7.4886,7.4886,7.4886,7.5227,7.589,7.694,7.7752,7.8973,8.0898,8.1343,8.193,8.2841,8.2883,8.2883,8.2883,8.2883,8.2585,8.1956,8.197,8.1638,8.1009,8.1624,8.2287,8.2883,8.2883,8.2883,8.2883,8.2883,8.2883,8.2883,8.2883,8.2883,8.2883,8.2883,8.295,8.3115,8.3778,8.4076,8.4241,8.489,8.5088,8.5088,8.5088,8.5088,8.5088,8.5088,8.5614,8.6192,8.6192,8.6722,8.7319,8.7319,8.7319,8.7319,8.7319,8.7319,8.7319,8.7319,8.7319,8.7319,8.7319,8.7319,8.7319,8.7319,8.7319,8.7319,8.7319,8.603,8.5088,8.5088,8.3811,8.2883,8.2883,8.2883,8.2883,8.2883,8.2883,8.2883,8.2883,8.2883,8.2883,8.2883,8.2883,8.2883,8.2883,8.2883,8.2883,8.2883,8.2883,8.2883,8.2883,8.2883,8.2883,4.3865,5.113,5.7919,6.2435,6.4787,6.6435,6.8076,6.8918,6.9521,7.0289,7.0664,7.1012,7.1359,7.2056,7.2507,7.2358,7.3163,7.3762,7.3762,7.4108,7.4347,7.4347,7.4983,7.5668,7.6277,7.7183,7.8438,8.0205,8.0854,8.1668,8.2827,8.2883,8.2883,8.2883,8.2486,8.2121,8.179,8.1406,8.1241,8.1307,8.1638,8.2188,8.2883,8.2883,8.2883,8.2883,8.2883,8.2883,8.2883,8.2883,8.2883,8.2883,8.2883,8.2883,8.295,8.3248,8.338,8.3446,8.3745,8.3877,8.3877,8.3877,8.3877,8.3877,8.3877,8.4374,8.5037,8.5482,8.6111,8.6789,8.7186,8.7319,8.7319,8.7319,8.7319,8.7319,8.7319,8.7319,8.7319,8.7319,8.7319,8.7319,8.7319,8.7319,8.7153,8.6756,8.5765,8.4956,8.454,8.3579,8.2883,8.2883,8.2883,8.2883,8.2883,8.2883,8.2883,8.2883,8.2883,8.2883,8.2883,8.2883,8.2883,8.2883,8.2883,8.2883,8.2883,8.2883,8.2883,8.2883,8.2883,8.2883,4.4679,5.0622,5.5833,6.0279,6.2497,6.4174,6.6282,6.7149,6.7852,6.9229,6.9768,7.0267,7.1122,7.1637,7.1893,7.1893,7.2475,7.2907,7.2907,7.3343,7.3702,7.3881,7.4568,7.5139,7.5379,7.6278,7.7473,7.8991,7.9814,8.084,8.225,8.232,8.232,8.232,8.1804,8.1426,8.1227,8.0498,8.0498,8.1227,8.1227,8.1624,8.232,8.232,8.2453,8.2618,8.2817,8.2883,8.2883,8.2883,8.2883,8.2883,8.2883,8.2883,8.2883,8.2883,8.2883,8.2883,8.2883,8.2883,8.2883,8.2883,8.2883,8.2883,8.2883,8.3413,8.4109,8.4672,8.5482,8.6325,8.6888,8.7153,8.7319,8.7319,8.7319,8.7319,8.7319,8.7319,8.7319,8.7319,8.7319,8.7319,8.7319,8.7319,8.7054,8.6325,8.5567,8.4823,8.4109,8.3347,8.2883,8.2883,8.2883,8.2883,8.2883,8.2883,8.2883,8.2883,8.2883,8.2883,8.2883,8.2883,8.2883,8.2883,8.2883,8.2883,8.2883,8.2883,8.2883,8.2883,8.2883,8.2883,4.3145,4.7223,5.1435,5.6072,5.8689,6.0725,6.2863,6.4799,6.649,6.7822,6.9125,7.0187,7.0815,7.1444,7.1893,7.1893,7.2475,7.2907,7.2907,7.2937,7.3193,7.3821,7.3958,7.3975,7.3992,7.4633,7.5563,7.686,7.7648,7.8862,8.0714,8.081,8.081,8.081,8.0777,8.0432,7.9709,7.898,7.898,7.9709,7.9709,8.0087,8.081,8.081,8.1208,8.1903,8.2585,8.2883,8.2883,8.2883,8.2883,8.2883,8.2883,8.2883,8.2883,8.2883,8.2883,8.2883,8.2883,8.2883,8.2883,8.2883,8.2883,8.2883,8.2883,8.3413,8.401,8.4043,8.5084,8.6225,8.6258,8.6789,8.7319,8.7319,8.7319,8.7319,8.7319,8.7319,8.7319,8.7319,8.7319,8.7319,8.7319,8.7319,8.7054,8.6325,8.5567,8.4823,8.4109,8.3347,8.2883,8.2883,8.2883,8.2883,8.2883,8.2883,8.2883,8.2883,8.2883,8.2883,8.2883,8.2883,8.2883,8.2883,8.2883,8.2883,8.2883,8.2883,8.2883,8.2883,8.2883,8.2883,3.9778,4.3126,4.684,5.0775,5.3915,5.6718,5.9297,6.2091,6.4739,6.6894,6.8421,6.9662,7.0709,7.1098,7.1248,7.1248,7.1457,7.1637,7.1637,7.1996,7.2372,7.2611,7.2984,7.3266,7.3266,7.3886,7.4846,7.6134,7.7086,7.8327,8.0025,8.0109,8.0109,8.0109,7.9668,7.9172,7.8638,7.8536,7.8881,7.961,7.961,7.9988,8.0711,8.0711,8.1108,8.179,8.2088,8.2453,8.2883,8.2883,8.2883,8.2883,8.2883,8.2883,8.2883,8.2883,8.2883,8.2883,8.2883,8.2883,8.2883,8.2883,8.2883,8.2883,8.2883,8.3082,8.338,8.3877,8.4374,8.5018,8.596,8.6391,8.6722,8.7186,8.7319,8.7319,8.7319,8.7319,8.7319,8.7319,8.7319,8.7319,8.7319,8.7319,8.7054,8.6325,8.5567,8.4823,8.4109,8.3778,8.3612,8.3612,8.4043,8.4293,8.4293,8.4293,8.4293,8.4293,8.4293,8.4293,8.4293,8.4293,8.4293,8.4293,8.4293,8.3844,8.2883,8.2883,8.2883,8.2883,8.2883,8.3148,3.6999,3.9655,4.2625,4.5768,4.9083,5.2278,5.5147,5.853,6.1956,6.5039,6.6909,6.8465,6.9991,7.044,7.0649,7.0859,7.0889,7.0889,7.0889,7.1278,7.1653,7.1863,7.2295,7.2565,7.2565,7.311,7.3867,7.4796,7.5722,7.6955,7.8638,7.8624,7.8582,7.8582,7.821,7.7916,7.776,7.8255,7.8749,7.9245,7.9245,7.9491,7.9968,7.9968,8.0366,8.1061,8.1061,8.1757,8.2883,8.2883,8.2883,8.2883,8.2883,8.2883,8.2883,8.2883,8.2883,8.2883,8.2883,8.2883,8.2883,8.2883,8.2883,8.2883,8.2883,8.2883,8.3016,8.348,8.3811,8.4241,8.5217,8.5647,8.5946,8.6443,8.6575,8.6641,8.6873,8.712,8.7319,8.7319,8.7319,8.7319,8.7319,8.7319,8.7054,8.6325,8.578,8.5202,8.4473,8.4374,8.4374,8.4374,8.4805,8.5088,8.5088,8.5088,8.5088,8.5088,8.5088,8.5088,8.5088,8.5088,8.5088,8.5088,8.5088,8.4639,8.3645,8.338,8.3281,8.3281,8.3281,8.3811,0.0,0.0,0.0,4.1152,4.4223,4.7451,5.0322,5.4072,5.8065,6.212,6.4545,6.6565,6.8585,6.9528,7.0157,7.0769,7.0889,7.0889,7.0889,7.0889,7.1128,7.1803,7.1863,7.1863,7.1863,7.2158,7.2472,7.2736,7.3446,7.4654,7.6451,7.6313,7.6142,7.6142,7.6395,7.6691,7.7065,7.7979,7.8444,7.8457,7.8457,7.847,7.8484,7.8484,7.8914,7.961,7.961,8.0849,8.2883,8.285,8.285,8.2883,8.2883,8.2883,8.2883,8.2883,8.2883,8.2883,8.2883,8.2883,8.2883,8.2883,8.2883,8.2883,8.2883,8.2883,8.2883,8.2883,8.3413,8.3976,8.3995,8.4558,8.5088,8.5088,8.5088,8.5302,8.6012,8.6756,8.7286,8.7319,8.7319,8.7319,8.7319,8.7319,8.7054,8.6358,8.6225,8.5946,8.5221,8.5121,8.5121,8.5121,8.5154,8.5154,8.5154,8.5154,8.5154,8.5154,8.5154,8.5154,8.5154,8.5154,8.5154,8.5154,8.5154,8.5154,8.5121,8.4393,8.4043,8.4043,8.4043,8.4852,3.3737,0.0,0.0,0.0,0.0,0.0,4.4997,4.9333,5.4089,5.8547,6.2181,6.5323,6.7822,6.884,6.9482,7.0157,7.062,7.0889,7.0889,7.0889,7.0979,7.1158,7.1188,7.1188,7.1188,7.1497,7.1825,7.2139,7.3015,7.4055,7.523,7.5215,7.5203,7.5264,7.5291,7.5597,7.6163,7.6841,7.732,7.756,7.7747,7.7965,7.8215,7.8403,7.8914,7.961,7.961,8.0551,8.2055,8.1539,8.1624,8.2088,8.2088,8.2419,8.2883,8.2883,8.2883,8.2883,8.2883,8.2883,8.2883,8.2883,8.2883,8.2883,8.2883,8.2883,8.2883,8.2883,8.3049,8.3314,8.3877,8.4558,8.5088,8.5088,8.5088,8.5169,8.5368,8.5979,8.6656,8.7219,8.7319,8.7319,8.7319,8.7319,8.7238,8.7021,8.6557,8.6126,8.5912,8.5879,8.5879,8.5879,8.6376,8.6708,8.6708,8.6708,8.6708,8.6708,8.6708,8.6708,8.6708,8.6708,8.6708,8.6708,8.6708,8.6443,8.5879,8.5169,8.479,8.4805,8.5349,8.5828,0.0,0.0,0.0,3.5747,0.0,0.0,4.1291,4.5364,4.9961,5.4329,5.7949,6.1134,6.3812,6.5054,6.5832,6.6221,6.7508,6.9018,7.0679,7.0889,7.0889,7.0889,7.0889,7.0889,7.0889,7.1097,7.1261,7.1485,7.2139,7.2922,7.3736,7.3903,7.3933,7.3874,7.3918,7.4235,7.4743,7.5475,7.601,7.6374,7.6906,7.7356,7.7706,7.8255,7.8716,7.9146,7.9146,7.9808,8.0849,8.0432,8.1028,8.2254,8.2254,8.2519,8.2883,8.2883,8.2883,8.2883,8.2883,8.2883,8.2883,8.2883,8.2883,8.2883,8.2883,8.2883,8.2883,8.2883,8.2883,8.3082,8.3811,8.4341,8.4724,8.5022,8.5088,8.5188,8.55,8.5647,8.5946,8.6689,8.7087,8.7319,8.7319,8.7319,8.7319,8.7319,8.6921,8.6656,8.6656,8.6656,8.6656,8.6656,8.7039,8.7319,8.7319,8.7319,8.7319,8.7319,8.7319,8.7319,8.7319,8.7319,8.7319,8.7319,8.7319,8.7087,8.6656,8.5912,8.5567,8.5581,8.631,8.6656,3.5514,0.0,0.0,0.0,3.6828,0.0,3.8837,4.1973,4.5753,4.962,5.2636,5.5341,5.7962,5.9534,6.0432,6.0432,6.2586,6.5652,6.9782,7.047,7.062,7.0679,7.0679,7.0679,7.0679,7.0679,7.0709,7.0799,7.1198,7.1709,7.2327,7.258,7.2611,7.2375,7.258,7.286,7.3185,7.4067,7.4695,7.5066,7.5981,7.6611,7.6981,7.7883,7.8323,7.835,7.8376,7.888,7.9668,7.9695,8.0915,8.2784,8.2784,8.2817,8.2883,8.2883,8.2883,8.2883,8.2883,8.2883,8.2883,8.2883,8.2883,8.2883,8.2883,8.2883,8.2883,8.2883,8.2883,8.3082,8.3811,8.401,8.4208,8.4923,8.5088,8.5268,8.5946,8.5567,8.5302,8.5946,8.6623,8.7072,8.7153,8.7186,8.7219,8.7286,8.7319,8.7319,8.7319,8.7319,8.7319,8.7319,8.7319,8.7319,8.7319,8.7319,8.7319,8.7319,8.7319,8.7319,8.7319,8.7319,8.7319,8.7319,8.7319,8.7319,8.7319,8.6656,8.6325,8.6358,8.6973,8.7319,3.6741,3.6831,3.6757,0.0,0.0,0.0,3.7028,3.8862,4.1515,4.4935,4.8218,5.1253,5.3875,5.5461,5.6346,5.6346,5.8098,6.1196,6.6236,6.7882,6.878,6.9303,6.9363,6.9363,6.9363,6.9363,6.9602,7.0127,7.1184,7.1869,7.2072,7.2075,7.2091,7.2072,7.2091,7.225,7.2579,7.303,7.3554,7.4146,7.4817,7.5481,7.6077,7.6746,7.7213,7.7463,7.7678,7.8681,8.0167,8.0402,8.1094,8.2022,8.2022,8.2386,8.2883,8.2883,8.2883,8.2883,8.2883,8.2883,8.2883,8.2883,8.2883,8.2883,8.2883,8.2883,8.2883,8.2883,8.2883,8.3082,8.3811,8.401,8.4208,8.4923,8.5088,8.5121,8.5268,8.5188,8.5121,8.5302,8.5434,8.5732,8.6325,8.6424,8.6623,8.7219,8.7319,8.7319,8.7319,8.7319,8.7319,8.7319,8.7319,8.7319,8.7319,8.7319,8.7319,8.7319,8.7319,8.7319,8.7319,8.7319,8.7319,8.7319,8.7319,8.7319,8.7319,8.7153,8.7087,8.7087,8.7238,8.7319,3.9047,3.859,3.7896,3.7741,0.0,0.0,0.0,3.7255,3.9152,4.1824,4.4207,4.6563,4.8846,5.0092,5.0769,5.0769,5.2953,5.5944,5.9594,6.3782,6.7119,6.8794,6.9004,6.9004,6.9004,6.9004,6.9273,6.9947,7.0597,7.109,7.1435,7.1405,7.1405,7.1435,7.1405,7.1485,7.1661,7.1821,7.217,7.2672,7.3431,7.4085,7.4579,7.533,7.5898,7.626,7.6836,7.8131,7.9856,8.0443,8.134,8.2353,8.2353,8.2552,8.2883,8.2883,8.2883,8.2883,8.2883,8.2883,8.2883,8.2883,8.2883,8.2883,8.2883,8.2883,8.2883,8.2883,8.3148,8.3612,8.436,8.4805,8.5283,8.603,8.6196,8.6196,8.6196,8.5912,8.5647,8.5647,8.5368,8.5235,8.56,8.5946,8.6325,8.6689,8.7054,8.7319,8.7319,8.7319,8.7319,8.7319,8.7319,8.7319,8.7319,8.7319,8.7319,8.7319,8.7319,8.7319,8.7319,8.7319,8.7319,8.7319,8.7319,8.7319,8.7319,8.7319,8.7319,8.7319,8.7319,8.7319,0.0,0.0,0.0,0.0,0.0,3.6485,0.0,0.0,0.0,3.9469,4.0894,4.2331,4.4058,4.4905,4.5313,4.5164,4.7706,5.044,5.2564,5.8128,6.3304,6.6849,6.7508,6.7657,6.7657,6.8016,6.8525,6.9169,6.9349,6.9678,7.032,7.059,7.0739,7.0739,7.0829,7.0889,7.0889,7.0889,7.1081,7.1419,7.2235,7.2798,7.3139,7.3977,7.4561,7.4992,7.588,7.7288,7.9094,7.9997,8.1251,8.2642,8.2813,8.2883,8.2883,8.2883,8.2883,8.2883,8.2883,8.2883,8.2883,8.2883,8.2883,8.2883,8.2883,8.2883,8.2916,8.3082,8.3546,8.4194,8.507,8.5747,8.6391,8.7105,8.7319,8.7319,8.7319,8.6722,8.6192,8.6192,8.56,8.5169,8.5302,8.5813,8.6258,8.6391,8.6921,8.7319,8.7319,8.7186,8.7153,8.7271,8.7186,8.7153,8.7286,8.7319,8.7319,8.7319,8.7319,8.7319,8.7319,8.7319,8.7319,8.7319,8.7319,8.7319,8.7319,8.7319,8.7319,8.7319,8.7319,8.7319,0.0,0.0,0.0,0.0,3.8302,0.0,0.0,0.0,3.6814,3.7575,0.0,3.9999,4.0816,0.0,0.0,4.1175,4.2831,4.5104,4.7717,4.9804,5.3588,6.031,6.2165,6.2869,6.2869,6.4441,6.5712,6.64,6.6999,6.7643,6.8271,6.9468,7.0097,7.0097,7.062,7.0889,7.0889,7.0889,7.1081,7.1389,7.1806,7.2186,7.2517,7.2906,7.3431,7.407,7.4745,7.6174,7.812,7.8812,8.0124,8.173,8.2571,8.2883,8.2883,8.2883,8.2883,8.2883,8.2883,8.2883,8.2883,8.2883,8.2883,8.2883,8.2883,8.2883,8.3049,8.3678,8.3943,8.4308,8.5714,8.6159,8.6391,8.7105,8.7319,8.7319,8.7319,8.6722,8.6192,8.6192,8.56,8.5302,8.5946,8.6159,8.6424,8.7087,8.7253,8.7319,8.7319,8.6722,8.659,8.7238,8.6722,8.659,8.7253,8.7319,8.7319,8.7319,8.7319,8.7319,8.7319,8.7319,8.7319,8.7319,8.7319,8.7319,8.7319,8.7319,8.7319,8.7319,8.7319,8.7319,0.0,0.0,0.0,0.0,0.0,0.0,0.0,0.0,3.7306,0.0,0.0,0.0,0.0,0.0,0.0,0.0,4.1414,4.2851,4.4766,4.6153,4.9385,5.5897,5.7855,5.9262,6.0789,6.2391,6.3588,6.4261,6.4904,6.5907,6.7343,6.9049,7.0007,7.0007,7.059,7.0889,7.0889,7.0889,7.0984,7.1129,7.1244,7.1389,7.1533,7.1677,7.2011,7.25,7.3293,7.4698,7.6505,7.7341,7.8696,8.0371,8.1357,8.2108,8.2642,8.2813,8.2883,8.2883,8.2883,8.2883,8.2883,8.2883,8.2883,8.2883,8.2883,8.2883,8.3049,8.3811,8.4293,8.4871,8.5927,8.6524,8.6921,8.7219,8.7319,8.7319,8.7319,8.7054,8.6855,8.6855,8.6575,8.6476,8.6774,8.649,8.6325,8.6623,8.7021,8.7153,8.6722,8.6391,8.6144,8.603,8.6111,8.6325,8.6656,8.7054,8.7319,8.7319,8.7319,8.7319,8.7319,8.7319,8.7319,8.7319,8.7319,8.7319,8.7319,8.7319,8.7319,8.7319,8.7319,8.7319,4.884,0.0,0.0,0.0,0.0,0.0,0.0,0.0,0.0,0.0,0.0,0.0,0.0,0.0,0.0,0.0,0.0,4.1394,4.2192,4.295,4.5494,5.1109,5.3637,5.599,5.8684,5.9951,6.087,6.1515,6.2074,6.3258,6.5263,6.7627,6.9079,6.9439,7.0247,7.0739,7.0889,7.0889,7.0889,7.0889,7.0889,7.0889,7.0889,7.0889,7.1067,7.1451,7.2417,7.3705,7.5241,7.6167,7.7542,7.9098,8.0023,8.0928,8.1861,8.2614,8.2883,8.2883,8.2883,8.2883,8.2883,8.2883,8.2883,8.2883,8.2883,8.3049,8.3347,8.4109,8.4838,8.5567,8.6325,8.6888,8.7319,8.7319,8.7319,8.7319,8.7319,8.7319,8.7319,8.7319,8.7319,8.7319,8.7319,8.6855,8.649,8.649,8.6954,8.712,8.659,8.6325,8.6078,8.5732,8.5813,8.6045,8.6457,8.6822,8.7087,8.7286,8.7319,8.7319,8.7319,8.7319,8.7319,8.7319,8.7319,8.7319,8.7319,8.7319,8.7319,8.7319,8.7319,8.7319,0.0,0.0,0.0,4.5853,0.0,0.0,0.0,0.0,3.9541,0.0,0.0,0.0,0.0,0.0,0.0,0.0,0.0,0.0,0.0,3.899,4.0346,4.5045,4.9238,5.2861,5.5746,5.6491,5.7015,5.7626,5.8051,5.9175,6.118,6.4351,6.6729,6.8017,6.9349,7.0306,7.0889,7.0889,7.0889,7.0889,7.0889,7.0889,7.0889,7.0889,7.1067,7.1466,7.2454,7.3539,7.4581,7.5548,7.6775,7.8104,7.8801,7.9488,8.0315,8.2194,8.2883,8.2883,8.2883,8.2883,8.2883,8.2883,8.2883,8.2883,8.2883,8.3413,8.4128,8.4856,8.5614,8.6325,8.7072,8.7271,8.7319,8.7319,8.7319,8.7319,8.7319,8.7319,8.7319,8.7319,8.7319,8.7319,8.7319,8.7271,8.7238,8.7238,8.7271,8.7286,8.7286,8.6656,8.6457,8.7153,8.5964,8.5699,8.7138,8.6623,8.6557,8.7253,8.7319,8.7319,8.7319,8.7319,8.7319,8.7319,8.7319,8.7319,8.7319,8.7319,8.7319,8.7319,8.7319,8.7319,0.0,0.0,5.1462,4.9643,0.0,0.0,0.0,0.0,0.0,0.0,0.0,0.0,0.0,0.0,0.0,0.0,0.0,0.0,0.0,3.8548,3.9124,4.2281,4.6377,4.9623,5.129,5.3347,5.4502,5.4461,5.5123,5.6572,5.8982,6.2646,6.5503,6.7284,6.9079,7.0306,7.0889,7.0889,7.0889,7.0889,7.0889,7.0889,7.0889,7.0889,7.0967,7.1127,7.1901,7.2693,7.3502,7.4281,7.5233,7.6374,7.725,7.7881,7.8549,8.0794,8.1643,8.1672,8.1909,8.2079,8.228,8.2481,8.2728,8.2983,8.348,8.3811,8.4275,8.5482,8.6012,8.6358,8.712,8.7319,8.7259,8.7035,8.6792,8.658,8.6352,8.609,8.5904,8.5904,8.5904,8.5904,8.5904,8.5904,8.6243,8.7152,8.7319,8.7105,8.6623,8.6358,8.6111,8.5865,8.5401,8.55,8.649,8.6789,8.7021,8.7271,8.7319,8.7319,8.7319,8.7319,8.7319,8.7319,8.7319,8.7319,8.7319,8.7319,8.7319,8.7319,8.7319,8.7319,5.7227,5.6299,0.0,5.4,5.1995,0.0,4.7848,0.0,0.0,0.0,0.0,0.0,0.0,0.0,0.0,0.0,0.0,0.0,0.0,3.8486,3.8642,4.0449,4.3919,4.6748,4.814,5.0316,5.1511,5.1171,5.1727,5.3354,5.6213,6.0116,6.3378,6.5862,6.8361,6.9947,7.056,7.0799,7.0889,7.0889,7.0889,7.0889,7.0889,7.0889,7.1038,7.1278,7.1966,7.2624,7.3313,7.3971,7.4701,7.5482,7.6244,7.6759,7.7347,7.9471,8.0252,8.0313,8.0629,8.1269,8.1984,8.2324,8.3017,8.3778,8.4241,8.4573,8.4985,8.5927,8.6391,8.6689,8.7186,8.7319,8.72,8.6717,8.6243,8.5765,8.5298,8.4809,8.4411,8.4411,8.4411,8.4411,8.4411,8.4411,8.4903,8.635,8.6547,8.6428,8.6121,8.6175,8.6114,8.574,8.556,8.568,8.6159,8.6888,8.7319,8.7319,8.7319,8.7319,8.7319,8.7319,8.7319,8.7319,8.7319,8.7319,8.7319,8.7319,8.7319,8.7319,8.7319,8.7319]},{"header":{"parameterUnit":"m.s-1","parameterCategory":1,"la1":30.6,"la2":29.2853,"lo1":-89.7004,"lo2":-87.6739,"dy":0.0162,"dx":0.0183,"nx":112,"ny":82,"refTime":"2026-04-03T00:00:00:Z","depth":0,"parameterNumber":3,"parameterNumberName":"V-component_of_WINDS"},"data":[0.0,0.0,0.0,0.0,0.0,0.0,0.0,0.0,0.0,0.0,0.0,0.0,0.0,0.0,0.0,0.0,0.0,0.0,0.0,0.0,0.0,0.0,0.0,0.0,0.0,0.0,0.0,0.0,0.0,0.0,0.0,0.0,0.0,0.0,0.0,0.0,0.0,0.0,0.0,0.0,0.0,0.0,0.0,0.0,0.0,0.0,0.0,0.0,0.0,0.0,0.0,0.0,0.0,0.0,0.0,0.0,0.0,0.0,0.0,0.0,0.0,0.0,0.0,0.0,0.0,0.0,0.0,0.0,0.0,0.0,0.0,0.0,0.0,0.0,0.0,0.0,0.0,0.0,0.0,0.0,0.0,0.0,0.0,0.0,0.0,0.0,0.0,0.0,0.0,0.0,0.0,1.7329,1.983,2.1148,2.0808,1.9363,1.789,1.656,0.0,0.0,0.0,0.0,0.0,0.0,0.0,0.0,0.0,0.0,0.0,0.0,0.0,0.0,0.0,0.0,0.0,0.0,0.0,0.0,0.0,0.0,0.0,0.0,0.0,0.0,0.0,0.0,0.0,0.0,0.0,0.0,0.0,0.0,0.0,0.0,0.0,0.0,0.0,0.0,0.0,0.0,0.0,0.0,0.0,0.0,0.0,0.0,0.0,0.0,0.0,0.0,0.0,0.0,0.0,0.0,0.0,0.0,0.0,0.0,0.0,0.0,0.0,0.0,0.0,0.0,0.0,0.0,0.0,0.0,0.0,0.0,0.0,0.0,0.0,0.0,0.0,0.0,0.0,0.0,0.0,0.0,0.0,0.0,0.0,0.0,0.0,0.0,0.0,0.0,0.0,0.0,0.0,0.0,0.0,0.0,0.0,0.0,0.0,0.0,0.0,0.0,0.0,0.0,1.6115,2.0578,2.2225,2.2872,2.2546,2.1611,2.0356,1.8741,0.0,0.0,0.0,0.0,0.0,0.0,0.0,0.0,0.0,0.0,0.0,0.0,0.0,0.0,0.0,0.0,0.0,0.0,0.0,0.0,0.0,0.0,0.0,0.0,0.0,0.0,0.0,0.0,0.0,0.0,0.0,0.0,0.0,0.0,0.0,0.0,0.0,0.0,0.0,0.0,0.0,0.0,0.0,0.0,0.0,0.0,0.0,0.0,0.0,0.0,0.0,0.0,0.0,0.0,0.0,0.0,0.0,0.0,0.0,0.0,0.0,0.0,0.0,0.0,0.0,0.0,0.0,0.0,0.0,0.0,0.0,0.0,0.0,0.0,0.0,0.0,0.0,0.0,0.0,0.0,0.0,0.0,0.0,0.0,0.0,0.0,0.0,0.0,0.0,0.0,0.0,0.0,0.0,0.0,0.0,0.0,0.0,0.0,0.0,0.0,0.0,0.0,0.0,1.6409,1.9308,2.2152,2.3267,2.3584,2.3009,2.1987,2.063,1.8822,1.6484,0.0,0.0,0.0,0.0,0.0,0.0,0.0,0.0,0.0,0.0,0.0,0.0,0.0,0.0,0.0,0.0,0.0,0.0,0.0,0.0,0.0,0.0,0.0,0.0,0.0,0.0,0.0,0.0,0.0,0.0,0.0,0.0,0.0,0.0,0.0,0.0,0.0,0.0,0.0,0.0,0.0,0.0,0.0,0.0,0.0,0.0,0.0,0.0,0.0,0.0,0.0,0.0,0.0,0.0,0.0,0.0,0.0,0.0,0.0,0.0,0.0,0.0,0.0,0.0,0.0,0.0,0.0,0.0,0.0,0.0,0.0,0.0,0.0,0.0,0.0,0.0,0.0,0.0,0.0,0.0,0.0,0.0,0.0,0.0,0.0,0.0,0.0,0.0,0.0,0.0,0.0,0.0,0.0,0.0,0.0,0.0,0.0,0.0,0.0,0.0,0.0,0.0,1.9852,2.2203,2.3189,2.4078,2.4232,2.3274,2.2086,2.0551,1.8544,1.6709,0.0,0.0,0.0,0.0,0.0,0.0,0.0,0.0,0.0,0.0,0.0,0.0,0.0,0.0,0.0,0.0,0.0,0.0,0.0,0.0,0.0,0.0,0.0,0.0,0.0,0.0,0.0,0.0,0.0,0.0,0.0,0.0,0.0,0.0,0.0,0.0,0.0,0.0,0.0,0.0,0.0,0.0,0.0,0.0,0.0,0.0,0.0,0.0,0.0,0.0,0.0,0.0,0.0,0.0,0.0,0.0,0.0,0.0,0.0,0.0,0.0,0.0,0.0,0.0,0.0,0.0,0.0,0.0,0.0,0.0,0.0,0.0,0.0,0.0,0.0,0.0,0.0,0.0,0.0,0.0,0.0,0.0,0.0,0.0,0.0,0.0,0.0,0.0,0.0,0.0,0.0,0.0,0.0,0.0,0.0,0.0,0.0,0.0,0.0,0.0,0.0,0.0,2.147,2.3759,2.4078,2.5162,2.5287,2.3861,2.2644,2.0952,1.8649,1.6567,0.0,0.0,0.0,0.0,0.0,0.0,0.0,0.0,0.0,0.0,0.0,0.0,0.0,0.0,0.0,0.0,0.0,0.0,0.0,0.0,0.0,0.0,0.0,0.0,0.0,0.0,0.0,0.0,0.0,0.0,0.0,0.0,0.0,0.0,0.0,0.0,0.0,0.0,0.0,0.0,0.0,0.0,0.0,0.0,0.0,0.0,0.0,0.0,0.0,0.0,0.0,0.0,0.0,0.0,0.0,0.0,0.0,0.0,0.0,0.0,0.0,0.0,0.0,0.0,0.0,0.0,0.0,0.0,0.0,0.0,0.0,0.0,0.0,0.0,0.0,0.0,0.0,0.0,0.0,0.0,0.0,0.0,0.0,0.0,0.0,0.0,0.0,0.0,0.0,0.0,0.0,0.0,0.0,0.0,0.0,0.0,0.0,0.0,0.0,0.0,0.0,0.0,2.1899,2.4075,0.0,2.509,2.509,2.3621,2.2231,2.0508,1.833,0.0,0.0,0.0,0.0,0.0,0.0,0.0,0.0,0.0,0.0,0.0,0.0,0.0,0.0,0.0,0.0,0.0,0.0,0.0,0.0,0.0,0.0,0.0,0.0,0.0,0.0,0.0,0.0,0.0,0.0,0.0,0.0,0.0,0.0,0.0,0.0,0.0,0.0,0.0,0.0,0.0,0.0,0.0,0.0,0.0,0.0,0.0,0.0,0.0,0.0,0.0,0.0,0.0,0.0,0.0,0.0,0.0,0.0,0.0,0.0,0.0,0.0,0.0,0.0,0.0,0.0,0.0,0.0,0.0,0.0,0.0,0.0,0.0,0.0,0.0,0.0,0.0,0.0,0.0,0.0,0.0,0.0,0.0,0.0,0.0,0.0,0.0,0.0,0.0,0.0,0.0,0.0,0.0,0.0,0.0,0.0,0.0,0.0,0.0,0.0,0.0,0.0,1.9033,2.2145,2.4209,0.0,2.4983,2.4858,2.3313,2.1911,2.0187,1.8009,0.0,0.0,0.0,0.0,0.0,0.0,0.0,0.0,0.0,0.0,0.0,0.0,0.0,0.0,0.0,0.0,0.0,0.0,0.0,0.0,0.0,0.0,0.0,0.0,0.0,0.0,0.0,0.0,0.0,0.0,0.0,0.0,0.0,0.0,0.0,0.0,0.0,0.0,0.0,0.0,0.0,0.0,0.0,0.0,0.0,0.0,0.0,0.0,0.0,0.0,0.0,0.0,0.0,0.0,0.0,0.0,0.0,0.0,0.0,0.0,0.0,0.0,0.0,0.0,0.0,0.0,0.0,0.0,0.0,0.0,0.0,0.0,0.0,0.0,0.0,0.0,0.0,0.0,0.0,0.0,0.0,0.0,0.0,0.0,0.0,0.0,0.0,0.0,0.0,0.0,0.0,0.0,0.0,0.0,0.0,0.0,0.0,0.0,0.0,0.0,0.0,0.0,1.9533,2.2378,2.4209,2.4209,2.4978,2.4796,2.3067,2.182,2.012,0.0,0.0,0.0,0.0,0.0,0.0,0.0,0.0,0.0,0.0,0.0,0.0,0.0,0.0,0.0,0.0,0.0,0.0,0.0,0.0,0.0,0.0,0.0,0.0,0.0,0.0,0.0,0.0,0.0,0.0,0.0,0.0,0.0,0.0,0.0,0.0,0.0,0.0,0.0,0.0,0.0,0.0,0.0,0.0,0.0,0.0,0.0,0.0,0.0,0.0,0.0,0.0,0.0,0.0,0.0,0.0,0.0,0.0,0.0,0.0,0.0,0.0,0.0,0.0,0.0,0.0,0.0,0.0,0.0,0.0,0.0,0.0,0.0,0.0,0.0,0.0,0.0,0.0,0.0,0.0,0.0,0.0,0.0,0.0,0.0,0.0,0.0,0.0,0.0,0.0,0.0,0.0,0.0,0.0,0.0,0.0,0.0,0.0,0.0,0.0,0.0,0.0,0.0,1.9559,2.2535,2.4479,2.4479,2.5098,2.5031,2.3901,2.2712,2.1013,1.8663,0.0,0.0,0.0,0.0,0.0,0.0,0.0,0.0,0.0,0.0,0.0,0.0,0.0,0.0,0.0,0.0,0.0,0.0,0.0,0.0,0.0,0.0,0.0,0.0,0.0,0.0,0.0,0.0,0.0,0.0,0.0,0.0,0.0,0.0,0.0,0.0,0.0,0.0,0.0,0.0,0.0,0.0,0.0,0.0,0.0,0.0,0.0,0.0,0.0,0.0,0.0,0.0,0.0,0.0,0.0,0.0,0.0,0.0,0.0,0.0,0.0,0.0,0.0,0.0,0.0,0.0,0.0,0.0,0.0,0.0,0.0,0.0,0.0,0.0,0.0,0.0,0.0,0.0,0.0,0.0,0.0,0.0,0.0,0.0,0.0,0.0,0.0,0.0,0.0,0.0,0.0,0.0,0.0,0.0,0.0,0.0,0.0,0.0,0.0,0.0,0.0,0.0,1.9705,2.2682,2.4639,2.4778,2.5344,2.5331,2.4431,2.35,2.1951,1.957,0.0,0.0,0.0,0.0,0.0,0.0,0.0,0.0,0.0,0.0,0.0,0.0,0.0,0.0,0.0,0.0,0.0,0.0,0.0,0.0,0.0,0.0,0.0,0.0,0.0,0.0,0.0,0.0,0.0,0.0,0.0,0.0,0.0,0.0,0.0,0.0,0.0,0.0,0.0,0.0,0.0,0.0,0.0,0.0,0.0,0.0,0.0,0.0,0.0,0.0,0.0,0.0,0.0,0.0,0.0,0.0,0.0,0.0,0.0,0.0,0.0,0.0,0.0,0.0,0.0,0.0,0.0,0.0,0.0,0.0,0.0,0.0,0.0,0.0,0.0,0.0,0.0,0.0,0.0,0.0,0.0,0.0,0.0,0.0,0.0,0.0,0.0,0.0,0.0,0.0,0.0,0.0,0.0,0.0,0.0,0.0,0.0,0.0,0.0,0.0,0.0,0.0,1.9943,2.2798,2.4738,2.5109,2.5663,2.5644,2.4746,2.4182,2.2863,2.0452,0.0,0.0,0.0,0.0,0.0,0.0,0.0,0.0,0.0,0.0,0.0,0.0,0.0,0.0,0.0,0.0,0.0,0.0,0.0,0.0,0.0,0.0,0.0,0.0,0.0,0.0,0.0,0.0,0.0,0.0,0.0,0.0,0.0,0.0,0.0,0.0,0.0,0.0,0.0,0.0,0.0,0.0,0.0,0.0,0.0,0.0,0.0,0.0,0.0,0.0,0.0,0.0,0.0,0.0,0.0,0.0,0.0,0.0,0.0,0.0,1.5952,0.0,0.0,0.0,0.0,0.0,0.0,0.0,0.0,0.0,0.0,0.0,0.0,0.0,0.0,0.0,0.0,0.0,0.0,0.0,0.0,0.0,0.0,0.0,0.0,0.0,0.0,0.0,0.0,0.0,0.0,0.0,0.0,0.0,0.0,0.0,0.0,0.0,0.0,0.0,0.0,0.0,2.0296,2.2936,2.4818,2.5371,2.5764,2.5804,2.5339,2.4764,2.3429,2.1053,1.9601,0.0,0.0,0.0,0.0,0.0,0.0,0.0,0.0,0.0,0.0,0.0,0.0,0.0,0.0,0.0,0.0,0.0,0.0,0.0,0.0,0.0,0.0,0.0,0.0,0.0,0.0,0.0,0.0,0.0,0.0,0.0,0.0,0.0,0.0,0.0,0.0,0.0,0.0,0.0,0.0,0.0,0.0,0.0,0.0,0.0,0.0,0.0,0.0,0.0,0.0,0.0,0.0,0.0,0.0,0.0,0.0,0.0,0.0,0.0,0.0,1.8428,0.0,0.0,0.0,0.0,0.0,0.0,0.0,0.0,0.0,0.0,0.0,0.0,0.0,0.0,0.0,0.0,0.0,0.0,0.0,0.0,0.0,0.0,0.0,0.0,0.0,0.0,0.0,0.0,0.0,0.0,0.0,0.0,0.0,0.0,0.0,0.0,0.0,0.0,0.0,0.0,2.0405,2.2976,2.4826,2.5432,2.5925,2.6058,2.5778,2.5184,2.4093,2.2319,2.0687,0.0,0.0,0.0,0.0,0.0,0.0,0.0,0.0,0.0,0.0,0.0,0.0,0.0,0.0,0.0,0.0,0.0,0.0,0.0,0.0,0.0,0.0,0.0,0.0,0.0,0.0,0.0,0.0,0.0,0.0,0.0,0.0,0.0,0.0,0.0,0.0,0.0,0.0,0.0,0.0,0.0,0.0,0.0,0.0,0.0,0.0,0.0,0.0,0.0,0.0,0.0,0.0,0.0,2.5915,2.644,2.6898,2.7301,2.7909,2.8483,2.516,2.3522,2.3134,0.0,0.0,0.0,0.0,0.0,0.0,0.0,0.0,0.0,0.0,0.0,0.0,0.0,0.0,0.0,0.0,0.0,0.0,0.0,0.0,0.0,0.0,0.0,0.0,0.0,1.9923,1.9468,0.0,0.0,0.0,0.0,0.0,0.0,0.0,0.0,0.0,0.0,0.0,0.0,2.0565,2.31,2.4898,2.5432,2.6097,2.6378,2.6024,2.556,2.4754,2.3567,2.1703,1.9984,0.0,0.0,0.0,0.0,0.0,0.0,0.0,0.0,0.0,0.0,0.0,0.0,0.0,0.0,0.0,0.0,0.0,0.0,0.0,0.0,0.0,0.0,0.0,0.0,0.0,0.0,0.0,0.0,0.0,0.0,0.0,0.0,1.3828,1.406,0.0,0.0,0.0,0.0,0.0,0.0,0.0,0.0,0.0,0.0,0.0,0.0,0.0,2.5105,2.662,2.8742,2.9986,3.0346,3.0828,3.1259,3.1618,3.2029,3.2585,3.3217,3.3046,0.0,2.7254,2.6387,0.0,0.0,0.0,0.0,0.0,0.0,0.0,0.0,0.0,0.0,0.0,0.0,0.0,0.0,0.0,0.0,0.0,0.0,0.0,0.0,0.0,0.0,2.162,2.1921,2.2001,2.2017,0.0,2.0391,1.8745,1.8157,0.0,0.0,0.0,0.0,0.0,0.0,0.0,0.0,2.121,2.3558,2.5144,2.5478,2.6351,2.6673,2.6044,2.5978,2.5362,2.3916,2.2756,2.138,1.9724,1.807,0.0,0.0,0.0,0.0,0.0,0.0,0.0,0.0,0.0,0.0,0.0,0.0,0.0,0.0,0.0,0.0,0.0,0.0,0.0,0.0,0.0,0.0,0.0,0.0,0.0,0.0,0.0,0.0,0.0,1.4306,1.5309,1.5234,1.554,1.5714,0.0,0.0,0.0,0.0,0.0,0.0,0.0,0.0,0.0,2.497,2.7733,2.9841,3.1246,3.3604,3.5002,3.5418,3.5834,3.6269,3.6667,3.7083,3.7305,3.7388,3.779,3.6571,3.411,3.1192,2.8587,2.6127,0.0,0.0,0.0,0.0,2.1046,2.1059,2.1855,2.1467,0.0,0.0,0.0,0.0,0.0,0.0,0.0,0.0,0.0,0.0,0.0,0.0,0.0,2.3536,2.3643,2.3683,2.3817,2.2926,2.1726,0.0,1.9266,1.8143,1.7196,0.0,0.0,0.0,0.0,1.9734,2.1793,2.3839,2.5364,2.6046,2.6654,2.6997,2.6957,2.6441,2.5942,2.5542,2.4096,2.2789,2.1736,2.024,1.8661,0.0,0.0,0.0,0.0,0.0,0.0,0.0,0.0,0.0,0.0,0.0,0.0,0.0,0.0,0.0,0.0,0.0,0.0,0.0,0.0,0.0,0.0,0.0,0.0,0.0,0.0,0.0,0.0,1.6321,1.7335,1.724,1.7721,1.802,0.0,0.0,0.0,0.0,0.0,0.0,2.4127,2.5639,2.7292,2.9053,3.179,3.388,3.5276,3.7449,3.8809,3.9257,3.9668,4.0039,4.0391,4.0801,4.082,4.0566,4.0742,4.041,3.9417,3.5432,3.2558,3.0369,2.7579,2.5957,2.516,2.4915,2.4636,2.4453,2.4868,2.4276,2.3154,2.2278,0.0,2.0054,1.9011,0.0,0.0,0.0,0.0,2.1077,2.2495,2.3487,2.4267,2.4836,2.4951,2.4951,2.4951,2.4724,2.4062,0.0,2.1204,2.0081,1.9112,0.0,0.0,0.0,0.0,2.0801,2.269,2.4435,2.5821,2.6661,2.7094,2.7445,2.7647,2.6914,2.6541,2.6779,2.5137,2.3954,2.3498,2.2034,2.0424,1.8719,0.0,0.0,0.0,0.0,0.0,0.0,0.0,0.0,0.0,0.0,0.0,0.0,0.0,0.0,0.0,0.0,0.0,0.0,0.0,0.0,0.0,0.0,0.0,0.0,0.0,0.0,0.0,0.0,0.0,2.1052,2.1492,0.0,0.0,0.0,0.0,2.4828,2.628,2.7708,2.9163,3.0027,3.1508,3.369,3.5044,3.6603,3.8451,3.9734,4.0605,4.1074,4.1484,4.168,4.1719,4.2128,4.2304,4.2265,4.1875,4.1484,4.0918,3.8579,3.6516,3.4592,3.2446,3.1114,3.0214,2.9123,2.8819,2.8826,2.7867,2.7103,2.6342,2.4892,2.31,2.1397,2.0766,2.0135,0.0,0.0,2.1614,2.2575,2.3794,2.4556,2.5195,2.5797,2.5931,2.5931,2.5931,2.5671,2.509,0.0,2.2775,2.1876,2.1566,0.0,1.971,2.0917,2.1645,2.261,2.4193,2.5693,2.6764,2.7124,2.7816,2.8059,2.7633,2.7434,2.7182,2.6816,2.5566,2.4755,2.4542,2.2989,2.1642,2.0576,1.8678,0.0,0.0,0.0,0.0,0.0,0.0,0.0,0.0,0.0,0.0,0.0,0.0,0.0,0.0,0.0,0.0,0.0,0.0,0.0,0.0,0.0,0.0,0.0,0.0,0.0,0.0,0.0,0.0,2.4652,2.5471,0.0,2.6282,2.6632,2.7569,2.935,3.1275,3.2912,3.4227,3.5593,3.6812,3.7858,3.9067,4.0005,4.0683,4.1929,4.2656,4.2793,4.2949,4.3027,4.3027,4.2891,4.2695,4.2421,4.2558,4.2383,4.1914,4.1113,3.9308,3.6884,3.5416,3.4159,3.3119,3.2472,3.1616,3.0704,3.0147,2.8996,2.751,2.5992,2.4596,2.35,2.3269,2.2669,2.2241,2.3109,2.3723,2.4356,2.5358,2.5905,2.6306,2.6727,2.7021,2.7181,2.6997,2.6758,2.6471,2.6081,2.4832,2.376,2.3534,2.275,2.2268,2.2718,2.3292,2.409,2.5191,2.6322,2.7259,2.7841,2.814,2.8334,2.8417,2.7798,2.7434,2.7492,2.606,2.5204,2.5179,2.4058,2.2872,2.1686,2.0136,1.8432,0.0,0.0,0.0,0.0,0.0,0.0,0.0,0.0,0.0,0.0,0.0,0.0,0.0,0.0,0.0,0.0,0.0,0.0,0.0,0.0,0.0,0.0,0.0,0.0,0.0,0.0,2.7057,2.7865,2.8925,2.9679,2.9948,3.0548,3.1592,3.3239,3.5077,3.6524,3.7456,3.8823,3.9754,4.0157,4.1083,4.1725,4.2,4.3138,4.3789,4.3945,4.3945,4.3945,4.3926,4.3517,4.3125,4.2851,4.3008,4.291,4.2616,4.246,4.1289,3.9467,3.8573,3.7482,3.6312,3.5764,3.4607,3.3126,3.1807,3.0042,2.8153,2.7009,2.6049,2.5333,2.5333,2.4885,2.4484,2.5146,2.5499,2.5825,2.6526,2.6847,2.7095,2.7553,2.7866,2.8003,2.7766,2.7507,2.7308,2.7252,2.621,2.5321,2.5314,2.4806,2.4479,2.4707,2.4992,2.5499,2.6401,2.7136,2.7854,2.8442,2.849,2.8622,2.8914,2.8337,2.7959,2.7962,2.6729,2.5909,2.5704,2.4767,2.3765,2.2697,2.0838,1.8957,1.706,0.0,0.0,0.0,0.0,0.0,0.0,0.0,0.0,0.0,0.0,0.0,0.0,0.0,0.0,0.0,0.0,0.0,0.0,0.0,0.0,0.0,0.0,0.0,2.483,2.7629,2.9907,3.0667,3.1772,3.2784,3.3589,3.4035,3.4934,3.6435,3.7593,3.8405,3.8785,3.9543,4.0156,4.0548,4.0991,4.1633,4.2441,4.3319,4.3984,4.4414,4.4414,4.4414,4.4394,4.3926,4.373,4.373,4.3321,4.3145,4.3106,4.2616,4.2441,4.2402,4.1992,4.1035,3.9836,3.8988,3.7816,3.6213,3.29,3.0328,2.8448,2.8085,2.7459,2.6874,2.6874,2.668,2.6506,2.678,2.6847,2.6914,2.7262,2.7363,2.7546,2.8256,2.8462,2.8386,2.8189,2.7877,2.7568,2.7378,2.6858,2.6547,2.6885,2.6467,2.6292,2.6925,2.6764,0.0,2.7809,2.8218,2.8544,2.8876,2.8905,2.8943,2.9022,2.909,2.8828,2.8193,2.7559,2.6868,2.6152,2.5141,2.4249,2.3559,2.0764,1.8448,1.6661,0.0,0.0,0.0,0.0,0.0,0.0,0.0,0.0,0.0,0.0,0.0,0.0,0.0,0.0,0.0,0.0,0.0,0.0,0.0,0.0,0.0,2.4829,2.7191,2.7696,3.032,3.2683,3.4072,3.5576,3.6714,3.7216,3.8197,3.9109,3.9835,4.0703,4.1267,4.1383,4.1596,4.1752,4.1871,4.2339,4.2828,4.3359,4.4531,4.5039,4.4842,4.4842,4.4842,4.4822,4.4394,4.4375,4.4627,4.4219,4.4043,4.4004,4.3535,4.3339,4.3261,4.2519,4.1656,4.0778,4.0182,3.837,3.5874,3.3693,3.1929,3.0526,2.9791,2.9075,2.8474,2.8474,2.808,2.77,2.8025,2.7936,2.786,2.8406,2.8524,2.8648,2.9098,2.9453,2.9554,2.8997,2.8707,2.853,2.8473,2.8128,2.7804,2.7659,2.7903,2.8008,2.7711,2.778,0.0,2.8233,2.8559,2.8798,2.8886,2.8905,2.9045,2.9408,2.9449,2.9399,2.9264,2.7915,2.6935,2.6471,2.5034,2.3722,2.2609,2.0838,1.9299,0.0,0.0,0.0,0.0,0.0,0.0,0.0,0.0,0.0,0.0,0.0,0.0,0.0,0.0,0.0,0.0,0.0,0.0,0.0,0.0,0.0,0.0,2.7739,3.0281,3.1525,3.3162,3.475,3.622,3.7705,3.8833,3.9445,4.0466,4.1263,4.1673,4.232,4.2597,4.2421,4.2402,4.2402,4.2402,4.2851,4.3302,4.3691,4.4824,4.5273,4.4998,4.4998,4.4998,4.4998,4.4744,4.4764,0.0,4.4744,4.4668,4.4629,4.4354,4.416,0.0,0.0,0.0,0.0,0.0,3.9063,3.6895,3.5507,3.3699,3.1886,3.1212,3.0223,2.9243,2.9103,2.8683,2.8285,2.8341,2.8131,2.8006,2.8455,2.8699,2.8928,2.9458,2.9912,3.007,2.9607,2.9297,2.9066,2.8934,0.0,0.0,2.8559,2.8739,2.8769,2.8384,2.8384,2.851,2.882,2.9171,2.947,2.9664,2.9838,3.0126,3.0606,3.0778,0.0,0.0,0.0,2.8025,2.69,2.566,0.0,0.0,0.0,0.0,0.0,0.0,0.0,0.0,1.7292,1.7689,0.0,0.0,0.0,0.0,0.0,0.0,0.0,0.0,0.0,0.0,0.0,0.0,0.0,0.0,0.0,0.0,3.0462,3.3184,3.5558,3.6016,3.6497,3.7652,3.885,3.9916,4.074,4.1589,4.2232,4.2616,4.3047,4.3105,4.2656,0.0,0.0,0.0,0.0,4.3438,4.3848,4.4666,4.5057,4.4998,4.4998,4.4998,4.4998,4.5057,4.5096,4.5135,4.5096,4.5076,4.5076,4.5018,4.4764,4.4355,4.3828,4.3144,4.2322,4.109,3.9898,3.8754,3.7837,0.0,0.0,3.2608,3.1295,2.9838,2.9464,2.9072,2.8701,2.8366,2.8043,2.7866,2.8197,2.8498,2.8921,2.97,3.0105,3.0252,3.0039,2.971,2.9359,2.9081,2.9257,2.9447,2.9447,2.9213,2.9008,2.8964,2.8661,2.8743,2.9519,3.0035,3.0535,3.1088,0.0,0.0,3.2405,3.2743,3.2652,3.2016,3.1185,2.9767,2.7679,2.6897,2.6174,2.5441,2.4493,2.3514,2.2521,2.2521,2.2579,2.2653,2.077,2.0382,0.0,0.0,0.0,0.0,0.0,0.0,0.0,0.0,0.0,0.0,0.0,0.0,0.0,0.0,0.0,2.9938,3.2642,3.5162,3.7311,3.8443,3.9159,3.9407,4.0614,4.1582,4.2089,4.3207,4.394,4.4023,4.4393,4.4452,4.4043,4.3632,4.3457,4.3457,4.3906,4.4336,4.4744,4.5293,4.5371,4.4998,0.0,0.0,4.5018,4.5391,4.5742,4.6035,4.5703,4.5547,4.5549,4.5154,4.4764,4.4316,4.3536,4.3126,4.285,4.1901,4.1187,4.0524,3.927,3.7719,3.6129,3.4994,3.3629,3.2341,3.1633,3.0911,0.0,3.0001,2.9508,2.9189,2.9789,2.9978,3.0188,3.0832,3.1042,3.1005,3.0673,3.0194,2.9789,2.9731,2.976,2.9804,2.9804,2.976,2.9608,2.9344,2.9022,2.9222,3.0314,3.1152,3.2047,3.31,3.3879,3.4365,3.4505,3.4769,3.4776,3.4365,3.2853,3.1373,3.0088,2.9008,2.7966,2.6913,2.6158,2.5381,2.4529,2.4529,2.4939,2.5622,2.3409,2.2796,0.0,0.0,0.0,0.0,0.0,0.0,0.0,0.0,0.0,0.0,0.0,2.4614,2.6113,0.0,3.0198,3.2345,3.4682,3.6866,3.8746,4.045,4.1334,4.0904,4.166,4.2365,4.2761,4.3783,4.4394,4.4394,4.4764,4.492,4.4705,4.4297,4.4141,4.4334,4.4569,4.4922,4.5351,4.5351,4.5234,4.4998,4.4803,4.4803,4.5018,4.549,4.592,4.6289,4.6074,4.5996,4.5959,4.5271,4.4881,4.4608,4.373,4.3282,4.3047,4.2629,4.2173,4.1717,4.1073,3.9835,3.8359,3.7259,3.5509,3.3711,3.2928,3.1798,3.0738,3.0478,3.0038,2.9774,3.0258,3.0507,3.0735,3.1198,3.1315,3.125,3.1089,3.0685,3.0349,3.0349,3.0349,3.0349,3.0349,3.0238,3.0099,2.9976,3.0007,3.0496,3.1747,3.2833,3.3895,3.4937,3.5774,3.6239,3.6249,3.6183,3.5895,3.5338,3.4284,3.3309,3.2389,3.1419,3.0463,2.9525,2.8813,2.806,2.7244,2.7428,2.7748,2.8186,2.7213,2.631,0.0,0.0,0.0,0.0,0.0,0.0,0.0,2.2226,2.2795,2.4648,2.6306,2.7885,2.9425,3.0912,3.2572,3.4651,3.6537,3.8353,4.0029,4.1891,4.2827,4.2153,4.2461,4.2875,4.3203,4.4004,4.4512,4.4512,4.4959,4.5252,4.5252,4.4961,4.4922,4.5232,4.5252,4.5449,4.5822,4.5252,4.4998,4.4998,4.459,4.457,4.4901,4.5449,4.5881,4.6191,4.6269,4.6308,4.625,4.5469,4.5076,4.494,4.4238,4.3711,4.336,4.336,4.3164,4.2907,4.2848,4.187,4.0478,3.9503,3.7377,3.5024,3.4166,3.2683,3.1191,3.0853,3.0536,3.0346,3.061,3.0817,3.1074,3.1417,3.1505,3.1505,3.1505,3.122,3.1007,3.1112,3.1152,3.1176,3.1274,3.1117,3.0948,3.076,3.1142,3.197,3.3401,3.4783,3.5953,3.6894,3.7727,3.8155,3.8009,3.7647,3.7143,3.6491,3.6092,3.562,3.5037,3.4241,3.3392,3.249,3.1815,3.108,3.0261,3.0553,3.0746,3.0891,3.1164,3.0004,1.9484,2.0691,2.273,2.4005,2.4856,2.548,0.0,2.6256,2.6802,2.7742,2.921,3.0699,3.1973,3.3213,3.4706,3.6754,3.8202,3.9661,4.1347,4.246,4.3066,4.2967,4.3317,4.3571,4.3633,4.4413,4.494,4.494,4.5681,4.6152,4.6152,4.6113,4.6113,4.6152,4.6152,4.6191,4.623,4.5408,4.4998,4.4998,4.459,4.4414,4.4492,4.5334,4.5725,4.5783,4.6133,4.6308,4.6269,4.5822,4.5371,4.4998,4.4901,4.4629,4.4258,4.4258,4.4453,4.4661,4.4236,4.3728,4.305,4.1697,3.9621,3.7369,3.6165,3.4447,3.2807,3.2258,3.1848,3.1614,3.1622,3.1666,3.1768,3.2127,3.22,3.22,3.22,3.1915,3.1809,3.2236,3.2357,3.2544,3.2963,3.3083,3.278,3.1742,3.2022,3.3064,3.5061,3.6754,3.8209,3.936,4.0277,4.0608,4.0181,3.9771,3.9516,3.9419,3.8993,3.8703,3.8627,3.7857,3.6728,3.5266,3.483,3.4204,3.3401,3.3416,3.3791,3.444,3.4474,3.2883,2.1929,2.3187,2.5051,2.6531,2.7852,2.884,2.9008,2.9537,3.0222,3.1026,3.2469,3.3827,3.4563,3.5489,3.6573,3.795,3.9176,4.0413,4.164,4.2754,4.3262,4.2754,4.2637,4.2695,4.2909,4.3516,4.4101,4.4629,4.5449,4.6055,4.6289,4.6308,4.6308,4.6308,4.6308,4.6308,4.6308,4.5703,4.541,4.5391,4.4961,4.4902,4.5177,4.5529,4.5822,4.6055,4.623,4.6308,4.6269,4.5861,4.5588,4.5371,4.5096,4.5078,4.5158,4.5158,4.5098,4.5016,4.5098,4.4849,4.4273,4.3119,4.098,3.8623,3.7533,3.5475,3.3443,3.3202,3.2873,3.2624,3.2624,3.25,3.2419,3.2551,3.2449,3.2302,3.2302,3.2053,3.2012,3.2761,3.3151,3.3578,3.4348,3.474,3.4951,3.4963,3.4712,3.5119,3.6784,3.8266,3.9537,4.0568,4.0744,4.0703,4.0528,4.0137,3.9902,3.9902,3.9707,3.9609,3.9609,3.906,3.8326,3.7446,3.7053,3.6563,3.6006,3.6006,3.6148,3.6451,3.6451,3.5749,2.4036,2.5399,2.7077,2.8807,3.0274,3.1341,3.1579,3.2164,3.2814,3.3395,3.4621,3.573,3.6236,3.6923,3.7792,3.9003,4.0141,4.1152,4.2031,4.3047,4.3379,4.2519,4.1953,4.1758,4.2031,4.2578,4.3203,4.3984,4.508,4.5822,4.6113,4.623,4.6308,4.6308,4.6308,4.6308,4.6308,4.5996,4.5803,4.5686,4.5351,4.5312,4.5529,4.5646,4.592,4.6308,4.6308,4.6367,4.6445,4.6152,4.6016,4.5996,4.5801,4.5859,4.6057,4.6174,4.5859,4.5408,4.5742,4.5644,4.5199,4.4255,4.2218,3.9915,3.8836,3.6582,3.433,3.4119,3.3776,3.345,3.3362,3.318,3.3057,3.3102,3.3028,3.2953,3.2995,3.2917,3.3103,3.4047,3.4599,3.5243,3.6182,3.676,3.7332,3.8074,3.7752,3.7699,3.842,3.9528,4.0509,4.1133,4.0898,4.0684,4.0684,4.043,4.0273,4.0273,4.0273,4.0273,4.0273,3.9968,3.9624,3.9204,3.8918,3.8631,3.8325,3.8325,3.8382,3.8513,3.8513,3.8513,2.5388,2.7096,2.8807,3.0806,3.1926,3.2753,3.3524,3.4037,3.4332,3.4367,3.4964,3.5748,3.6555,3.7084,3.8077,4.01,4.1191,4.2051,4.295,4.3418,4.3379,4.2519,4.1699,4.1211,4.125,4.1953,4.2616,4.3106,4.4728,4.5705,4.5725,4.6074,4.6308,4.6308,4.6308,4.6308,4.6308,4.6289,4.6074,4.5705,4.5686,4.5449,4.5037,4.5488,4.592,4.6308,4.6308,4.6521,4.6892,4.6872,4.6872,4.6911,4.7344,4.7246,4.6911,4.7363,4.7014,4.6269,4.6289,4.6269,4.6116,4.5172,4.3541,4.1649,4.0198,3.8051,3.595,3.5194,3.4575,3.4087,3.3779,3.3692,3.3717,3.3844,3.4201,3.4577,3.4784,3.5112,3.5668,3.6616,3.7219,3.7875,3.882,3.9413,3.9917,4.0347,4.0771,4.0751,3.9957,4.0607,4.1172,4.1191,4.1191,4.1172,4.1172,4.1172,4.1152,4.1152,4.1152,4.1152,4.1152,4.1152,4.0918,4.045,4.0431,4.0431,4.0412,4.0412,4.0646,4.1094,4.1094,4.1094,2.6637,2.8766,3.0751,3.2239,3.3598,3.4661,3.4936,3.5734,3.622,3.5656,3.5692,3.6083,3.6939,3.7012,3.7726,4.0118,4.1465,4.2499,4.3379,4.4121,4.4139,4.2988,4.2344,4.164,4.082,4.0977,4.1679,4.3008,4.4181,4.5099,4.5666,4.6074,4.6308,4.6308,4.6308,4.6426,4.6697,4.6697,4.6797,4.6956,4.6956,4.6877,4.6719,4.6897,4.7034,4.7148,4.7148,4.7226,4.7363,4.7363,4.7363,4.7383,4.7542,4.75,4.7383,4.7542,4.7425,4.7148,4.7148,4.6953,4.6586,4.5966,4.4472,4.2738,4.1594,3.9327,3.6999,3.6421,3.5261,3.4174,3.4057,3.3867,3.3882,3.46,3.5157,3.5716,3.6478,3.6975,3.7569,3.8507,3.9102,3.9736,4.0649,4.1235,4.1598,4.1739,4.1677,4.1486,4.1207,4.1405,4.1504,4.123,4.1191,4.1191,4.1191,4.1191,4.1191,4.1191,4.1191,4.1191,4.1191,4.1191,4.1133,4.0976,4.0957,4.0957,4.0957,4.0957,4.1054,4.1191,4.1191,4.1191,2.8326,3.0531,3.2514,3.3579,3.4844,3.5852,3.5999,3.6624,3.6928,3.6031,3.5423,3.5335,3.6211,3.6169,3.6873,3.9591,4.1367,4.2714,4.3574,4.4452,4.4569,4.3458,4.293,4.2246,4.1269,4.0918,4.1211,4.2344,4.3496,4.4473,4.5197,4.5898,4.6308,4.6308,4.6445,4.6638,4.6911,4.7204,4.7519,4.7793,4.7679,4.76,4.76,4.76,4.76,4.76,4.76,4.7679,4.7793,4.7793,4.7913,4.8069,4.8069,4.8069,4.8069,4.8069,4.8069,4.8011,4.7718,4.7402,4.704,4.6395,4.5277,4.3922,4.2636,4.056,3.851,3.7876,3.659,3.5414,3.5414,3.5272,3.5327,3.6203,3.6949,3.7677,3.8529,3.9206,3.9893,4.066,4.1183,4.1698,4.2316,4.2674,4.287,4.287,4.2647,4.2314,4.1855,4.1797,4.1699,4.1445,4.1406,4.1484,4.1621,4.1621,4.1621,4.1621,4.1621,4.1621,4.1621,4.1621,4.1621,4.1621,4.1504,4.1406,4.1406,4.1269,4.1269,4.1406,4.1406,4.1504,3.0439,3.2458,3.4183,3.4954,3.5742,3.6386,3.6738,3.6825,3.6506,3.5523,3.4218,3.3539,3.4414,3.457,3.5566,3.8633,4.0977,4.2714,4.3613,4.4491,4.4725,4.3906,4.3437,4.3008,4.2558,4.1777,4.1328,4.1348,0.0,4.3926,4.4433,4.5625,4.6308,4.6328,4.6697,4.6931,4.697,4.7809,4.8242,4.8242,4.7855,4.7659,4.7659,4.7659,4.7659,4.7659,4.7659,4.7871,4.8242,4.8242,4.8499,4.8913,4.8913,4.8913,4.8913,4.8913,4.8913,4.8796,4.7952,4.7659,4.7472,4.6594,4.5971,4.5268,4.3471,4.189,4.0515,3.9576,3.8575,3.7777,3.7761,3.7745,3.7918,3.8612,3.9481,4.0322,4.093,4.1797,4.2559,4.3028,4.3458,4.3757,4.3739,4.3733,4.373,4.3711,4.3711,4.3262,4.2031,4.1875,4.1855,4.1836,4.1836,4.1992,4.2382,4.2402,4.2402,4.2402,4.2402,4.2402,4.2402,4.2402,4.2402,4.2402,4.2031,4.1836,4.1836,4.1445,4.1465,4.1836,4.1836,4.2051,3.2936,3.5001,3.6682,3.7184,3.7428,3.7483,3.7293,3.6979,3.6195,3.4367,3.2669,3.1797,3.2672,3.2843,3.402,3.7638,4.0586,4.2831,4.4043,4.4961,4.5451,4.5217,4.4785,4.4355,4.3926,4.3379,4.3203,4.3555,4.3652,4.418,4.5314,4.5957,4.6445,4.6736,4.6853,4.7204,4.7848,4.8441,4.8714,4.8714,4.864,4.8581,4.8581,4.8581,4.8581,4.8581,4.8581,4.864,4.8714,4.8714,4.8773,4.8913,4.8913,4.8913,4.8913,4.8913,4.8913,4.8874,4.8659,4.8343,4.8005,4.7752,4.7405,4.6912,4.6077,4.4801,4.3419,4.2496,4.1246,4.0131,3.9839,3.9772,3.9982,4.0909,4.1604,4.2323,4.3173,4.3863,4.4359,4.4465,4.4593,4.4564,4.4264,4.4234,4.4101,4.375,4.3711,4.3476,4.2852,4.2774,4.2617,4.2285,4.2246,4.2285,4.2402,4.2402,4.2402,4.2402,4.2402,4.2402,4.2402,4.2402,4.2402,4.2402,4.2304,4.2246,4.2246,4.2128,4.2148,4.2246,4.2246,4.2304,3.4983,3.685,3.8343,3.8572,3.8462,3.814,3.7546,3.6447,3.5066,3.3286,3.1238,3.0034,3.0908,3.1377,3.2769,3.625,3.9668,4.2266,4.3379,4.4453,4.5138,4.5138,4.4902,4.4648,4.4414,4.416,4.4355,4.5176,4.4648,4.4766,4.5898,4.6523,4.6973,4.7207,4.738,4.779,4.8499,4.8776,4.8913,4.8913,4.8913,4.8913,4.8913,4.8913,4.8913,4.8913,0.0,4.8913,4.8913,4.8913,4.8913,4.8913,4.8913,4.8913,4.8913,4.8913,4.8913,4.8913,4.8913,4.8714,4.8457,4.8281,4.8047,4.7745,4.7096,4.6182,4.522,4.4475,4.337,4.2359,4.2124,4.1925,4.1981,4.2779,4.335,4.3912,4.4676,4.5201,4.5564,4.5564,4.543,4.5234,4.5,4.4805,4.4569,4.4295,4.4256,4.4199,4.3965,4.3458,4.3008,4.2734,4.2715,4.2793,4.2948,4.2968,4.3065,4.3261,4.3085,4.3065,4.3261,4.3065,4.2968,4.2968,4.2812,4.2715,4.2715,4.2499,4.2499,4.2715,4.2715,4.2792,3.6849,3.8401,3.9549,3.9467,3.9166,3.8555,3.7468,3.5521,3.3511,3.2049,2.9741,2.8223,2.9076,3.0014,3.1641,3.4743,3.8495,4.1348,4.2187,4.3418,4.4258,4.4394,4.4355,4.4375,4.4551,4.4609,4.5156,4.6387,4.576,4.5683,4.6426,4.719,4.762,4.7679,4.8066,4.8499,4.8894,4.8913,4.8913,4.8913,4.8913,4.8913,4.8913,4.8913,4.8913,4.8913,4.8913,0.0,4.8991,4.8933,4.8933,4.8968,4.8933,4.8913,4.8913,4.8913,4.8913,4.8913,4.8913,4.8913,4.8835,4.8441,4.8301,4.8154,4.7376,4.6894,4.6466,4.5996,4.5264,4.4649,4.4593,4.4271,4.406,4.4546,4.4908,4.5287,4.5684,4.6063,4.6308,4.6308,4.6037,4.5764,4.5705,4.5371,4.5076,4.5018,4.4998,4.4998,4.4998,4.4043,4.336,4.336,4.336,4.3476,4.3848,4.3866,4.4043,4.4453,4.4101,4.4062,4.4473,4.4101,4.3866,4.3866,4.3516,4.336,4.336,4.2929,4.2948,4.336,4.336,4.3535,3.9048,4.0117,4.0775,4.0392,3.999,3.9092,3.6772,3.4573,3.2349,2.9952,2.7689,2.642,2.7292,2.8444,3.0371,3.3766,3.7596,4.0527,4.1738,4.2715,4.3595,4.4316,4.4062,4.4258,4.5373,4.5762,4.6348,4.7307,4.7226,4.7229,4.7366,4.7522,4.7734,4.8086,4.8538,4.8835,4.8913,4.8913,4.8913,4.8913,4.8913,4.8913,4.8913,4.8913,4.8913,4.8913,4.8913,0.0,4.9352,4.9027,4.9105,4.9352,4.9027,4.8913,4.8913,4.8913,4.8913,4.8913,4.8913,4.8913,4.8894,4.8815,4.8773,4.8753,4.8606,4.8495,4.8325,4.7861,4.7615,4.7392,4.7086,4.6931,4.6896,4.6985,4.6778,4.6573,4.6661,4.6477,4.6308,4.6308,4.625,4.6094,4.5764,4.5627,4.5449,4.5057,4.4998,4.4998,4.4998,4.4803,4.4666,4.4666,4.4666,4.4686,4.4764,4.4764,4.4803,4.4881,4.4822,4.4803,4.4881,4.4822,4.4764,4.4764,4.4705,4.4666,4.4666,4.4588,4.4588,4.4666,4.4666,4.4705,4.0177,4.1024,4.1474,4.1228,4.0355,3.8789,3.5976,3.332,3.0781,2.8404,2.6362,2.5242,2.5879,2.7038,2.8893,3.1949,3.5488,3.8398,3.9921,4.1055,4.2148,4.3222,4.3379,4.4005,4.5549,4.625,4.6973,4.7851,4.791,4.803,4.8245,4.8288,4.8363,4.8558,4.8773,4.8913,4.8913,4.8913,4.8913,4.8913,4.8913,4.8913,4.8913,4.8913,4.8913,4.8913,4.9125,0.0,4.9508,4.9574,4.9691,4.9844,4.9652,4.9574,4.9574,4.9574,4.9574,4.9574,4.9574,4.9574,4.9574,4.9574,4.9285,4.8913,4.8913,4.8913,4.8855,4.8636,4.8379,4.8164,4.7949,4.7776,4.76,4.76,4.7422,4.7266,4.7266,4.6933,4.6599,4.6599,4.6445,4.623,4.6057,4.5996,4.5937,4.5701,4.5683,4.5683,4.5683,4.5683,4.5506,4.5057,4.4998,4.4998,4.4998,4.4998,4.5096,4.5351,4.5135,4.5096,4.5351,4.5115,4.4998,4.4998,4.4998,4.4998,4.4998,4.4998,4.4998,4.4998,4.4998,4.4998,4.105,4.1766,4.2,4.1601,4.0215,3.8086,3.4883,3.1831,2.9076,2.7012,2.5281,2.4266,2.473,2.5793,2.7441,3.0039,3.3265,3.6038,3.7811,3.9297,4.0703,4.1992,4.2617,4.3673,4.551,4.6426,4.7263,4.8122,4.8301,4.8519,4.8894,4.8913,4.8913,4.8913,4.8913,4.8913,4.8913,4.8913,4.8913,4.8913,4.8913,4.8952,4.9027,4.9027,4.9066,4.9206,4.9512,0.0,0.0,5.0078,5.0258,5.0336,5.0238,5.0199,5.0199,5.0199,5.0199,5.0199,5.0199,5.0199,5.0199,5.0199,4.973,4.9167,4.9046,4.9027,4.9007,4.8933,4.8636,4.834,4.834,4.8128,4.7855,4.7757,4.7737,4.7718,4.762,4.7305,4.7028,4.6931,4.6638,4.6406,4.6308,4.6308,4.6308,4.6308,4.6308,4.6308,4.6308,4.6308,4.6055,4.535,4.5271,4.5271,4.5271,4.5271,4.5449,4.5803,4.5488,4.5428,4.5822,4.5488,4.5271,4.5271,4.5271,4.5271,4.5271,4.5271,4.5271,4.5271,4.5271,4.5271,4.2049,4.2635,4.2596,4.1016,3.9317,3.7033,3.3277,3.0087,2.7428,2.563,2.418,2.3365,2.3828,2.4672,2.6118,2.8658,3.1645,3.4261,3.5999,3.8027,3.9805,4.1152,4.1992,4.332,4.549,4.6426,4.7263,4.8122,4.8597,4.8855,4.8913,4.8913,4.8913,4.8913,4.8913,4.8913,4.8913,4.8913,4.8913,4.8913,4.8913,4.9086,4.9449,4.9449,4.9687,5.0082,5.0121,0.0,0.0,5.0312,5.0434,5.0703,5.0356,5.0199,5.0199,5.0199,5.0199,5.0199,5.0199,5.0199,5.0199,5.0199,5.0141,5.0004,4.9566,4.9449,4.9352,4.8988,4.8874,4.8855,4.8855,4.8815,4.8656,4.8242,4.8144,4.8047,4.7679,4.7581,4.7402,4.6989,4.6872,4.6736,4.6367,4.6308,4.6308,4.6308,4.6308,4.6308,4.6308,4.6308,4.6269,4.6191,4.6191,4.6191,4.6191,4.6191,4.6211,4.623,4.6211,4.6211,4.625,4.6211,4.6191,4.6191,4.6191,4.6191,4.6191,4.6191,4.6191,4.6191,4.6191,4.6191,4.0879,4.1953,4.2285,4.0566,3.8828,3.6465,3.2359,2.9272,2.6731,2.473,2.3661,2.3151,2.3337,2.3887,2.4992,2.7051,2.9487,3.1797,3.3789,3.6152,3.8182,3.9472,4.0605,4.2109,4.4277,4.5508,4.6855,4.8499,4.8773,4.8913,4.8913,4.8913,4.8913,4.8913,4.8913,4.8913,4.8913,4.8913,4.8913,4.8913,4.9164,4.9355,4.9508,4.9805,5.0019,5.0219,5.0473,0.0,0.0,5.0898,5.1011,5.1148,5.0972,5.0937,5.0937,5.0937,5.0937,5.0937,5.0937,5.0937,5.0937,5.0937,5.0937,5.0801,5.0117,4.9703,4.9469,4.9316,4.9258,4.9199,4.8949,4.8913,4.8855,4.8656,4.8617,4.8578,4.8402,4.8167,4.791,4.7712,4.75,4.7266,4.7112,4.707,4.707,4.707,4.707,4.707,4.707,4.707,4.707,4.707,4.6601,4.6308,4.6308,4.6308,4.6308,4.6308,4.6308,4.6308,4.6308,4.6308,4.6308,4.6308,4.6308,4.6308,4.6308,4.6308,4.6308,4.6308,4.6308,4.6308,3.9649,4.123,4.1972,4.0156,3.8203,3.5681,3.1636,2.858,2.6081,2.4191,2.3426,2.3101,2.3101,2.3357,2.4121,2.5754,2.7591,2.9584,3.1738,3.4293,3.6404,3.7674,3.8965,4.0625,4.293,4.4902,4.6858,4.8757,4.8913,4.8913,4.8913,4.8913,4.8913,4.8913,4.8913,4.8913,4.8913,4.8913,4.8972,4.9086,4.9352,4.9644,4.9898,5.0234,5.043,5.0566,5.0859,0.0,0.0,5.1284,5.1401,5.1401,5.1401,5.1401,5.1401,5.1401,5.1401,5.1401,5.1401,5.1401,5.1401,5.1401,5.1401,5.1304,5.0723,5.0254,4.9859,4.9742,4.9605,4.943,4.9164,4.8988,4.8913,4.8913,4.8913,4.8913,4.8913,4.8636,4.8359,4.8223,4.7969,4.7757,4.762,4.76,4.76,4.76,4.76,4.76,4.76,4.76,4.76,4.76,4.7031,4.6621,4.6504,4.6484,4.6426,4.6308,4.6308,4.6308,4.6308,4.6308,4.6308,4.6308,4.6308,4.6308,4.6308,4.6308,4.6367,4.6484,4.6484,4.6484,3.875,4.0762,4.1894,3.9746,3.7305,3.4492,3.0996,2.7877,2.5347,2.4062,2.3426,2.3101,2.3101,2.3101,2.3552,2.4887,2.6191,2.778,2.9933,3.248,3.4606,3.5881,3.715,3.8946,4.1562,4.4881,4.7461,4.8796,4.8913,4.8913,4.8913,4.8913,4.8913,4.8913,4.8913,4.8913,4.8913,4.8913,4.9105,4.9488,4.9508,4.9937,5.0801,5.0801,5.1011,0.0,0.0,0.0,0.0,5.1401,5.1401,5.1401,5.1401,5.1401,5.1401,5.1401,5.1401,5.1401,5.1401,5.1401,5.1401,5.1401,5.1401,5.1401,5.1401,5.1109,5.0703,5.0317,4.9863,4.9508,4.9488,4.9199,4.8913,4.8913,4.8913,4.8913,4.8913,4.8894,4.8776,4.8281,4.8203,4.8066,4.7679,4.76,4.76,4.76,4.76,4.76,4.76,4.76,4.76,4.76,4.76,4.7383,4.6931,4.6892,4.6716,4.6328,4.6308,4.6308,4.6308,4.6308,4.6308,4.6308,4.6308,4.6308,4.6308,4.6308,4.6501,4.6892,4.6892,4.6892,3.5251,3.7266,3.8555,3.6992,3.5098,3.2793,2.9609,2.7044,2.4922,2.3591,2.3209,2.3101,2.3101,2.3101,2.3326,2.4093,2.5281,2.6869,2.9015,3.207,3.4684,3.6287,3.9141,4.166,4.3418,4.5584,4.7461,4.8796,4.8913,4.8913,4.8913,4.8913,4.8913,4.8913,4.8913,4.8913,4.8913,4.916,4.9371,4.9508,5.0093,5.0523,5.082,5.1069,5.1284,0.0,0.0,0.0,0.0,5.1401,5.1401,5.1401,5.1401,5.1401,5.1401,5.1401,5.1401,5.1401,5.1401,5.1401,5.1401,5.1401,5.1401,5.1401,5.1401,5.1109,5.0781,5.0644,5.0293,4.998,4.998,4.9648,4.9308,4.9364,4.9374,4.9466,4.9787,4.9856,4.9816,4.9677,4.9637,4.9597,4.9458,4.9187,4.896,4.896,4.8686,4.8503,4.8503,4.8503,4.8503,4.8503,4.8503,4.8187,4.7441,4.7383,4.7324,4.721,4.719,4.7051,4.6716,4.6716,4.6579,4.6308,4.6308,4.6308,4.6308,4.6579,4.6931,4.7363,4.7048,4.6911,3.1807,3.3961,3.5293,3.4023,3.2652,3.0893,2.8197,2.6165,2.4512,2.3346,2.3101,2.3101,2.3101,2.3101,2.3248,2.3711,2.4598,2.6069,2.8547,3.1758,3.4919,3.7791,4.082,4.3125,4.4297,4.5916,4.7461,4.8796,4.8913,4.8913,4.8913,4.8913,4.8913,4.8913,4.8913,4.8968,4.9125,4.9371,4.9664,4.9996,5.0547,5.0898,5.103,5.1284,5.1401,0.0,0.0,0.0,0.0,5.1401,5.1401,5.1401,5.1401,5.1401,5.1401,5.1401,5.1401,5.1401,5.1401,5.1401,5.1401,5.1401,5.1401,5.1401,5.1401,5.1226,5.1011,5.1011,5.0742,5.0395,5.0238,4.9985,4.9744,4.9634,4.9742,4.9948,5.0245,5.0291,5.0291,5.0291,5.0291,5.0291,5.0291,5.0062,4.981,4.9627,4.9351,4.9098,4.8936,4.8913,4.8913,4.8913,4.8913,4.8698,4.8128,4.7933,4.7754,4.762,4.76,4.7383,4.6931,4.6911,4.6716,4.6308,4.6465,4.6521,4.6521,4.7107,4.7536,4.7835,4.7539,4.738,0.0,3.0776,3.2187,3.0991,3.0034,2.8875,2.677,2.5293,0.0,2.3268,2.3101,2.3101,2.3101,2.3131,2.3298,2.3769,2.4238,2.5593,2.8619,3.186,3.5611,4.0235,4.2285,4.3653,4.4492,4.6033,4.7539,4.8815,4.8913,4.8913,4.8913,4.8913,4.8913,4.8913,4.8913,4.9086,4.9449,4.9527,4.9957,5.0762,5.082,5.103,5.1401,5.1401,5.1401,0.0,0.0,0.0,0.0,5.1401,5.1401,5.1401,5.1401,5.1401,5.1401,5.1401,5.1401,5.1401,5.1401,5.1401,5.1401,5.1401,5.1401,5.1401,5.1401,5.1401,5.1401,5.145,5.1201,5.079,5.0451,5.0349,5.0265,4.9855,5.0079,5.04,5.0405,5.0405,5.0405,5.0405,5.0405,5.0405,5.0405,5.0382,5.02,4.9719,4.9627,4.9443,4.8959,4.8913,4.8913,4.8913,4.8913,4.8913,4.8913,4.8499,4.8086,4.7718,4.7698,4.7461,4.697,4.695,4.6736,4.6308,4.6697,4.6931,4.6989,4.7812,4.8223,4.8262,4.8223,4.8203,2.443,0.0,2.9213,2.8588,2.8021,2.7226,0.0,2.4652,2.3789,2.3209,2.3101,2.3101,2.3101,2.3396,2.3769,2.4188,2.5195,2.6973,3.0,3.5276,3.9981,4.3125,4.4707,4.5762,4.6267,4.7263,4.8164,4.8855,4.8913,4.8913,4.8913,4.8913,4.8913,4.8913,4.8913,4.8952,4.9046,4.9711,5.0137,5.0356,5.0952,5.1304,5.1401,5.1401,5.1401,0.0,0.0,0.0,5.1401,5.1401,5.1401,5.1401,5.1401,5.1401,5.1401,5.1401,5.1401,5.1401,5.1401,5.1401,5.1401,5.1401,5.1401,5.1401,5.1401,5.1401,5.1474,5.1911,5.1953,5.1847,5.1813,5.1803,5.1711,5.1301,5.128,5.1382,5.1443,5.1452,5.1452,5.1452,5.1452,5.1452,5.1452,5.1157,5.0747,5.02,4.9833,4.9443,4.8959,4.8913,4.8913,4.8913,4.8913,4.8913,4.8913,4.8815,4.8718,4.86,4.86,4.8245,4.7461,4.7444,4.707,4.6308,4.6697,4.7224,4.7887,4.8105,4.8379,4.8714,4.8359,4.8203,2.3101,2.493,2.6634,2.5813,2.5859,2.5793,2.4473,2.3828,2.3407,2.3151,2.3101,2.317,2.3376,2.3778,2.4355,2.5183,2.6582,2.9219,3.4023,3.9063,4.3183,4.5566,4.6838,4.7581,4.7793,4.8242,4.8636,4.8894,4.8913,4.8913,4.8913,4.8913,4.8913,4.8913,4.8913,4.8988,4.916,4.9648,5.0078,5.0469,5.0918,5.1226,5.1401,5.1401,5.1401,0.0,0.0,0.0,5.1401,5.1401,5.1401,5.1401,5.1401,5.1401,5.1401,5.1401,5.1401,5.1401,5.1401,5.1547,5.1814,5.2032,5.2148,5.2148,5.2148,5.2148,5.2128,5.2201,5.237,5.2535,5.2354,5.2495,5.2549,5.2119,5.2044,5.2092,5.2118,5.1957,5.1791,5.1791,5.1791,5.1791,5.1791,5.1588,5.118,5.0405,5.0085,4.9673,4.9006,4.8913,4.8913,4.8913,4.8913,4.8913,4.8913,4.8913,4.8913,4.8913,4.8913,4.8578,4.7891,4.7894,4.7656,4.7187,4.738,4.7832,4.8519,4.8519,4.8656,4.8894,4.8636,4.8519,2.319,2.418,2.4895,2.361,2.4316,2.4973,2.3775,2.3502,2.3482,2.3424,2.3415,2.3552,2.4004,2.4551,2.5371,2.6738,2.8789,3.2387,3.8711,4.2422,4.5293,4.7444,4.8402,4.8913,4.8913,4.8913,4.8913,4.8913,4.8913,4.8913,4.8913,4.8913,4.8913,4.8913,4.8913,4.9066,4.9391,4.9469,4.9879,5.0581,5.0742,5.0972,5.1323,5.1382,5.1382,5.1323,0.0,0.0,5.1323,5.1382,5.1401,5.1401,5.1401,5.1401,5.1401,5.1401,5.1401,5.1401,5.1499,5.1862,5.2394,5.2848,5.2992,5.2992,5.2992,5.3065,5.3041,5.2563,5.2756,5.3056,5.272,5.2975,5.3208,5.2734,5.267,5.2681,5.2619,5.2288,5.2019,5.2019,5.2019,5.2019,5.2019,5.2019,5.168,5.0767,5.0501,5.0094,4.9242,4.8999,4.8913,4.8913,4.8913,4.8913,4.8913,4.8913,4.8913,4.8913,4.8913,4.8695,4.8223,4.8144,4.8144,4.8203,4.8203,4.8418,4.8913,4.8913,4.8913,4.8913,4.8913,4.8913,2.3583,2.4637,2.5386,2.4442,2.5215,2.6035,2.5445,2.5296,2.5199,2.4855,2.4789,2.4914,2.5328,2.6387,2.7721,2.9336,3.3203,3.7266,4.0898,4.3437,4.5701,4.7851,4.8578,4.8913,4.8913,4.8913,4.8913,4.8913,4.8913,4.8913,4.8913,4.8913,4.8913,4.8913,4.8913,4.8933,4.8988,4.9336,4.9566,4.9703,5.0449,5.084,5.0894,5.1245,5.1206,5.0918,0.0,5.1206,5.0937,5.1265,5.1401,5.1401,5.1401,5.1401,5.1401,5.1401,5.1401,5.145,5.1911,5.2418,5.2896,5.2968,5.2992,5.2992,5.2992,5.3329,5.3664,5.3593,5.3616,5.374,5.4084,5.4206,5.4174,5.3699,5.3581,5.3507,5.3157,5.3036,5.2994,5.2994,5.2994,5.2994,5.2994,5.2994,5.2786,5.2165,5.1397,5.0692,5.0159,4.9383,4.8913,4.8913,4.8913,4.8913,4.8913,4.8913,4.8913,4.8913,4.8913,4.8695,4.8223,4.7871,4.7851,4.8203,4.8203,4.8418,4.8913,4.8913,4.8913,4.8913,4.8913,4.8913,2.3357,2.4394,2.532,2.5152,2.6277,2.7305,2.6875,2.6953,2.6992,2.6588,2.6301,2.6387,2.7259,2.8535,3.0659,3.4453,3.7695,4.0625,4.3163,4.4979,4.656,4.8027,4.8617,4.8913,4.8913,4.8913,4.8913,4.8913,4.8913,4.8913,4.8913,4.8913,4.8913,4.8913,4.8913,4.8913,4.8913,4.9086,4.9277,4.9508,4.9898,5.0328,5.082,5.0972,5.0952,5.082,0.0,5.1167,5.084,5.1226,5.1401,5.1401,5.1401,5.1571,5.1862,5.2172,5.2269,5.2342,5.2876,5.3233,5.3473,5.3712,5.3808,5.3808,5.3808,5.3975,5.4166,5.4166,5.4166,5.4214,5.4428,5.4497,5.4458,5.4228,5.398,5.3752,5.3569,5.3344,5.3201,5.3201,5.3201,5.3201,5.3201,5.3201,5.3016,5.2463,5.2043,5.1402,5.0437,4.9917,4.9469,4.8956,4.8913,4.8913,4.8913,4.8913,4.8913,4.8913,4.8913,4.8792,4.8597,4.8402,4.8382,4.8578,4.8578,4.8675,4.8913,4.8913,4.8913,4.8913,4.8913,4.8913,2.3229,2.4082,2.509,2.571,2.7097,2.8295,2.8288,2.8777,2.9115,2.8816,2.8549,2.8658,2.9634,3.1241,3.402,3.9021,4.1207,4.3097,4.5467,4.6643,4.7597,4.8583,4.8997,4.9236,4.9236,4.9236,4.9236,4.9236,4.9236,4.9236,4.9236,4.9236,4.9236,4.9236,4.9101,4.9075,4.9075,4.894,4.9046,4.9375,4.9449,4.9898,5.0664,5.0664,5.0664,5.0683,5.0996,5.0933,5.0683,5.1089,5.1323,5.1401,5.1547,5.1911,5.2442,5.2848,5.3065,5.3257,5.3664,5.388,5.4023,5.4401,5.4497,5.4497,5.4497,5.4497,5.4497,5.4497,5.4497,5.4497,5.4497,5.4497,5.4497,5.4497,5.4228,5.3959,5.3959,5.3714,5.3509,5.3509,5.3509,5.3509,5.3509,5.3509,5.3372,5.2954,5.2687,5.2177,5.1086,5.0756,5.0308,4.9479,4.9281,4.9127,4.8913,4.8913,4.8913,4.8913,4.8913,4.8913,4.8913,4.8913,4.8913,4.8913,4.8913,4.8913,4.8913,4.8913,4.8913,4.8913,4.8913,4.8913,2.3633,2.409,2.4754,2.6035,2.7337,2.8607,2.9746,3.1025,3.1905,3.1885,3.2144,3.2402,3.25,3.4877,3.79,4.118,4.2811,4.4704,4.7711,4.8239,4.8737,4.9999,5.018,5.02,5.02,5.02,5.02,5.02,5.02,5.02,5.02,5.02,5.02,5.02,4.9787,4.9558,4.9558,4.9121,4.8913,4.8952,4.9336,4.9766,5.0238,5.0238,5.0238,5.0238,5.0278,5.0278,5.0278,5.0683,5.105,5.145,5.1959,5.2467,5.2944,5.2992,5.3329,5.376,5.3784,5.4095,5.4473,5.4497,5.4497,5.4497,5.4497,5.4497,5.4497,5.4497,5.4497,5.4497,5.4497,5.4497,5.4497,5.4497,5.4455,5.4435,5.4435,5.4438,5.4417,5.4417,5.4417,5.4417,5.4417,5.4417,5.4393,5.4346,5.3619,5.3025,5.2914,5.2145,5.1417,5.0885,5.0474,4.9855,4.8956,4.8913,4.8913,4.8913,4.8913,4.8913,4.8913,4.8913,4.8913,4.8913,4.8913,4.8913,4.8913,4.8913,4.8913,4.8913,4.8913,4.8913,2.3746,2.4124,2.4771,2.6127,2.7711,2.9298,3.0692,3.2422,3.3922,3.4453,3.5117,3.5586,3.5586,3.7827,4.0589,4.3437,4.544,4.7465,4.9685,5.006,5.0123,5.0282,5.0291,5.0291,5.0291,5.0291,5.0291,5.0291,5.0291,5.0291,5.0291,5.0291,5.0291,5.0291,5.0131,4.9902,4.9604,4.9719,4.9627,4.9351,4.9486,4.9964,5.0703,5.0703,5.0703,5.0743,5.128,5.1359,5.1204,5.1877,5.2255,5.2462,5.2972,5.3329,5.3521,5.3832,5.4047,5.4238,5.4238,5.4333,5.4497,5.4497,5.4497,5.4497,5.4497,5.4497,5.4497,5.4497,5.4497,5.4497,5.4497,5.4497,5.4497,5.4497,5.4497,5.4497,5.4497,5.4497,5.4497,5.4497,5.4497,5.4497,5.4497,5.4497,5.4497,5.4497,5.4189,5.3769,5.3178,5.2802,5.2181,5.1104,5.0321,4.9713,4.9351,4.9055,4.8913,4.8913,4.8913,4.8913,4.8913,4.8913,4.8913,4.8913,4.8913,4.8913,4.8913,4.8913,4.8913,4.8913,4.8913,4.8913,2.4015,2.4269,2.4889,2.6569,2.8469,3.052,3.2734,3.4695,3.6358,3.7573,3.8527,3.9087,3.8934,4.077,4.3163,4.5733,4.7886,4.9989,5.2067,5.2251,5.2079,5.1708,5.1522,5.1363,5.1227,5.1068,5.093,5.077,5.077,5.077,5.077,5.077,5.077,5.077,5.0633,5.0405,5.0085,5.0223,5.0223,5.0085,5.0085,5.0397,5.0978,5.0837,5.0937,5.1242,5.1681,5.1906,5.1926,5.253,5.2968,5.3281,5.3664,5.388,5.4047,5.4401,5.4497,5.4497,5.4497,5.4497,5.4497,5.4497,5.4497,5.4497,5.4497,5.4497,5.4497,5.4497,5.4497,5.4497,5.4497,5.4497,5.4497,5.4497,5.4497,5.4497,5.4497,5.4497,5.4497,5.4497,5.4497,5.4497,5.4497,5.4497,5.4497,5.4497,5.4497,5.4278,5.3616,5.3405,5.2787,5.1379,5.0529,5.0017,4.9856,4.9535,4.9351,4.9351,4.9351,4.9213,4.8894,4.8913,4.8913,4.8913,4.8913,4.8913,4.8913,4.8913,4.8913,4.8913,4.8913,4.8913,2.453,2.453,2.51,2.7461,2.9711,3.236,3.618,3.8024,3.9486,4.146,4.2547,4.3005,4.2546,4.3875,4.5785,4.8074,4.9961,5.2123,5.4937,5.4929,5.4629,5.4631,5.421,5.3744,5.3254,5.2806,5.2333,5.1836,5.1791,5.1791,5.1791,5.1791,5.1791,5.1791,5.1338,5.1111,5.1111,5.0588,5.0588,5.1111,5.1111,5.1062,5.0981,5.0538,5.082,5.1691,5.1202,5.1504,5.2285,5.2329,5.29,5.3787,5.3787,5.4095,5.4476,5.4497,5.4497,5.4497,5.4497,5.4497,5.4497,5.4497,5.4497,5.4497,5.4497,5.4497,5.4497,5.4497,5.4497,5.4497,5.4497,5.4497,5.4497,5.4497,5.4497,5.4497,5.4497,5.4497,5.4497,5.4497,5.4497,5.4497,5.4497,5.4497,5.4497,5.4497,5.4497,5.4497,5.4476,5.4083,5.3234,5.1867,5.1354,5.0884,5.036,5.0291,5.0291,5.0291,5.0291,4.9879,4.894,4.8894,4.8894,4.8894,4.8894,4.8894,4.8894,4.8894,4.8894,4.8894,4.8894,4.8894,2.5637,2.6344,2.7552,3.0064,3.3086,3.6421,4.0116,4.1092,4.2122,4.5303,4.6189,4.6346,4.6228,4.7336,4.8978,5.1006,5.3066,5.5166,5.7313,5.7534,5.7236,5.6598,5.6121,5.5444,5.4299,5.3745,5.3008,5.1882,5.1791,5.1791,5.1791,5.1791,5.1791,5.1791,5.1656,5.1429,5.1111,5.127,5.127,5.1111,5.1429,5.1579,5.1566,5.1423,5.1525,5.1792,5.1977,5.2203,5.247,5.2798,5.3097,5.3402,5.3688,5.3882,5.4042,5.4373,5.4497,5.4497,5.4497,5.4497,5.4497,5.4497,5.4497,5.4497,5.4497,5.4497,5.4497,5.4497,5.4497,5.4497,5.4497,5.4497,5.4497,5.4497,5.4497,5.4497,5.4497,5.4497,5.4497,5.4497,5.4497,5.4497,5.4497,5.4497,5.4497,5.4497,5.4497,5.4373,5.4042,5.3341,5.2716,5.2309,5.156,5.1043,5.0884,5.0519,5.0291,5.0291,5.0291,5.0177,4.9902,4.9879,4.9879,4.9879,4.9879,4.9879,4.9879,4.9879,4.9879,4.9879,4.9879,4.9719,2.6933,2.8266,3.0043,3.3436,3.6903,4.0706,4.5294,4.5894,4.6199,4.8769,4.9486,4.9609,4.9576,5.0594,5.2009,5.3623,5.5545,5.7474,5.9215,5.9506,5.9254,5.8511,5.7892,5.6902,5.5313,5.4565,5.3522,5.1904,5.1791,5.1791,5.1791,5.1791,5.1791,5.1791,5.1791,5.1656,5.1384,5.1656,5.1656,5.1384,5.1656,5.1791,5.1791,5.1791,5.1895,5.2102,5.2557,5.2787,5.2808,5.3075,5.3201,5.3222,5.3489,5.3672,5.3835,5.4104,5.4331,5.4497,5.4497,5.4497,5.4497,5.4497,5.4497,5.4497,5.4497,5.4497,5.4497,5.4497,5.4497,5.4497,5.4497,5.4497,5.4497,5.4497,5.4497,5.4497,5.4497,5.4497,5.4497,5.4497,5.4497,5.4497,5.4497,5.4497,5.4497,5.4497,5.4331,5.4042,5.361,5.295,5.2433,5.2226,5.1707,5.1384,5.1384,5.1066,5.0907,5.0907,5.0907,5.0907,5.0907,5.0519,5.0291,5.0291,5.0291,5.0291,5.0291,5.0291,5.0291,5.0291,5.0291,5.0154,2.8242,3.0125,3.2463,3.703,4.0971,4.5222,5.0895,5.1508,5.1086,5.1778,5.2348,5.2704,5.2687,5.3725,5.4949,5.6043,5.766,5.9272,6.0767,6.0962,6.0817,6.0399,5.9576,5.8257,5.6317,5.5269,5.3922,5.1949,5.1791,5.1791,5.1791,5.1791,5.1791,5.1791,5.1791,5.1791,5.1791,5.1791,5.1791,5.1791,5.1791,5.1791,5.1791,5.1791,5.204,5.2454,5.2891,5.3077,5.3077,5.3077,5.3077,5.3077,5.3118,5.3364,5.369,5.3773,5.4062,5.4435,5.45,5.4497,5.4497,5.4497,5.4497,5.4497,5.4497,5.4497,5.4497,5.4497,5.4497,5.4497,5.4497,5.4497,5.4497,5.4497,5.4497,5.4497,5.4497,5.4497,5.4497,5.4497,5.4497,5.4497,5.4497,5.4497,5.4497,5.4497,5.4062,5.361,5.3263,5.2743,5.2267,5.1853,5.1791,5.1791,5.1791,5.1791,5.1791,5.1791,5.1791,5.1791,5.1791,5.0907,5.0428,5.0428,5.0428,5.0428,5.0428,5.0428,5.0428,5.0428,5.0428,5.0405,2.832,3.1257,3.4413,3.8487,4.447,5.0105,5.3,5.4125,5.4399,5.3852,5.4421,5.5296,5.6259,5.7063,5.7989,5.9284,6.021,6.115,6.2206,6.2372,6.2331,6.2249,6.1461,5.9889,5.7267,5.623,5.4609,5.1994,5.1791,5.1791,5.1791,5.1791,5.1791,5.1791,5.1791,5.1791,5.1791,5.1791,5.1791,0.0,5.1791,5.1791,5.1791,5.1791,5.1853,5.1957,5.206,5.2102,5.2102,5.2102,5.2102,5.2143,5.2495,5.2702,5.2868,5.3569,5.3856,5.4,5.4373,5.4497,5.4497,5.4497,5.4497,5.4497,5.4497,5.4497,5.4497,5.4497,5.4497,5.4497,5.4497,5.4497,5.4497,5.4497,5.4497,5.4497,5.4497,5.4497,5.4497,5.4497,5.4497,5.4497,5.4497,5.4497,5.4497,5.4497,5.3817,5.3282,5.3222,5.2454,5.1915,5.1812,5.1791,5.1791,5.1791,5.1791,5.1791,5.1791,5.1791,5.1791,5.1791,5.1588,5.1474,5.1474,5.1474,5.1474,5.1474,5.1474,5.1474,5.1474,5.1474,5.127,2.8972,3.2489,3.6556,4.3304,4.8669,5.2804,5.4842,5.5937,5.6462,5.6263,5.625,5.6574,5.7433,5.8407,5.9404,6.0322,6.1155,6.1952,6.2686,6.2802,6.2802,6.2802,6.2018,6.0559,5.8211,5.6967,5.5269,5.2671,5.2265,5.204,5.1791,5.1791,5.1791,5.1791,5.1791,5.1791,5.1791,5.1791,5.1791,5.1791,5.1791,5.1791,5.1791,5.1791,5.1791,5.1791,5.1791,5.1791,5.1791,5.1791,5.1791,5.1833,5.206,5.2288,5.2557,5.2989,5.332,5.3548,5.3776,5.3882,5.3882,5.3882,5.3882,5.3882,5.3882,5.4003,5.4166,5.4166,5.4311,5.4497,5.4497,5.4497,5.4497,5.4497,5.4497,5.4497,5.4497,5.4497,5.4497,5.4497,5.4497,5.4497,5.4497,5.4497,5.4497,5.4497,5.3758,5.3201,5.3201,5.2371,5.1791,5.1791,5.1791,5.1791,5.1791,5.1791,5.1791,5.1791,5.1791,5.1791,5.1791,5.1791,5.1791,5.1791,5.1791,5.1791,5.1791,5.1791,5.1791,5.1791,5.1791,5.1656,2.9524,3.3996,3.9367,4.84,5.2129,5.41,5.6015,5.695,5.7539,5.8045,5.7661,5.7354,5.775,5.8936,6.0,6.0527,6.1476,6.2275,6.2752,6.2802,6.2802,6.2802,6.208,6.0917,5.9103,5.7808,5.6034,5.3633,5.303,5.2469,5.1814,5.1791,5.1791,5.1791,5.1791,5.1771,5.1688,5.1688,5.1646,5.1564,5.1646,5.1729,5.1791,5.1791,5.1791,5.1791,5.1791,5.1791,5.1791,5.1791,5.1791,5.1791,5.1791,5.204,5.2392,5.2454,5.2766,5.3098,5.3181,5.3201,5.3201,5.3201,5.3201,5.3201,5.3201,5.3465,5.3794,5.3794,5.4124,5.4497,5.4497,5.4497,5.4497,5.4497,5.4497,5.4497,5.4497,5.4497,5.4497,5.4497,5.4497,5.4497,5.4497,5.4497,5.4497,5.4497,5.3758,5.3201,5.3201,5.2371,5.1791,5.1791,5.1791,5.1791,5.1791,5.1791,5.1791,5.1791,5.1791,5.1791,5.1791,5.1791,5.1791,5.1791,5.1791,5.1791,5.1791,5.1791,5.1791,5.1791,5.1791,5.1791,2.897,3.6199,4.3883,4.9734,5.2421,5.4003,5.5549,5.668,5.7416,5.749,5.7849,5.8246,5.8653,5.9628,6.0547,6.1026,6.2004,6.2727,6.2802,6.2802,6.2802,6.2802,6.2393,6.1523,6.0078,5.9023,5.7312,5.4631,5.3967,5.3143,5.1859,5.1791,5.1791,5.1791,5.1791,5.1605,5.1212,5.1189,5.0982,5.0589,5.1005,5.1419,5.1791,5.1791,5.1791,5.1791,5.1791,5.1791,5.1791,5.1791,5.1791,5.1791,5.1791,5.1833,5.1936,5.235,5.2536,5.264,5.3077,5.3201,5.3201,5.3201,5.3201,5.3201,5.3201,5.3465,5.3794,5.3794,5.4124,5.4497,5.4497,5.4497,5.4497,5.4497,5.4497,5.4497,5.4497,5.4497,5.4497,5.4497,5.4497,5.4497,5.4497,5.4497,5.4497,5.4497,5.3758,5.3201,5.3201,5.2371,5.1791,5.1791,5.1791,5.1791,5.1791,5.1791,5.1791,5.1791,5.1791,5.1791,5.1791,5.1791,5.1791,5.1791,5.1791,5.1791,5.1791,5.1791,5.1791,5.1791,5.1791,5.1791,3.1198,3.7813,4.4318,4.983,5.2143,5.3708,5.5961,5.6843,5.734,5.8006,5.8348,5.8603,5.8857,5.973,6.0471,6.0649,6.1391,6.1893,6.1893,6.2149,6.235,6.235,6.2259,6.1858,6.098,5.9829,5.8108,5.5575,5.4697,5.3544,5.1882,5.1791,5.1791,5.1791,5.1543,5.1315,5.1108,5.0838,5.0734,5.0775,5.0982,5.1357,5.1791,5.1791,5.1791,5.1791,5.1791,5.1791,5.1791,5.1791,5.1791,5.1791,5.1791,5.1791,5.1833,5.2019,5.2102,5.2143,5.2329,5.2412,5.2412,5.2412,5.2412,5.2412,5.2412,5.2723,5.3137,5.3382,5.3776,5.4166,5.4414,5.4497,5.4497,5.4497,5.4497,5.4497,5.4497,5.4497,5.4497,5.4497,5.4497,5.4497,5.4497,5.4497,5.4393,5.4145,5.3592,5.3118,5.2826,5.2226,5.1791,5.1791,5.1791,5.1791,5.1791,5.1791,5.1791,5.1791,5.1791,5.1791,5.1791,5.1791,5.1791,5.1791,5.1791,5.1791,5.1791,5.1791,5.1791,5.1791,5.1791,5.1791,3.2872,3.8038,4.2866,4.846,5.075,5.2403,5.531,5.6282,5.6903,5.8058,5.851,5.8765,5.902,5.9745,6.0292,6.0292,6.0814,6.121,6.121,6.1542,6.1843,6.1994,6.2086,6.2009,6.1656,6.0539,5.8745,5.6149,5.5111,5.3665,5.1552,5.1439,5.1439,5.1439,5.1086,5.088,5.0756,5.0301,5.0301,5.0756,5.0756,5.1005,5.1439,5.1439,5.1522,5.1626,5.175,5.1791,5.1791,5.1791,5.1791,5.1791,5.1791,5.1791,5.1791,5.1791,5.1791,5.1791,5.1791,5.1791,5.1791,5.1791,5.1791,5.1791,5.1791,5.2122,5.2557,5.2909,5.3382,5.3876,5.4228,5.4393,5.4497,5.4497,5.4497,5.4497,5.4497,5.4497,5.4497,5.4497,5.4497,5.4497,5.4497,5.4497,5.4331,5.3876,5.3468,5.3036,5.2557,5.2081,5.1791,5.1791,5.1791,5.1791,5.1791,5.1791,5.1791,5.1791,5.1791,5.1791,5.1791,5.1791,5.1791,5.1791,5.1791,5.1791,5.1791,5.1791,5.1791,5.1791,5.1791,5.1791,3.2512,3.5991,3.987,4.5153,4.7632,4.9586,5.2457,5.4343,5.5792,5.6878,5.7939,5.8861,5.9388,5.9915,6.0292,6.0292,6.0814,6.121,6.121,6.1235,6.1416,6.1943,6.2024,6.2004,6.1983,6.1148,5.9302,5.6034,5.5004,5.3318,5.0619,5.0465,5.0465,5.0465,5.0444,5.0259,4.9868,4.9412,4.9412,4.9868,4.9868,5.0074,5.0465,5.0465,5.0713,5.1148,5.1605,5.1791,5.1791,5.1791,5.1791,5.1791,5.1791,5.1791,5.1791,5.1791,5.1791,5.1791,5.1791,5.1791,5.1791,5.1791,5.1791,5.1791,5.1791,5.2122,5.2495,5.2516,5.3134,5.3814,5.3835,5.4166,5.4497,5.4497,5.4497,5.4497,5.4497,5.4497,5.4497,5.4497,5.4497,5.4497,5.4497,5.4497,5.4331,5.3876,5.3468,5.3036,5.2557,5.2081,5.1791,5.1791,5.1791,5.1791,5.1791,5.1791,5.1791,5.1791,5.1791,5.1791,5.1791,5.1791,5.1791,5.1791,5.1791,5.1791,5.1791,5.1791,5.1791,5.1791,5.1791,5.1791,3.0678,3.3373,3.6616,4.0956,4.3782,4.6341,4.9536,5.2101,5.4293,5.61,5.738,5.8453,5.9332,5.9659,5.9784,5.9784,5.996,6.0111,6.0111,6.0412,6.0693,6.0894,6.124,6.1512,6.1512,6.0704,5.9202,5.682,5.5589,5.3895,5.1412,5.1281,5.1281,5.1281,5.1029,5.0499,4.9737,4.9313,4.935,4.9806,4.9806,5.0012,5.0403,5.0403,5.0651,5.1108,5.1294,5.1522,5.1791,5.1791,5.1791,5.1791,5.1791,5.1791,5.1791,5.1791,5.1791,5.1791,5.1791,5.1791,5.1791,5.1791,5.1791,5.1791,5.1791,5.1915,5.2102,5.2412,5.2723,5.3093,5.3649,5.3918,5.4124,5.4414,5.4497,5.4497,5.4497,5.4497,5.4497,5.4497,5.4497,5.4497,5.4497,5.4497,5.4331,5.3876,5.3468,5.3036,5.2557,5.235,5.2247,5.2247,5.2516,5.2704,5.2704,5.2704,5.2704,5.2704,5.2704,5.2704,5.2704,5.2704,5.2704,5.2704,5.2704,5.2392,5.1791,5.1791,5.1791,5.1791,5.1791,5.1957,2.8907,3.0965,3.3508,3.6959,3.988,4.2761,4.6095,4.9113,5.1958,5.4544,5.6143,5.7449,5.873,5.9106,5.9282,5.9458,5.9483,5.9483,5.9483,5.9809,6.0091,6.0267,6.0663,6.0889,6.0889,6.0233,5.9053,5.7166,5.5999,5.4292,5.1896,5.1917,5.1981,5.1981,5.1552,5.0932,5.0167,4.9465,4.9267,4.9578,4.9578,4.9701,4.997,4.997,5.0218,5.0653,5.0653,5.1087,5.1791,5.1791,5.1791,5.1791,5.1791,5.1791,5.1791,5.1791,5.1791,5.1791,5.1791,5.1791,5.1791,5.1791,5.1791,5.1791,5.1791,5.1791,5.1874,5.2164,5.2371,5.264,5.3217,5.3486,5.3672,5.3983,5.4065,5.4107,5.4252,5.4373,5.4497,5.4497,5.4497,5.4497,5.4497,5.4497,5.4331,5.3876,5.3569,5.324,5.2785,5.2723,5.2723,5.2723,5.2992,5.3201,5.3201,5.3201,5.3201,5.3201,5.3201,5.3201,5.3201,5.3201,5.3201,5.3201,5.3201,5.2888,5.2267,5.2102,5.204,5.204,5.204,5.2371,0.0,0.0,0.0,3.3287,3.5951,3.8791,4.2062,4.5372,4.8695,5.2067,5.416,5.5885,5.7549,5.8309,5.8836,5.9382,5.9483,5.9483,5.9483,5.9483,5.9684,6.0217,6.0267,6.0267,6.0267,5.9913,5.8916,5.7083,5.6166,5.4551,5.1932,5.2204,5.2453,5.2453,5.2015,5.1577,5.1159,4.9827,4.9166,4.9144,4.9144,4.9123,4.9102,4.9102,4.9371,4.9806,4.9806,5.0551,5.1791,5.1771,5.1771,5.1791,5.1791,5.1791,5.1791,5.1791,5.1791,5.1791,5.1791,5.1791,5.1791,5.1791,5.1791,5.1791,5.1791,5.1791,5.1791,5.1791,5.2122,5.2474,5.2518,5.287,5.3201,5.3201,5.3201,5.3302,5.3714,5.4145,5.4476,5.4497,5.4497,5.4497,5.4497,5.4497,5.4331,5.3897,5.3814,5.3672,5.3284,5.3222,5.3222,5.3222,5.3243,5.3243,5.3243,5.3243,5.3243,5.3243,5.3243,5.3243,5.3243,5.3243,5.3243,5.3243,5.3243,5.3243,5.3222,5.2766,5.2516,5.2516,5.2516,5.2989,2.6358,0.0,0.0,0.0,0.0,0.0,3.759,4.1418,4.5412,4.9154,5.2176,5.4813,5.6878,5.7732,5.8303,5.8836,5.9257,5.9483,5.9483,5.9483,5.9558,5.9709,5.9734,5.9734,5.9734,5.9364,5.8782,5.7898,5.6789,5.5426,5.3754,5.3774,5.3859,5.384,5.3735,5.3303,5.256,5.1495,5.0844,5.0549,5.0188,4.9849,4.9529,4.923,4.9371,4.9806,4.9806,5.0364,5.1274,5.092,5.1005,5.1294,5.1294,5.1501,5.1791,5.1791,5.1791,5.1791,5.1791,5.1791,5.1791,5.1791,5.1791,5.1791,5.1791,5.1791,5.1791,5.1791,5.1895,5.206,5.2412,5.287,5.3201,5.3201,5.3201,5.322,5.3344,5.3693,5.4083,5.4435,5.4497,5.4497,5.4497,5.4497,5.4479,5.4311,5.4021,5.3752,5.3651,5.3631,5.3631,5.3631,5.3941,5.4148,5.4148,5.4148,5.4148,5.4148,5.4148,5.4148,5.4148,5.4148,5.4148,5.4148,5.4148,5.3983,5.3631,5.322,5.3015,5.2992,5.33,5.3566,0.0,0.0,0.0,2.8851,0.0,0.0,3.4532,3.8065,4.1945,4.5612,4.8652,5.1297,5.3515,5.4587,5.5239,5.5566,5.6646,5.7945,5.9307,5.9483,5.9483,5.9483,5.9483,5.9483,5.9483,5.9295,5.9037,5.8765,5.7898,5.6909,5.5785,5.5564,5.5523,5.5732,5.5544,5.5119,5.4429,5.3341,5.2576,5.2184,5.1326,5.0717,5.0252,4.9465,4.9247,4.9516,4.9516,4.993,5.0551,5.0259,5.0632,5.1398,5.1398,5.1564,5.1791,5.1791,5.1791,5.1791,5.1791,5.1791,5.1791,5.1791,5.1791,5.1791,5.1791,5.1791,5.1791,5.1791,5.1791,5.1915,5.2371,5.2702,5.2974,5.316,5.3201,5.3263,5.3427,5.3486,5.3672,5.4104,5.4352,5.4497,5.4497,5.4497,5.4497,5.4497,5.4249,5.4083,5.4083,5.4083,5.4083,5.4083,5.4355,5.4497,5.4497,5.4497,5.4497,5.4497,5.4497,5.4497,5.4497,5.4497,5.4497,5.4497,5.4497,5.4352,5.4083,5.3651,5.3468,5.3445,5.39,5.4083,2.7762,0.0,0.0,0.0,3.0123,0.0,3.2534,3.5239,3.8391,4.1683,4.4166,4.6411,4.8636,4.9983,5.0736,5.0736,5.2545,5.515,5.8554,5.9131,5.9257,5.9307,5.9307,5.9307,5.9307,5.9307,5.9332,5.9408,5.9051,5.8491,5.7725,5.7281,5.7242,5.7666,5.7281,5.6861,5.6443,5.5214,5.4362,5.3915,5.2618,5.1766,5.1285,4.9976,4.9358,4.9315,4.9273,4.9499,4.9933,4.989,5.0592,5.1729,5.1729,5.175,5.1791,5.1791,5.1791,5.1791,5.1791,5.1791,5.1791,5.1791,5.1791,5.1791,5.1791,5.1791,5.1791,5.1791,5.1791,5.1915,5.2371,5.2495,5.2619,5.3098,5.3201,5.3282,5.3672,5.3468,5.3302,5.3672,5.4062,5.4376,5.4393,5.4414,5.4435,5.4476,5.4497,5.4497,5.4497,5.4497,5.4497,5.4497,5.4497,5.4497,5.4497,5.4497,5.4497,5.4497,5.4497,5.4497,5.4497,5.4497,5.4497,5.4497,5.4497,5.4497,5.4497,5.4083,5.3876,5.3897,5.4314,5.4497,2.9046,2.9247,2.9402,0.0,0.0,0.0,3.0984,3.2627,3.4874,3.7726,4.0437,4.2958,4.5181,4.6512,4.728,4.728,4.8777,5.1406,5.5609,5.6928,5.7681,5.8152,5.8202,5.8202,5.8202,5.8202,5.8403,5.8811,5.8516,5.8295,5.8168,5.804,5.8021,5.8168,5.8021,5.776,5.7345,5.6769,5.609,5.5304,5.4327,5.3468,5.2685,5.1705,5.1076,5.0696,5.0294,5.0397,5.0827,5.0454,5.0673,5.1253,5.1253,5.1481,5.1791,5.1791,5.1791,5.1791,5.1791,5.1791,5.1791,5.1791,5.1791,5.1791,5.1791,5.1791,5.1791,5.1791,5.1791,5.1915,5.2371,5.2495,5.2619,5.3098,5.3201,5.3222,5.3282,5.3263,5.3222,5.3302,5.3385,5.3571,5.3876,5.3938,5.4062,5.4435,5.4497,5.4497,5.4497,5.4497,5.4497,5.4497,5.4497,5.4497,5.4497,5.4497,5.4497,5.4497,5.4497,5.4497,5.4497,5.4497,5.4497,5.4497,5.4497,5.4497,5.4497,5.4393,5.4352,5.4352,5.4479,5.4497,3.1042,3.0989,3.0791,3.1042,0.0,0.0,0.0,3.126,3.2889,3.5114,3.7074,3.9006,4.0964,4.2032,4.2624,4.2624,4.4457,4.6969,5.0033,5.3549,5.6319,5.7725,5.7901,5.7901,5.7901,5.7901,5.8127,5.866,5.8552,5.8569,5.8887,5.8862,5.8862,5.8887,5.8862,5.8765,5.855,5.8354,5.7922,5.729,5.6186,5.5322,5.4653,5.3546,5.2806,5.2351,5.1431,5.1316,5.1674,5.0756,5.0796,5.146,5.146,5.1584,5.1791,5.1791,5.1791,5.1791,5.1791,5.1791,5.1791,5.1791,5.1791,5.1791,5.1791,5.1791,5.1791,5.1791,5.1957,5.2247,5.2746,5.2992,5.3258,5.3758,5.3861,5.3861,5.3861,5.3651,5.3486,5.3486,5.3344,5.3261,5.3489,5.3672,5.3876,5.4104,5.4331,5.4497,5.4497,5.4497,5.4497,5.4497,5.4497,5.4497,5.4497,5.4497,5.4497,5.4497,5.4497,5.4497,5.4497,5.4497,5.4497,5.4497,5.4497,5.4497,5.4497,5.4497,5.4497,5.4497,5.4497,5.4497,0.0,0.0,0.0,0.0,0.0,3.0598,0.0,0.0,0.0,3.3119,3.4276,3.5481,3.6948,3.7701,3.8065,3.7939,4.0075,4.2347,4.4131,4.8802,5.3148,5.6093,5.6646,5.6771,5.6771,5.7072,5.7499,5.8008,5.8158,5.8434,5.9006,5.9232,5.9357,5.9357,5.9433,5.9483,5.9483,5.9483,5.9314,5.8906,5.7716,5.694,5.6502,5.5335,5.4545,5.4018,5.2763,5.2439,5.2693,5.1456,5.1452,5.2175,5.1904,5.1791,5.1791,5.1791,5.1791,5.1791,5.1791,5.1791,5.1791,5.1791,5.1791,5.1791,5.1791,5.1791,5.1812,5.1915,5.2205,5.2642,5.3157,5.3548,5.3918,5.4396,5.4497,5.4497,5.4497,5.4124,5.3794,5.3794,5.3489,5.322,5.3302,5.3589,5.3835,5.3918,5.4249,5.4497,5.4497,5.4414,5.4393,5.45,5.4414,5.4393,5.4476,5.4497,5.4497,5.4497,5.4497,5.4497,5.4497,5.4497,5.4497,5.4497,5.4497,5.4497,5.4497,5.4497,5.4497,5.4497,5.4497,5.4497,0.0,0.0,0.0,0.0,3.2139,0.0,0.0,0.0,3.0874,3.1547,0.0,3.3581,3.4248,0.0,0.0,3.455,3.5979,3.7889,4.0062,4.1768,4.4916,5.0578,5.2134,5.2754,5.2754,5.4102,5.52,5.5717,5.6219,5.6728,5.7255,5.8259,5.8786,5.8786,5.9257,5.9483,5.9483,5.9483,5.9314,5.8881,5.831,5.7839,5.7424,5.6929,5.625,5.5406,5.4492,5.4178,5.4194,5.3253,5.319,5.3521,5.2288,5.1791,5.1791,5.1791,5.1791,5.1791,5.1791,5.1791,5.1791,5.1791,5.1791,5.1791,5.1791,5.1791,5.1895,5.2288,5.2454,5.2681,5.3527,5.3773,5.3918,5.4396,5.4497,5.4497,5.4497,5.4124,5.3794,5.3794,5.3489,5.3302,5.3672,5.3773,5.3938,5.4352,5.4455,5.4497,5.4497,5.4124,5.4042,5.4479,5.4124,5.4042,5.4455,5.4497,5.4497,5.4497,5.4497,5.4497,5.4497,5.4497,5.4497,5.4497,5.4497,5.4497,5.4497,5.4497,5.4497,5.4497,5.4497,5.4497,0.0,0.0,0.0,0.0,0.0,0.0,0.0,0.0,3.1321,0.0,0.0,0.0,0.0,0.0,0.0,0.0,3.4751,3.5956,3.7563,3.8705,4.1416,4.6903,4.852,4.9699,5.0979,5.2352,5.3356,5.3891,5.4461,5.5272,5.6477,5.7907,5.871,5.871,5.9232,5.9483,5.9483,5.9483,5.9431,5.9256,5.9056,5.8881,5.8706,5.853,5.8119,5.7508,5.6367,5.6066,5.632,5.5167,5.5008,5.5335,5.3945,5.294,5.2175,5.1904,5.1791,5.1791,5.1791,5.1791,5.1791,5.1791,5.1791,5.1791,5.1791,5.1791,5.1895,5.2371,5.2704,5.3033,5.3628,5.4,5.4249,5.4435,5.4497,5.4497,5.4497,5.4331,5.4207,5.4207,5.4065,5.4003,5.4189,5.398,5.3876,5.4062,5.4311,5.4393,5.4124,5.3918,5.3796,5.3758,5.3776,5.3876,5.4083,5.4331,5.4497,5.4497,5.4497,5.4497,5.4497,5.4497,5.4497,5.4497,5.4497,5.4497,5.4497,5.4497,5.4497,5.4497,5.4497,5.4497,4.0484,0.0,0.0,0.0,0.0,0.0,0.0,0.0,0.0,0.0,0.0,0.0,0.0,0.0,0.0,0.0,0.0,3.4714,3.5403,3.6019,3.8153,4.2886,4.4857,4.667,4.8807,4.9972,5.0822,5.1389,5.2,5.308,5.4762,5.6746,5.7932,5.8234,5.8911,5.9357,5.9483,5.9483,5.9483,5.9483,5.9483,5.9483,5.9483,5.9483,5.927,5.8867,5.7926,5.7747,5.8126,5.7168,5.6954,5.7073,5.5838,5.4587,5.332,5.222,5.1791,5.1791,5.1791,5.1791,5.1791,5.1791,5.1791,5.1791,5.1791,5.1895,5.2081,5.2557,5.3013,5.3468,5.3876,5.4228,5.4497,5.4497,5.4497,5.4497,5.4497,5.4497,5.4497,5.4497,5.4497,5.4497,5.4497,5.4207,5.398,5.398,5.4269,5.4373,5.4042,5.3876,5.3755,5.3571,5.3589,5.3734,5.3959,5.4186,5.4352,5.4476,5.4497,5.4497,5.4497,5.4497,5.4497,5.4497,5.4497,5.4497,5.4497,5.4497,5.4497,5.4497,5.4497,5.4497,0.0,0.0,0.0,3.8454,0.0,0.0,0.0,0.0,3.3215,0.0,0.0,0.0,0.0,0.0,0.0,0.0,0.0,0.0,0.0,3.2717,3.3836,3.7777,4.086,4.3406,4.5369,4.631,4.7026,4.7635,4.8468,4.9681,5.1364,5.4027,5.5993,5.701,5.8158,5.8961,5.9483,5.9483,5.9483,5.9483,5.9483,5.9483,5.9483,5.9483,5.927,5.8912,5.9,5.9087,5.9159,5.9257,5.9078,5.8622,5.768,5.6731,5.5554,5.2806,5.1791,5.1791,5.1791,5.1791,5.1791,5.1791,5.1791,5.1791,5.1791,5.2122,5.2601,5.3056,5.3465,5.3876,5.4376,5.45,5.4497,5.4497,5.4497,5.4497,5.4497,5.4497,5.4497,5.4497,5.4497,5.4497,5.4497,5.45,5.4479,5.4479,5.45,5.4476,5.4476,5.4083,5.3959,5.4393,5.3716,5.3551,5.4417,5.4062,5.4021,5.4455,5.4497,5.4497,5.4497,5.4497,5.4497,5.4497,5.4497,5.4497,5.4497,5.4497,5.4497,5.4497,5.4497,5.4497,0.0,0.0,4.3134,4.1656,0.0,0.0,0.0,0.0,0.0,0.0,0.0,0.0,0.0,0.0,0.0,0.0,0.0,0.0,0.0,3.2149,3.2251,3.4315,3.7138,3.9583,4.1188,4.2744,4.3864,4.4472,4.582,4.7496,4.9547,5.2595,5.4963,5.6426,5.7932,5.8961,5.9483,5.9483,5.9483,5.9483,5.9483,5.9483,5.9483,5.9483,5.945,5.932,5.9733,6.0124,6.0556,6.0961,6.1092,6.0921,5.9679,5.8788,5.7892,5.4785,5.3655,5.361,5.3319,5.2985,5.2671,5.2357,5.204,5.1853,5.2164,5.2371,5.2661,5.3382,5.3714,5.3897,5.4373,5.4497,5.4592,5.4948,5.5259,5.559,5.5944,5.6275,5.6488,5.6488,5.6488,5.6488,5.6488,5.6488,5.604,5.469,5.4497,5.4396,5.4062,5.3897,5.3776,5.3654,5.3364,5.3427,5.398,5.4166,5.4311,5.45,5.4497,5.4497,5.4497,5.4497,5.4497,5.4497,5.4497,5.4497,5.4497,5.4497,5.4497,5.4497,5.4497,5.4497,4.7992,4.7214,0.0,4.5336,4.3653,0.0,4.0149,0.0,0.0,0.0,0.0,0.0,0.0,0.0,0.0,0.0,0.0,0.0,0.0,3.155,3.1048,3.1977,3.439,3.6606,3.8121,3.9778,4.0974,4.1461,4.2878,4.4769,4.7195,5.0444,5.3181,5.5265,5.733,5.866,5.9207,5.9408,5.9483,5.9483,5.9483,5.9483,5.9483,5.9483,5.9608,5.9809,6.0387,6.0939,6.1517,6.2069,6.2231,6.2084,6.1021,6.0309,5.9552,5.662,5.5576,5.5488,5.5027,5.443,5.3847,5.3398,5.2824,5.235,5.264,5.2847,5.3072,5.3628,5.3918,5.4104,5.4414,5.4497,5.4687,5.5378,5.604,5.6699,5.7399,5.805,5.849,5.849,5.849,5.849,5.849,5.849,5.7842,5.5876,5.5569,5.5393,5.4931,5.4701,5.4432,5.4,5.3626,5.3507,5.3773,5.4228,5.4497,5.4497,5.4497,5.4497,5.4497,5.4497,5.4497,5.4497,5.4497,5.4497,5.4497,5.4497,5.4497,5.4497,5.4497,5.4497]}]]